GFSGL_sfc_thetae_000.txt.gz
Theta_e
281 279 278 277 276 276 275 276 276 275 275 275 275 274 274 274 275 275 275 275 275 275 276 277 277 278 278 279 279 279 280 279 275 279 284 290 289 294 300 302 301 301 301
279 278 276 276 275 274 275 275 274 274 274 273 273 272 272 272 273 272 272 272 272 272 272 273 274 275 275 277 277 277 277 278 277 275 283 285 287 290 299 298 301 302 302
277 276 275 274 274 273 273 273 273 272 272 272 271 271 270 270 270 270 270 270 270 270 270 270 271 272 273 274 274 275 276 276 277 276 278 285 286 291 297 298 298 298 299
275 274 274 274 273 272 272 272 271 271 270 270 270 269 269 269 269 269 269 269 270 271 271 271 272 272 272 272 273 274 275 274 275 275 277 282 284 291 296 294 294 295 295
274 273 273 272 271 271 270 270 270 269 269 269 268 268 269 269 269 269 270 270 270 271 272 272 273 273 274 275 274 274 274 274 274 275 277 281 282 289 291 294 288 290 291
273 273 271 270 270 269 269 268 267 267 267 267 267 268 268 268 270 272 272 272 271 271 271 272 272 273 274 276 277 278 278 275 274 274 276 277 280 286 291 291 289 287 285
272 271 269 269 268 267 266 266 266 266 266 266 267 267 267 267 270 272 273 272 272 272 272 272 273 274 275 275 277 278 278 280 280 279 277 278 280 283 289 289 288 286 286
271 268 268 267 266 266 265 265 265 266 266 266 266 266 267 267 270 271 272 272 272 272 272 272 272 274 275 276 276 276 277 277 278 279 279 280 284 286 286 289 288 286 285
268 268 267 266 264 264 262 264 264 265 265 264 266 265 265 265 269 271 272 271 271 272 273 273 273 273 275 276 275 275 277 279 280 281 281 283 287 288 290 287 285 285 284
269 267 266 265 262 261 263 262 264 263 264 265 265 265 265 265 269 271 272 272 271 272 273 274 275 274 276 277 276 276 275 278 278 278 280 281 284 288 288 288 286 283 284
267 266 264 263 261 261 261 262 262 262 263 263 264 266 267 269 269 272 274 273 272 272 272 272 273 274 275 276 277 276 278 280 279 278 279 281 284 285 287 289 288 285 284
265 264 262 260 262 262 259 261 261 262 263 263 265 267 269 269 270 272 274 275 275 271 270 271 272 274 276 277 277 278 280 281 281 279 278 281 283 284 286 287 288 288 288
263 261 260 260 261 260 260 261 264 263 264 264 266 266 267 268 270 272 274 274 273 270 271 272 272 272 275 275 276 278 278 278 278 280 279 280 284 286 286 287 288 289 289
261 261 261 261 261 261 263 264 263 264 264 265 266 266 266 268 269 272 272 271 271 270 270 267 269 271 272 275 275 277 278 278 279 279 282 282 285 285 285 288 287 288 287
262 262 262 262 262 262 262 262 264 265 266 266 266 267 266 266 269 272 272 270 269 270 266 265 266 267 268 268 269 271 272 274 276 280 283 283 283 285 286 288 287 287 285
262 261 261 261 261 261 261 262 262 264 266 267 268 269 268 270 272 272 272 271 270 270 263 262 263 264 266 266 267 268 269 270 272 273 280 284 283 285 285 286 286 286 287
262 261 260 260 260 260 260 261 261 262 263 264 265 267 269 270 270 271 271 269 268 267 261 261 262 263 264 266 266 266 267 269 270 271 273 275 284 285 285 285 286 286 292
261 260 260 260 259 258 258 258 257 257 257 259 262 265 266 268 268 269 269 265 262 263 262 261 261 263 263 265 265 266 266 268 269 269 270 272 275 279 285 285 286 290 295
259 258 258 257 257 257 257 256 257 256 257 257 258 261 260 265 266 266 266 261 260 260 260 261 262 263 263 264 265 265 265 267 267 267 268 269 272 274 282 286 290 291 293
258 257 257 257 255 256 256 256 256 256 256 256 257 257 257 260 259 259 260 260 260 260 260 261 262 263 264 265 265 266 265 267 266 265 266 267 269 269 285 289 290 291 293
257 255 256 256 256 256 255 255 255 255 255 255 255 254 264 257 257 258 259 259 259 259 260 261 262 263 264 265 266 266 265 267 266 265 265 266 267 269 282 290 288 291 292
257 256 256 255 255 254 253 254 254 254 254 254 254 255 259 256 256 256 258 258 259 259 260 261 262 263 264 264 266 266 265 267 265 265 265 266 267 269 274 288 288 290 289
256 255 255 255 254 251 253 253 254 254 254 253 253 254 254 254 254 255 256 257 257 258 260 261 261 263 264 265 268 267 266 267 265 265 264 265 267 269 273 285 288 288 289
256 256 255 254 254 254 253 253 253 251 252 253 253 253 253 253 254 254 255 256 256 258 259 260 261 262 263 265 268 268 268 269 267 265 266 265 266 268 270 284 289 289 290
256 255 255 254 253 254 252 253 253 252 252 253 253 252 252 253 253 254 254 255 255 256 258 260 261 262 263 265 268 268 268 270 267 266 266 266 265 266 267 277 288 289 289
255 255 254 252 252 252 253 253 252 253 252 252 252 252 252 252 252 253 253 253 253 254 256 259 261 262 264 265 269 269 268 270 268 266 266 265 264 264 265 267 270 281 289

GFSGL_sfc_thetae_003.txt.gz
Theta_e
286 286 284 283 282 281 279 279 279 279 278 277 276 276 275 275 275 275 275 275 275 275 276 276 276 277 277 277 278 278 278 278 275 278 280 282 282 284 286 288 290 292 295
286 284 282 281 279 278 277 278 278 276 276 275 275 274 273 273 273 273 272 273 272 272 272 272 272 273 273 273 274 274 275 276 275 273 277 278 278 281 282 282 288 291 292
284 282 280 278 277 277 277 276 276 275 274 274 273 272 272 272 271 271 271 271 270 270 271 271 271 272 271 272 272 271 272 274 274 273 273 276 276 277 278 282 286 289 292
282 279 278 277 276 276 276 275 274 273 272 272 272 271 270 270 271 271 271 270 270 271 272 272 272 272 272 271 271 271 272 271 272 271 272 273 274 277 278 278 283 286 289
279 278 276 276 276 275 273 273 272 271 271 270 270 269 270 270 270 270 271 271 271 272 272 272 273 273 274 274 273 272 272 271 271 271 271 272 273 275 277 281 282 284 292
277 276 276 275 273 273 272 271 270 269 269 269 269 269 269 270 272 273 273 272 272 271 271 272 273 273 274 275 276 277 276 273 271 271 271 271 272 274 276 277 280 280 285
276 276 274 273 271 271 270 269 268 268 269 268 268 269 269 269 272 273 273 272 271 271 271 271 272 274 274 273 274 276 276 278 279 276 274 274 275 277 278 277 278 280 282
275 273 272 271 270 269 268 267 267 268 267 268 268 268 268 269 272 272 273 272 271 271 272 272 273 273 274 274 273 272 273 274 276 276 276 276 277 278 278 279 279 280 283
273 272 270 270 268 267 266 266 267 267 267 267 267 267 266 266 270 272 273 271 272 272 273 274 274 274 276 276 274 273 273 274 277 279 280 281 282 282 281 279 277 279 279
272 270 270 269 267 266 266 266 267 266 266 267 267 267 266 266 270 273 274 273 271 273 274 275 275 273 276 276 273 272 271 273 275 276 277 279 281 281 283 281 279 276 282
272 269 268 267 265 265 265 266 264 264 266 264 265 267 268 270 270 273 275 274 273 273 272 271 272 274 275 276 276 273 273 275 275 275 276 277 279 279 279 280 282 281 281
269 267 265 264 264 263 262 263 263 264 264 265 266 268 270 270 271 272 275 276 276 271 270 271 271 275 274 275 274 276 278 277 276 276 276 277 278 278 279 281 283 285 287
267 265 263 262 264 262 261 263 264 264 266 266 267 267 267 269 270 272 274 275 275 272 271 273 272 272 272 272 273 274 273 273 274 274 274 276 278 280 281 283 283 284 285
264 263 262 262 262 262 264 264 265 265 265 266 267 266 267 267 269 270 272 272 273 271 272 268 268 269 270 270 269 270 270 271 271 271 273 276 280 281 280 281 282 283 284
264 263 263 263 263 263 265 264 266 266 267 266 266 266 266 265 268 273 272 271 271 271 269 265 264 265 265 266 266 268 269 269 268 270 270 271 274 280 281 282 282 283 282
264 264 264 263 264 264 263 262 265 267 267 267 267 267 268 270 272 273 273 273 272 272 264 262 262 263 263 265 264 265 267 267 268 268 269 270 272 274 280 282 284 283 283
265 264 264 263 263 262 263 264 262 263 265 265 266 267 268 269 271 271 271 271 269 267 261 261 261 262 263 264 264 265 265 267 268 268 269 268 269 271 274 279 282 283 284
265 264 263 263 263 263 263 263 263 263 261 261 263 265 266 268 269 269 270 266 261 262 261 260 261 262 262 263 264 264 266 266 266 267 268 267 267 268 270 273 277 284 284
263 263 263 262 262 261 261 260 260 260 259 259 260 262 261 266 267 267 267 261 259 259 260 260 261 262 262 263 264 264 266 266 266 267 266 266 266 266 267 269 273 277 284
262 261 260 260 259 259 259 259 259 258 258 258 258 258 257 260 259 259 260 260 259 259 259 260 261 262 263 263 264 265 266 265 266 266 265 265 265 266 266 267 270 272 282
260 259 259 259 258 258 259 259 259 258 257 257 257 256 265 256 257 257 257 258 258 258 258 259 260 261 262 263 264 265 266 265 267 266 264 264 264 264 266 268 269 270 284
259 258 259 258 258 258 257 257 257 257 256 256 256 256 260 256 256 255 256 257 257 257 258 259 260 261 262 263 264 266 266 265 267 265 264 264 265 265 266 268 270 273 288
259 258 258 257 258 256 256 256 256 256 255 254 255 255 255 254 253 254 255 256 256 256 257 258 259 260 262 263 265 267 267 266 267 266 264 264 264 265 265 267 270 276 287
259 258 257 256 255 256 255 255 255 254 255 254 254 254 254 252 253 254 254 255 255 255 256 257 258 259 261 262 265 267 269 269 269 266 266 264 264 264 265 266 269 281 288
258 257 257 256 256 256 255 255 255 254 254 255 254 254 253 253 253 253 254 253 253 253 254 255 258 259 260 261 264 268 270 270 269 267 266 265 264 264 264 265 267 276 288
258 257 257 256 256 255 255 255 254 255 254 254 253 253 253 253 252 252 252 252 252 252 253 255 256 258 260 262 263 268 271 271 270 267 266 265 264 264 263 264 265 268 272

GFSGL_sfc_thetae_006.txt.gz
Theta_e
285 284 283 281 280 279 278 277 277 277 276 276 275 275 275 275 275 274 274 274 274 274 274 274 274 275 274 274 274 275 274 275 273 275 277 278 277 278 280 281 282 281 282
284 283 281 280 279 278 277 276 276 275 275 275 274 274 274 273 273 273 272 273 272 272 272 272 271 273 271 272 271 271 271 272 271 269 272 273 273 275 276 277 279 280 279
283 282 280 279 277 276 276 275 275 274 274 274 273 272 272 272 272 272 271 271 271 270 271 271 271 271 271 271 271 271 271 272 271 270 269 272 272 274 274 275 275 276 279
283 281 279 277 276 275 275 274 274 273 272 272 272 272 271 271 271 271 271 271 270 271 271 272 272 272 272 272 272 271 272 271 271 270 269 270 271 273 274 272 273 276 277
282 280 278 276 275 275 274 273 273 272 271 271 271 270 270 270 270 270 271 271 271 271 272 273 273 273 275 275 274 273 273 272 271 270 269 270 270 271 271 273 273 274 276
280 278 276 275 275 274 273 272 271 271 271 270 270 269 269 270 273 275 275 272 273 272 271 272 273 272 273 276 277 277 277 273 272 271 271 270 271 272 273 273 273 273 272
278 277 275 274 273 272 272 271 271 270 270 270 270 270 269 270 273 275 275 274 272 271 271 272 272 273 273 273 275 277 277 277 277 274 271 272 272 274 275 274 274 274 274
277 276 274 273 272 271 271 270 270 270 269 269 269 269 269 269 273 274 274 273 272 272 272 273 273 273 275 275 275 274 274 275 276 275 274 274 274 275 276 275 275 275 276
275 274 273 273 271 270 269 269 269 269 269 269 269 268 267 268 270 272 274 272 272 272 274 274 275 274 275 277 274 272 273 273 277 278 278 279 280 281 280 277 275 273 272
274 273 272 272 270 269 269 269 269 269 268 269 268 268 267 266 270 272 274 272 270 272 274 274 274 273 276 277 274 273 270 272 273 272 274 275 277 277 279 278 277 274 276
274 272 271 270 269 269 268 268 267 267 268 267 267 267 268 268 268 272 275 273 272 273 271 271 272 274 276 276 276 272 271 274 274 272 274 275 275 276 276 277 278 277 275
272 270 269 268 268 268 267 266 265 266 265 265 266 267 270 271 271 272 274 275 276 271 271 271 272 275 274 274 273 274 274 274 269 269 270 271 274 275 276 278 279 280 280
269 268 266 266 265 265 264 263 264 265 265 266 267 268 268 269 270 271 273 275 274 272 272 273 274 272 272 270 271 272 270 268 267 266 267 269 272 274 277 278 279 280 280
266 265 264 264 263 263 265 265 265 265 266 267 267 267 267 268 268 269 270 269 273 272 272 267 268 269 269 269 267 269 269 268 268 267 267 269 270 271 272 274 276 280 278
266 264 264 263 263 264 265 266 267 268 267 266 266 266 265 264 267 272 272 271 271 271 265 262 262 263 263 264 264 266 267 267 267 268 267 267 268 270 270 273 274 278 278
266 264 264 263 264 265 265 266 270 269 271 271 271 267 266 269 271 272 272 273 271 271 257 258 260 261 262 262 263 263 265 266 267 268 267 267 267 268 268 269 271 272 277
267 266 265 265 265 264 263 264 264 268 271 271 270 269 269 269 270 271 271 270 268 265 252 258 259 260 261 262 263 263 264 265 267 267 267 266 268 267 266 266 268 270 272
267 266 265 265 265 264 264 263 263 262 262 263 267 267 267 268 269 269 269 263 254 258 252 257 258 259 260 261 262 263 264 264 266 267 266 267 266 265 265 265 266 267 269
266 265 265 265 264 265 265 264 263 262 261 260 260 265 261 266 268 266 265 252 249 250 253 256 257 258 259 261 262 263 264 263 266 266 267 266 265 264 264 264 265 266 267
266 265 265 264 263 262 262 261 261 260 259 259 258 257 255 255 251 249 248 247 247 248 253 255 256 258 259 260 261 262 263 264 266 267 267 266 265 264 264 264 264 264 265
265 263 263 262 261 261 260 260 260 259 258 257 255 254 261 251 248 247 246 246 246 247 252 254 255 256 258 260 261 262 262 264 267 268 267 265 265 264 264 265 265 265 265
262 260 261 260 260 260 260 259 259 258 257 255 253 253 262 250 248 245 244 245 246 247 251 251 254 256 257 259 260 261 262 263 266 268 266 265 265 264 264 264 264 265 266
261 260 260 259 259 258 258 257 257 256 256 254 253 252 250 247 246 244 244 245 245 248 251 250 252 254 257 259 260 261 263 263 267 268 266 265 265 264 264 263 263 264 266
260 260 259 257 258 257 256 256 256 256 254 252 252 249 248 246 244 244 244 244 245 248 249 250 251 252 255 257 259 262 264 265 270 268 266 265 264 264 264 263 263 264 264
259 258 257 257 256 256 256 255 254 253 253 253 251 249 247 247 246 244 244 245 247 248 249 250 252 252 253 255 258 261 263 266 271 268 267 266 264 264 264 263 263 263 264
259 258 257 257 256 256 255 255 254 254 252 252 251 249 249 247 246 245 245 246 248 249 249 251 251 250 252 256 260 262 265 270 271 269 267 265 264 263 264 263 262 263 263

GFSGL_sfc_thetae_009.txt.gz
Theta_e
286 286 285 284 283 282 282 280 279 278 277 277 276 276 276 275 275 274 274 274 274 274 275 275 274 275 274 274 274 274 274 274 271 273 275 276 275 274 275 276 277 277 277
286 284 284 282 281 281 280 278 277 277 276 276 276 275 275 274 274 274 273 273 273 272 273 272 272 273 272 272 272 272 271 272 271 268 271 272 272 273 273 273 275 276 276
285 283 282 281 280 279 278 277 277 276 275 275 275 274 273 273 273 273 272 272 272 272 271 271 271 271 271 272 272 271 272 273 272 270 269 272 272 273 272 273 273 274 276
283 283 281 281 280 278 277 276 276 275 274 274 273 272 272 272 272 272 272 271 271 271 271 271 272 272 272 272 272 272 272 271 271 271 270 271 272 274 273 271 271 273 274
283 282 281 280 279 276 276 276 275 274 273 273 272 272 271 271 271 271 272 271 271 271 272 273 273 273 275 275 274 273 273 272 272 272 271 272 272 273 272 273 272 273 274
283 282 281 278 276 275 275 274 273 273 272 272 271 271 270 271 275 276 273 272 273 272 272 273 273 273 273 276 277 278 277 274 273 272 272 272 272 273 273 272 272 271 270
282 281 278 276 275 275 275 274 273 272 272 272 271 271 271 271 276 277 277 275 274 273 272 272 272 274 274 274 276 278 278 278 279 276 273 273 273 274 274 273 272 272 271
281 279 277 276 275 274 273 273 272 271 270 270 270 270 271 271 276 277 277 275 273 273 273 273 272 273 275 275 274 274 275 275 276 276 275 275 275 276 276 275 274 273 274
279 277 276 276 274 273 272 271 271 270 270 270 271 270 270 270 276 276 275 273 273 273 273 274 274 274 275 277 275 273 273 273 277 277 277 278 279 280 279 277 274 273 270
278 277 276 275 274 272 272 271 271 270 270 270 270 269 269 267 273 274 275 273 270 272 273 274 275 274 276 277 275 273 270 270 271 273 274 273 273 273 276 276 275 272 271
276 275 274 274 273 273 271 271 269 270 270 270 269 269 268 268 269 275 276 274 272 271 273 271 273 275 277 277 277 273 270 274 273 268 268 269 270 271 272 275 276 274 272
274 273 272 272 271 271 269 269 269 269 268 268 267 267 269 269 271 274 275 276 275 270 269 272 272 275 275 275 273 273 274 274 267 266 266 267 268 269 271 272 273 275 276
272 271 270 270 269 269 268 267 267 267 267 266 267 267 268 270 270 274 275 274 274 273 272 272 273 272 272 270 271 272 270 267 266 265 265 267 269 270 271 271 272 273 274
269 269 268 268 267 267 268 267 267 267 267 267 267 268 268 268 268 269 270 270 272 271 270 266 268 268 269 269 267 268 267 267 266 266 266 268 269 269 269 270 269 271 270
271 268 268 267 266 266 267 267 268 269 270 268 269 268 267 266 267 270 270 270 269 270 260 258 260 263 263 264 264 265 266 266 265 266 266 266 268 268 268 269 269 269 267
269 268 268 267 266 266 266 267 272 271 274 274 273 270 269 271 274 274 274 272 271 269 257 253 259 260 261 262 262 263 264 265 265 266 265 266 267 267 268 268 268 266 265
270 267 267 266 266 266 266 267 266 272 275 275 274 273 272 273 274 273 273 269 269 263 251 252 257 258 259 261 261 262 262 264 265 265 265 266 268 268 267 265 265 265 264
270 268 267 266 266 266 267 267 268 268 267 268 273 273 273 273 273 273 270 264 257 255 248 249 250 255 258 259 260 260 261 262 263 264 264 266 268 267 265 264 264 264 264
269 267 267 266 267 266 267 267 267 267 266 265 266 270 270 273 272 271 265 256 252 250 247 247 250 254 256 257 258 259 260 261 262 263 264 265 268 267 265 264 265 264 264
269 268 267 267 266 265 266 265 264 264 263 263 263 261 259 260 258 255 254 252 249 248 249 247 250 251 253 255 256 258 259 260 261 263 264 267 267 266 265 264 264 263 263
268 267 266 266 265 266 265 264 263 262 261 261 260 259 262 258 255 254 251 248 247 246 245 247 248 249 252 254 255 257 258 260 261 263 263 267 266 265 265 265 264 264 264
266 266 265 264 264 263 263 263 262 261 260 259 258 260 266 255 254 251 248 248 247 244 244 246 247 247 251 253 255 256 257 258 262 263 264 267 266 265 265 264 264 264 263
264 264 263 262 262 261 261 261 260 259 259 258 258 256 255 253 250 247 247 247 245 243 243 244 245 247 250 253 254 255 257 259 262 264 266 266 265 265 264 263 263 263 262
262 262 261 260 261 260 259 259 258 258 257 256 255 254 253 251 250 248 247 245 242 243 243 244 245 245 249 251 253 255 257 260 263 266 267 266 264 264 264 263 263 263 262
261 260 260 259 259 259 258 257 257 256 255 255 254 253 251 251 250 247 247 243 243 243 245 245 244 246 249 250 251 253 256 260 264 269 267 266 264 264 264 263 263 263 262
260 259 259 258 258 257 257 256 256 255 255 254 254 253 252 252 250 249 246 244 245 246 246 246 245 247 248 251 252 257 260 265 268 269 267 265 264 263 263 263 263 262 262

GFSGL_sfc_thetae_012.txt.gz
Theta_e
286 287 286 285 284 284 282 282 280 280 280 279 279 278 277 276 276 275 275 275 275 275 275 275 275 275 274 274 275 274 274 274 269 273 275 275 274 274 275 276 276 276 276
287 286 285 284 283 283 282 281 280 280 279 279 278 277 276 276 275 275 274 274 273 273 273 273 273 274 273 273 273 272 272 273 271 268 272 272 273 274 274 274 275 276 276
287 285 284 283 282 283 282 281 280 279 278 278 277 276 275 275 274 274 274 273 272 272 273 272 272 272 272 272 272 272 272 272 272 270 270 273 273 274 274 274 275 276 277
285 284 284 283 283 283 282 280 280 279 277 277 276 276 274 274 273 273 273 272 271 272 272 272 272 272 272 273 272 273 273 271 271 270 270 271 273 274 275 273 273 276 276
285 284 284 283 283 282 280 279 279 278 277 276 274 274 273 273 273 272 272 272 271 271 272 273 273 273 275 275 273 273 273 272 272 271 271 272 273 273 273 275 273 274 275
285 284 284 282 281 280 279 278 277 276 275 274 274 273 272 273 277 278 274 272 272 272 272 273 274 273 274 276 277 278 277 274 273 273 273 272 272 274 275 274 273 272 270
284 284 282 281 279 278 278 276 275 275 274 273 273 272 272 272 279 279 277 273 273 273 273 273 273 274 274 274 275 277 278 278 279 276 273 273 273 274 274 273 273 273 272
284 282 280 279 278 276 276 275 275 274 274 273 272 273 272 272 280 281 279 275 274 274 273 273 273 273 274 274 274 274 274 275 276 276 275 275 275 276 275 276 275 275 275
281 281 280 279 278 275 275 275 275 274 273 273 273 272 272 272 280 281 279 274 274 273 273 274 273 274 275 277 275 273 274 275 277 278 278 278 279 279 277 273 269 268 267
279 279 278 278 278 276 276 275 275 274 273 273 272 272 272 271 279 280 279 273 272 272 273 274 276 274 276 277 274 274 271 272 272 272 274 273 273 272 274 272 270 267 267
275 274 275 276 277 276 276 274 273 273 272 272 271 271 271 271 275 280 280 273 271 271 272 272 274 275 276 277 278 274 272 274 274 270 268 268 269 270 270 271 272 270 268
274 274 273 274 274 274 273 272 272 271 270 270 270 268 270 270 272 278 279 277 276 270 272 272 273 274 276 276 275 274 275 274 267 265 265 266 267 268 270 271 272 272 272
273 274 273 273 272 272 271 270 270 270 270 269 269 268 268 269 270 277 279 279 278 273 272 273 274 273 273 272 271 273 271 267 265 264 264 266 268 269 270 270 271 272 271
274 273 272 272 270 271 271 271 271 270 270 269 268 268 268 268 270 273 274 276 276 274 272 267 268 269 269 269 267 268 267 267 266 265 265 267 268 268 267 269 269 269 268
274 272 272 272 270 270 271 271 271 272 272 270 270 270 269 268 270 273 272 270 270 271 262 260 262 264 264 264 264 265 265 266 265 265 265 265 266 267 267 268 269 269 267
273 272 271 271 269 270 269 269 275 274 275 276 275 273 272 273 275 275 275 275 275 273 257 257 261 261 261 262 262 262 263 264 264 265 264 265 265 265 265 267 269 268 266
275 273 271 270 268 268 268 267 267 272 275 277 277 276 274 275 276 277 277 277 275 268 253 257 258 259 259 260 260 261 261 262 264 263 264 264 264 265 265 266 267 267 265
274 274 270 270 268 268 268 268 269 268 269 271 276 275 276 277 278 277 276 273 266 260 252 253 253 255 257 258 259 258 259 260 261 262 262 262 263 264 264 266 266 265 265
273 272 270 269 268 268 268 268 269 270 270 270 271 274 276 277 277 276 273 260 258 254 252 251 253 253 255 255 255 256 256 257 259 259 260 262 263 263 265 266 266 265 265
274 273 269 268 267 267 268 268 269 270 269 269 269 270 272 272 267 262 257 256 254 252 254 251 251 251 251 251 251 252 254 256 257 259 260 262 263 264 266 265 265 264 264
272 270 268 267 267 267 268 268 268 268 267 268 266 266 268 266 261 258 256 255 252 253 252 250 250 249 249 248 248 249 253 255 256 258 260 261 262 265 265 265 265 265 264
269 267 267 266 266 266 267 267 266 265 266 261 263 268 270 261 258 257 255 253 252 252 250 248 248 248 249 247 246 249 252 253 255 258 260 261 263 265 264 264 264 264 264
267 266 266 266 266 266 266 265 264 264 262 262 264 266 259 258 256 255 254 252 251 250 248 247 247 248 247 246 247 250 251 253 256 258 258 261 264 264 264 263 263 263 263
265 264 264 263 263 263 263 262 262 262 262 261 260 258 257 256 254 253 252 251 250 247 246 246 246 247 248 248 248 250 252 254 256 258 260 263 264 264 263 262 263 263 263
262 261 262 261 261 261 260 260 260 260 260 259 257 256 255 254 253 253 252 251 249 247 247 246 244 245 246 247 248 249 252 255 256 261 265 265 264 262 262 262 262 263 263
260 260 260 260 260 259 259 258 258 258 257 256 256 255 255 254 253 252 251 250 250 249 247 246 246 246 247 248 250 253 257 262 262 267 266 266 264 262 262 261 262 262 262

GFSGL_sfc_thetae_015.txt.gz
Theta_e
287 287 287 286 286 285 283 284 284 283 282 281 281 280 280 278 278 277 277 276 276 276 276 276 276 276 275 275 276 275 274 274 270 273 275 275 275 275 276 276 277 276 277
288 287 286 286 285 284 284 283 283 282 282 281 281 280 280 279 277 277 276 276 275 275 275 275 274 275 273 273 273 272 272 273 271 269 272 273 273 274 275 275 276 277 277
285 285 285 285 284 284 284 283 282 282 281 281 280 279 279 278 277 276 276 275 274 274 274 274 273 273 272 272 272 271 272 273 272 270 270 273 273 274 275 276 276 277 278
284 285 285 284 284 284 285 283 281 281 280 279 279 279 278 277 276 276 275 274 273 273 273 273 273 272 272 272 272 272 272 272 272 271 271 271 273 275 276 274 274 276 276
285 285 285 285 285 284 283 282 281 281 280 279 278 277 277 276 276 275 274 273 273 272 272 273 273 273 275 275 273 272 272 270 271 271 271 272 273 274 273 275 274 274 274
284 284 285 283 282 282 282 281 280 279 279 278 277 276 275 276 280 280 276 273 273 272 271 272 273 273 274 278 278 279 275 270 269 270 272 272 272 274 275 273 272 272 270
285 285 284 283 282 281 282 280 279 278 278 277 277 276 275 276 281 282 279 274 273 272 272 273 273 274 274 274 277 278 279 279 279 276 272 273 273 274 274 273 273 273 272
284 283 280 280 282 280 279 278 278 278 277 276 276 276 275 275 282 282 279 274 274 274 274 274 273 273 274 274 273 273 274 275 275 275 275 275 276 276 276 276 275 272 272
282 280 279 279 280 278 278 277 277 277 276 276 276 275 275 275 282 283 280 274 274 274 274 274 274 274 275 277 275 272 273 275 278 279 280 280 280 280 279 274 269 267 266
281 280 277 278 279 277 278 276 277 277 276 276 275 275 275 274 282 283 280 274 273 273 274 274 275 274 277 278 274 270 270 273 274 271 273 275 275 273 275 272 269 266 266
277 276 274 274 274 274 275 275 276 276 275 274 273 273 274 274 279 283 283 275 273 272 272 272 274 278 278 278 278 275 273 275 272 271 269 269 269 270 270 271 271 270 267
276 274 272 271 273 272 274 272 271 273 272 271 272 271 273 274 278 283 283 278 277 272 272 273 274 278 277 277 277 276 276 275 265 264 265 266 267 268 270 271 272 272 272
279 277 275 276 275 272 274 273 272 272 272 271 271 270 270 272 275 282 283 280 278 273 274 275 276 276 277 275 274 273 271 267 264 262 264 265 268 269 270 270 270 271 271
279 279 276 274 273 273 274 273 273 271 272 271 271 270 270 269 271 277 278 279 277 275 276 275 274 272 271 270 269 268 267 267 266 265 265 267 268 267 267 268 267 268 267
274 277 276 274 273 272 273 272 273 274 274 272 272 272 269 268 270 275 277 277 276 274 268 267 265 266 265 265 265 265 266 266 265 265 265 265 265 266 266 267 267 266 265
269 272 276 274 273 272 272 272 277 277 277 279 278 275 273 275 276 277 279 280 278 275 265 264 264 264 264 264 263 263 264 263 264 264 264 264 264 264 264 265 266 265 264
266 269 274 273 273 271 271 270 269 275 278 279 279 278 276 276 277 278 279 279 278 274 264 264 264 263 263 263 262 262 261 262 263 262 262 262 263 263 263 263 264 264 265
266 268 271 275 273 271 271 270 270 270 271 272 278 278 278 277 278 279 279 278 274 267 262 262 261 261 260 261 260 260 260 260 260 260 260 260 260 261 261 262 263 263 264
265 267 269 274 273 271 270 270 269 270 270 271 273 277 276 278 279 279 279 273 264 261 260 259 259 258 258 258 257 257 256 256 257 256 256 258 259 260 261 262 263 264 264
265 266 269 271 270 269 269 268 268 269 270 271 272 272 273 275 275 275 267 265 263 260 258 258 256 256 255 254 253 252 252 252 254 254 256 258 259 260 261 261 263 263 263
263 266 269 272 269 268 268 268 268 269 270 270 271 273 276 274 272 263 261 262 261 259 258 257 255 253 252 250 249 249 248 252 254 253 255 257 258 259 261 262 264 263 263
267 268 270 268 268 267 268 268 269 270 270 269 270 273 278 265 263 261 260 258 257 257 256 255 252 251 251 250 249 247 248 250 251 252 255 257 258 259 261 263 263 262 262
267 267 267 266 266 267 267 268 268 268 267 266 268 266 262 262 260 259 257 256 254 253 252 249 250 250 249 248 247 248 248 251 251 250 254 255 257 259 262 263 262 261 261
264 265 265 265 266 266 265 265 264 263 264 266 262 261 260 259 258 257 255 254 254 252 250 250 250 249 247 247 248 248 249 250 250 252 254 255 257 261 263 262 261 260 261
262 262 263 262 262 262 262 262 262 263 262 260 259 258 258 257 256 255 254 254 253 252 251 251 250 247 248 249 249 249 249 253 252 254 255 259 263 262 262 260 260 260 260
260 260 260 261 260 260 260 261 261 260 259 258 258 257 257 256 255 254 253 253 253 253 252 251 250 250 250 249 249 252 253 259 259 262 265 266 262 263 261 259 258 259 259

GFSGL_sfc_thetae_021.txt.gz
Theta_e
289 288 287 287 288 288 286 286 287 287 287 286 286 285 285 284 284 283 283 283 282 282 282 282 282 282 282 281 282 281 280 280 281 277 279 279 278 278 279 280 280 280 281
287 288 287 287 286 285 286 286 286 286 286 286 285 285 284 283 283 283 282 282 282 281 281 280 280 279 280 280 280 280 280 279 279 278 276 276 277 278 278 278 278 279 280
286 286 286 286 285 285 285 286 285 285 285 285 284 284 283 283 283 283 283 282 281 281 281 280 280 279 279 279 279 279 279 278 278 276 276 276 276 277 277 278 278 279 280
286 285 285 285 286 286 286 286 285 285 285 284 284 284 283 283 282 282 282 282 281 281 281 280 280 279 279 278 278 278 277 276 276 275 274 274 275 276 277 277 277 279 278
285 284 284 285 285 285 285 285 285 284 284 284 283 283 283 282 282 281 281 281 280 280 280 279 280 279 281 280 278 277 276 275 275 274 273 274 275 275 275 277 276 277 278
283 284 284 284 284 283 284 284 283 283 282 283 282 282 282 282 285 286 283 281 280 280 278 278 279 278 280 282 281 280 278 274 273 274 274 273 274 276 276 276 275 275 274
281 283 283 283 282 282 283 282 282 282 282 281 282 282 282 282 286 287 286 281 280 280 279 278 277 277 278 279 282 281 280 280 278 276 274 275 276 276 277 275 275 275 275
279 280 280 279 280 281 281 281 281 281 281 281 281 282 281 282 285 287 286 282 280 279 279 278 277 276 277 278 279 279 278 278 278 277 277 277 278 278 277 278 277 275 274
277 277 277 276 278 280 279 279 280 280 280 281 282 281 281 281 285 286 286 283 279 279 278 278 278 276 278 281 278 277 277 277 281 282 281 280 280 280 280 277 273 271 269
275 275 275 275 276 274 276 278 279 279 279 280 279 280 280 280 283 285 286 284 279 278 277 277 279 277 280 281 278 278 276 276 276 278 278 279 281 279 278 276 273 269 269
274 273 273 273 273 274 275 277 278 277 278 277 278 278 279 279 280 284 285 284 279 277 276 275 276 280 281 282 280 277 277 277 277 276 275 275 274 273 273 273 273 272 269
271 271 270 269 270 271 271 273 277 276 276 276 277 277 277 278 279 282 284 287 282 277 276 276 276 280 281 282 280 278 279 278 276 274 272 272 271 271 271 272 273 273 273
267 267 267 267 268 268 269 270 272 276 274 275 275 275 275 275 276 281 282 285 283 277 277 277 278 281 282 282 282 279 278 275 272 270 270 271 271 271 271 271 271 271 271
264 265 265 265 266 266 268 269 271 275 275 274 275 274 275 274 274 276 278 281 282 280 278 277 278 280 281 280 280 280 275 273 272 271 270 270 270 269 269 269 268 269 268
263 263 263 264 264 264 266 268 270 273 276 275 275 276 275 273 274 277 277 279 280 279 276 276 276 277 276 276 277 273 272 270 270 269 268 268 268 268 268 268 268 267 265
260 261 261 262 262 263 264 265 271 274 277 280 281 280 277 279 279 279 280 281 283 280 275 274 274 275 274 274 270 269 269 268 268 268 267 267 267 267 267 267 267 265 264
258 259 259 260 260 261 262 263 263 268 274 278 280 281 282 280 280 280 281 282 284 280 273 274 274 274 271 271 269 268 267 268 268 267 267 266 266 265 265 265 265 265 264
258 258 258 259 259 260 261 262 264 264 266 271 277 278 281 282 282 280 280 282 280 278 274 274 272 271 269 269 268 267 267 266 266 266 265 265 264 264 263 263 263 262 263
258 258 258 259 260 260 261 262 262 263 265 268 272 275 277 282 282 280 281 278 278 276 273 271 270 270 269 269 268 267 266 265 265 264 263 262 261 261 261 261 262 262 262
259 259 260 260 260 260 261 261 262 263 265 268 270 272 274 276 278 276 277 277 278 274 271 270 269 269 268 266 265 264 263 262 261 260 260 260 260 260 261 260 261 262 262
259 259 260 260 260 260 260 261 263 265 266 269 270 272 275 275 275 275 276 277 270 270 268 266 266 265 264 263 262 261 260 260 260 260 259 259 259 258 259 261 261 260 261
260 260 260 261 262 263 263 263 264 266 269 269 269 271 276 276 274 272 268 266 267 266 265 263 262 261 261 261 261 260 260 259 259 259 259 258 257 258 258 259 259 260 261
261 261 261 263 265 266 267 267 268 268 268 269 270 267 266 264 263 262 261 261 261 262 262 261 260 258 259 259 260 260 259 258 258 257 257 257 256 257 256 257 258 259 260
260 260 261 262 263 263 264 264 265 265 264 263 262 262 261 261 260 259 259 258 258 259 260 259 259 257 256 256 256 256 257 256 255 255 255 254 255 255 256 256 258 259 262
259 259 260 260 260 261 261 261 261 260 260 260 260 259 259 259 258 258 258 258 258 258 257 257 257 256 256 255 254 254 253 257 253 253 252 252 253 254 254 256 258 261 261
258 258 258 259 259 259 259 259 259 259 259 259 259 259 258 258 258 258 257 257 256 256 255 255 255 255 255 255 254 255 255 256 255 255 253 253 254 255 256 259 261 261 260

GFSGL_sfc_thetae_024.txt.gz
Theta_e
289 290 291 291 291 291 291 292 292 293 294 293 294 293 292 292 292 291 290 290 289 289 288 289 288 289 289 289 289 288 287 288 290 283 285 286 285 284 282 283 283 283 284
289 289 289 289 290 290 290 291 291 290 291 292 292 291 291 290 290 289 289 288 288 287 288 287 287 285 287 287 286 286 286 286 287 282 281 282 282 283 282 281 281 281 282
287 287 287 287 287 287 288 289 290 290 289 290 289 289 289 289 289 289 288 288 288 287 287 285 285 285 284 284 284 284 284 283 285 285 280 281 280 281 280 280 281 282 282
285 286 286 286 286 286 286 287 287 288 288 288 288 288 288 288 287 287 286 287 287 286 287 285 285 284 284 283 283 284 283 283 283 283 283 279 279 279 280 280 279 281 281
283 284 284 285 285 285 285 285 286 286 286 286 286 286 286 286 285 285 285 285 286 285 285 284 284 284 285 284 283 284 283 283 281 281 280 278 277 277 277 280 279 281 281
282 282 283 284 282 281 284 284 283 284 285 285 284 284 284 284 286 288 287 284 284 284 283 283 283 283 283 286 286 286 284 282 280 280 280 278 278 278 280 279 279 278 279
280 281 281 281 280 279 282 282 282 282 283 283 283 284 283 284 287 287 288 285 283 284 283 283 282 282 282 283 286 286 284 285 284 282 280 279 279 279 280 278 278 278 278
280 280 280 279 278 278 280 278 279 281 282 282 283 283 283 284 286 287 287 286 285 284 284 283 283 281 281 281 282 282 282 282 282 281 282 281 281 281 281 280 279 279 280
278 279 279 278 276 276 276 277 277 279 280 281 282 282 283 284 285 286 286 285 285 284 283 284 283 282 282 283 281 281 280 280 283 283 282 282 282 282 281 280 277 276 274
278 278 278 277 275 274 275 275 276 277 277 280 281 282 282 282 284 285 285 284 284 284 283 282 282 282 284 283 281 281 279 279 278 279 279 281 282 281 281 280 279 275 274
278 277 276 275 274 273 273 274 273 274 275 277 278 280 281 282 282 284 285 284 283 283 283 281 281 283 283 283 284 281 281 280 280 278 279 279 279 279 280 280 278 276 273
276 274 273 272 272 272 270 271 271 272 272 274 276 278 280 281 282 282 284 284 285 283 283 282 281 281 283 283 283 282 283 281 279 279 278 277 276 275 276 275 275 275 276
271 270 269 270 269 269 268 269 269 270 271 272 275 277 278 280 281 281 283 284 284 283 284 283 282 281 282 282 283 283 281 279 278 276 276 276 275 275 274 273 274 274 274
266 267 267 266 267 267 268 268 268 269 270 271 273 276 277 278 279 280 280 280 282 283 284 281 280 280 281 281 281 283 280 277 277 276 275 275 274 273 271 272 271 270 270
263 263 263 264 264 264 265 266 267 268 269 269 271 273 274 275 278 280 279 278 279 281 281 279 278 278 278 279 279 278 278 276 275 275 273 271 271 270 270 271 270 269 268
260 260 261 261 261 262 262 263 267 269 270 272 274 274 275 278 280 281 281 281 281 282 278 276 276 276 277 278 278 277 276 274 274 273 272 270 269 269 269 269 269 268 267
259 259 260 260 260 260 261 261 260 264 268 270 272 274 276 277 280 282 283 282 282 282 277 276 276 276 277 278 278 274 274 273 272 271 270 270 269 269 269 268 268 268 267
259 259 259 260 260 260 260 260 261 261 261 263 268 270 273 277 280 282 283 282 279 280 279 276 276 276 277 277 273 272 272 270 270 270 269 269 268 268 267 267 267 266 266
260 260 260 260 260 260 260 260 261 261 261 262 264 267 270 275 278 280 281 280 278 278 279 276 277 277 275 274 272 271 270 270 269 268 268 267 267 267 266 266 266 265 265
261 261 261 261 261 261 261 261 261 262 262 262 264 266 269 274 274 275 280 280 278 279 278 276 274 273 273 272 272 270 269 268 267 267 266 265 265 265 265 265 265 265 265
261 261 261 261 261 262 262 262 262 262 262 263 265 268 274 273 274 275 278 279 278 277 274 272 271 271 270 269 268 267 266 265 265 264 264 264 264 263 265 265 265 264 264
262 262 262 262 263 263 264 265 266 265 264 265 267 272 274 273 274 275 272 271 272 272 271 270 269 268 267 266 266 265 264 263 263 263 263 263 262 263 263 264 263 264 264
261 261 262 262 263 264 265 266 266 268 268 269 268 268 268 267 266 266 265 266 266 266 267 266 265 264 265 265 266 265 264 263 263 264 262 262 262 262 262 263 263 262 263
260 260 261 261 262 262 263 263 263 263 263 263 263 262 262 262 261 261 262 263 263 263 264 264 263 262 262 263 263 264 264 263 263 263 263 262 261 261 261 261 262 262 262
259 259 259 260 260 260 261 261 261 262 261 261 261 261 261 260 260 260 260 261 261 261 261 262 262 261 260 260 260 259 261 260 260 259 259 260 260 260 260 260 261 262 262
258 258 258 259 259 259 259 259 259 260 260 260 260 260 260 260 260 260 260 260 259 259 260 260 260 259 259 259 259 258 259 259 257 257 258 258 258 259 259 259 260 261 263

GFSGL_sfc_thetae_027.txt.gz
Theta_e
288 289 290 290 290 290 290 291 291 292 292 292 293 293 294 293 293 293 292 292 291 291 291 290 290 291 291 290 290 290 289 290 292 284 287 288 287 286 284 284 284 283 283
287 288 288 288 288 287 287 288 289 290 291 290 290 290 291 291 292 292 291 290 290 289 290 289 289 289 289 289 289 288 288 288 289 282 283 284 285 285 283 281 280 281 282
286 286 286 287 286 285 285 286 287 287 288 289 288 288 288 289 289 290 290 289 289 289 289 288 287 288 287 287 287 287 287 283 286 285 281 282 283 284 282 281 281 281 280
285 284 284 285 285 284 284 285 285 285 285 286 287 287 287 287 287 288 287 288 288 288 288 288 288 287 286 286 286 286 285 285 284 285 281 280 280 281 281 279 278 280 280
284 283 283 284 284 283 282 283 284 284 284 285 285 285 286 286 285 286 286 286 286 286 287 287 287 287 287 288 285 285 285 284 283 283 282 279 278 277 277 280 279 280 280
283 282 283 282 282 281 281 281 283 281 282 283 283 283 284 284 286 288 287 285 285 284 284 286 285 285 286 288 289 289 287 284 283 282 282 280 279 279 279 279 279 279 277
282 282 282 281 280 280 280 279 280 279 280 280 281 282 282 283 286 287 288 285 285 285 284 284 284 284 284 284 287 289 289 289 289 285 283 282 280 279 279 280 279 279 280
281 281 281 280 279 279 278 278 277 278 278 278 280 281 281 282 285 286 287 286 285 285 285 284 284 284 284 283 283 284 284 285 286 286 285 285 284 282 282 281 281 281 280
280 280 280 280 278 278 276 276 276 276 276 276 278 278 279 281 284 285 285 285 284 284 285 285 285 284 286 287 282 282 283 283 286 289 288 288 287 285 284 281 278 277 276
278 279 279 279 277 276 276 275 275 274 275 275 275 276 277 278 282 283 284 283 283 283 284 284 285 284 286 286 283 281 281 281 282 282 283 284 284 284 285 281 280 277 275
277 277 276 277 276 276 275 274 273 272 272 272 272 273 275 277 278 282 284 282 282 282 283 283 284 287 287 286 286 282 282 283 283 281 280 280 280 281 281 280 280 279 276
273 272 271 272 272 272 271 271 270 270 269 269 270 271 274 276 279 281 283 284 284 282 282 283 284 287 286 286 285 285 285 285 281 280 277 277 278 278 279 279 279 279 278
266 265 265 266 267 267 267 267 267 268 267 267 268 269 271 274 277 281 283 283 284 282 282 284 286 286 286 285 286 286 283 282 279 278 276 277 278 279 279 277 276 276 276
261 261 262 262 262 263 264 265 264 264 264 265 266 267 269 271 274 277 279 280 281 281 281 282 283 285 285 283 281 283 282 282 280 278 278 279 278 276 274 274 272 272 271
260 261 261 261 261 262 262 262 263 264 264 263 264 266 266 266 269 274 276 278 279 279 279 279 280 281 279 279 279 280 281 281 279 278 278 277 274 273 272 273 272 271 269
259 260 260 260 261 261 261 261 265 267 268 269 270 269 268 272 274 275 276 278 279 281 279 277 278 278 277 277 278 278 279 280 278 278 277 274 272 272 271 271 271 269 269
259 259 260 260 260 260 260 260 259 262 267 268 269 270 271 272 273 274 276 277 279 280 279 278 277 277 277 277 278 278 278 277 277 275 273 272 271 271 270 269 269 269 269
259 259 259 260 260 261 261 260 260 260 259 260 265 267 269 270 272 273 275 276 275 277 279 278 278 278 277 277 278 278 276 274 273 273 272 272 271 270 269 268 268 268 268
259 259 260 261 261 262 262 261 261 261 261 261 262 265 266 269 271 273 275 272 275 277 278 278 279 278 277 278 277 275 275 272 273 272 271 270 270 269 268 268 268 268 267
260 260 261 261 262 262 262 262 262 262 262 262 262 263 265 266 266 268 273 274 274 275 278 278 278 278 278 275 274 273 272 272 270 270 269 269 269 268 267 267 266 266 265
260 261 261 262 262 262 262 263 264 264 264 264 264 265 270 269 270 272 273 274 275 278 279 277 275 275 274 273 271 271 270 269 269 268 267 267 267 266 267 267 266 266 265
260 260 261 261 262 262 263 264 264 264 264 266 266 267 272 270 270 270 270 271 274 274 274 274 273 273 272 271 270 269 268 266 266 266 265 265 266 266 266 266 265 265 264
260 260 260 261 261 262 262 262 262 263 263 263 263 263 263 263 263 264 264 265 266 266 268 268 267 267 268 268 268 268 266 265 266 266 264 264 264 264 265 264 264 264 264
259 259 259 259 260 260 261 261 261 261 261 261 261 261 261 261 261 262 262 263 263 264 264 264 264 265 265 266 266 266 266 266 266 265 265 264 263 263 264 264 263 263 263
258 258 258 258 258 259 259 260 260 260 260 260 260 260 260 260 260 260 261 261 261 261 262 262 262 262 262 262 262 263 265 264 264 264 264 263 262 262 262 262 262 262 262
258 258 258 258 257 258 258 258 259 259 259 260 260 260 260 260 260 260 260 260 260 260 260 260 260 260 260 260 260 261 262 263 261 261 261 261 260 260 260 260 260 260 260

GFSGL_sfc_thetae_030.txt.gz
Theta_e
285 286 285 285 285 285 284 285 285 286 286 287 287 286 287 287 287 287 287 287 286 286 286 285 287 286 289 287 286 286 286 285 284 280 281 282 285 285 285 283 283 282 284
285 285 285 284 284 282 282 283 283 284 284 285 286 285 285 286 285 286 286 287 285 285 285 285 285 287 286 285 286 287 288 285 284 278 279 280 282 284 283 282 281 281 280
283 282 282 282 282 281 280 281 282 282 282 282 283 283 283 284 284 285 285 285 285 285 285 285 286 284 286 286 285 286 286 285 285 279 278 279 279 283 279 279 279 278 280
282 282 281 281 281 281 280 280 280 281 280 280 281 282 282 283 283 284 284 285 285 285 285 286 286 285 285 285 285 285 285 284 286 281 277 278 278 281 281 278 278 280 279
280 280 279 280 280 279 279 279 279 280 280 279 280 280 281 281 283 283 283 284 283 284 284 285 285 285 287 287 285 285 285 285 284 285 281 276 277 279 279 279 278 279 279
278 279 280 280 280 279 279 278 278 278 278 278 278 279 279 280 284 286 286 283 284 284 283 284 284 285 285 289 290 290 288 285 285 284 284 280 279 279 280 279 279 278 275
280 279 279 279 278 279 279 278 277 276 276 277 277 277 277 279 283 284 286 283 283 283 284 284 284 284 284 284 287 290 290 291 290 286 285 284 281 280 280 279 279 280 280
278 277 277 278 278 279 278 278 277 276 275 275 275 276 276 277 282 283 284 282 282 282 283 283 283 284 284 284 284 283 284 286 287 287 286 286 286 282 282 281 281 282 278
277 277 277 276 275 276 276 276 276 276 275 274 275 274 274 275 279 280 281 279 280 281 282 283 283 283 285 287 284 282 282 283 287 290 290 290 290 289 284 282 279 278 272
275 275 274 274 273 272 273 274 275 274 274 274 273 273 273 272 276 278 278 277 277 279 280 282 284 283 286 287 285 284 281 282 283 283 285 288 289 288 286 283 282 278 279
271 270 270 269 268 268 268 269 269 269 270 270 270 270 270 271 271 276 277 276 276 277 278 279 281 285 287 287 288 285 283 284 283 283 282 283 284 284 283 283 283 282 280
267 266 264 263 263 264 263 263 264 265 265 265 266 266 268 270 272 274 276 277 278 277 277 280 281 284 286 286 287 288 288 287 283 281 281 281 281 281 281 282 282 282 282
262 261 261 261 261 262 261 261 261 261 261 262 263 263 264 267 268 272 274 275 277 276 278 281 283 284 285 285 287 288 286 285 282 280 280 280 281 281 281 280 280 278 277
259 260 260 260 260 260 261 261 260 260 260 260 260 261 262 263 264 266 268 269 271 274 278 280 281 282 283 283 283 285 285 284 282 280 280 280 280 279 278 278 276 276 274
259 260 259 260 259 260 261 260 261 262 263 262 263 263 263 263 265 269 269 268 269 271 273 276 277 276 276 279 281 282 282 283 281 281 279 278 277 278 277 278 276 275 273
259 259 259 259 259 260 259 260 265 267 268 269 270 269 267 271 272 272 273 273 274 275 272 271 273 275 274 277 279 279 279 280 281 281 278 278 277 276 274 274 274 273 272
258 259 259 259 258 258 259 259 258 262 267 268 269 270 270 271 271 272 272 273 274 274 270 271 271 273 275 276 278 277 278 279 281 280 278 278 275 274 272 271 271 271 270
259 259 258 258 258 259 259 260 260 260 259 261 266 267 269 271 272 272 273 273 268 270 269 270 271 273 276 276 277 277 278 278 278 278 276 274 273 272 271 271 270 270 270
259 259 259 259 259 260 260 261 261 261 261 261 263 266 267 269 271 272 273 269 268 267 268 270 272 274 276 277 277 277 278 276 275 274 274 273 273 272 271 271 270 270 269
259 259 260 259 259 260 260 260 261 261 262 263 264 264 266 265 264 265 267 267 269 269 270 272 275 277 277 277 277 277 276 274 273 273 272 272 271 271 270 269 269 268 268
259 258 258 259 259 259 260 261 261 261 261 262 262 264 270 264 263 264 265 266 267 269 271 272 276 277 276 274 275 274 273 273 272 271 271 270 270 269 269 269 268 268 267
257 257 258 257 258 259 259 260 260 261 261 260 260 261 266 262 262 262 262 263 264 265 267 271 271 271 270 271 272 271 270 269 269 269 269 269 268 268 268 267 266 266 266
257 257 256 257 257 258 259 259 259 259 259 260 260 260 260 260 260 260 261 262 262 263 264 265 266 266 268 268 269 269 268 267 268 268 267 267 267 267 267 266 265 265 265
255 256 256 256 256 257 257 258 259 259 259 259 259 260 259 260 260 260 260 261 261 261 262 263 263 264 265 265 266 267 267 267 267 267 267 266 266 266 266 265 265 264 264
252 254 254 255 255 256 256 256 257 258 259 259 259 259 260 260 260 260 260 260 260 260 260 260 261 261 261 263 264 265 267 266 266 267 266 266 265 265 264 264 264 264 264
252 252 251 254 254 255 256 256 256 256 257 258 258 259 259 259 259 259 260 260 260 260 259 260 260 260 262 262 263 264 265 265 264 264 264 264 263 263 263 262 262 262 262

GFSGL_sfc_thetae_033.txt.gz
Theta_e
283 284 285 285 285 284 282 282 282 283 283 283 284 284 284 284 285 285 285 285 285 285 285 285 286 287 288 288 285 287 287 284 287 288 282 281 284 285 285 287 285 285 287
284 283 283 284 283 283 282 281 282 282 283 282 283 282 282 283 283 282 283 283 284 284 284 284 285 287 284 287 288 286 287 287 287 287 280 279 281 285 285 285 283 284 283
283 282 282 282 282 281 282 281 281 281 281 282 281 281 280 281 281 282 282 282 282 282 283 284 285 284 284 285 285 285 286 287 285 286 286 279 281 282 280 282 282 282 281
282 281 280 279 280 280 280 280 280 280 280 280 281 281 280 280 280 281 282 281 281 282 283 283 284 285 285 285 285 285 285 285 284 284 286 278 278 280 283 281 278 279 279
280 279 279 279 280 280 279 279 279 279 279 279 279 279 279 279 280 279 281 281 281 282 283 283 283 284 286 287 285 285 284 284 285 283 284 277 277 278 280 281 280 280 279
278 279 279 279 280 280 280 280 280 279 278 278 277 277 277 278 281 283 283 280 281 281 281 282 283 283 284 287 289 290 289 285 283 284 284 284 282 282 281 281 281 278 276
279 278 279 279 278 278 279 278 278 277 278 277 277 277 276 276 280 281 281 280 279 280 280 281 282 283 283 283 286 288 289 290 291 286 284 284 284 283 281 281 280 281 281
276 274 275 276 275 276 275 275 275 275 275 275 276 276 276 276 279 280 280 277 277 278 279 280 281 281 282 282 282 282 283 284 286 287 288 287 287 285 283 283 282 282 281
274 274 273 272 270 271 269 270 270 270 271 271 273 273 273 274 278 278 278 275 275 275 276 277 278 280 283 285 282 282 282 283 286 289 290 291 291 291 286 282 281 279 278
272 271 270 269 266 265 266 265 266 266 267 268 268 269 269 269 273 275 275 273 271 272 274 275 278 278 282 284 282 281 280 282 283 283 284 287 289 288 290 284 282 279 280
269 268 267 266 264 263 263 263 263 263 264 263 264 265 265 266 267 272 273 271 271 271 272 273 275 279 281 283 285 282 282 283 284 284 283 283 284 285 286 287 284 283 281
266 264 262 261 261 262 260 261 261 260 260 260 260 261 264 265 268 269 271 272 273 270 270 272 274 277 279 281 282 284 287 287 284 283 282 281 282 282 284 285 285 284 285
259 258 259 260 261 261 259 259 259 260 260 260 260 260 261 264 264 268 270 270 271 268 269 271 274 275 276 279 282 285 284 283 282 283 282 281 281 282 284 284 284 283 283
254 258 260 260 259 260 261 260 259 259 259 259 260 260 261 262 264 265 265 265 268 268 269 268 270 273 275 276 277 282 282 282 281 282 282 281 282 281 281 281 280 278 277
258 259 259 260 259 259 260 260 260 262 263 262 264 265 264 264 266 270 271 270 270 271 270 268 268 270 270 271 276 277 278 279 279 281 282 281 280 279 279 279 279 276 276
257 259 259 259 259 260 259 259 264 266 268 269 270 269 268 271 273 273 274 274 275 275 270 269 268 268 268 270 271 275 276 277 279 281 282 281 279 277 278 278 278 276 276
256 258 259 259 259 258 258 258 257 261 267 268 269 270 271 271 273 274 274 275 275 274 269 268 267 268 269 270 271 273 275 277 279 280 281 280 278 277 277 276 276 275 275
256 258 258 259 258 258 258 259 259 259 259 260 266 268 270 271 272 273 274 274 269 270 268 267 266 268 268 269 272 273 275 277 277 278 279 279 278 277 276 274 274 274 274
257 258 258 259 259 259 259 259 259 259 260 260 262 264 265 268 270 270 270 266 265 265 267 268 268 267 268 269 271 273 275 275 276 277 278 278 276 275 274 274 273 274 273
256 258 258 257 257 257 258 258 259 259 259 259 260 260 261 264 260 260 261 262 263 264 264 263 268 269 270 270 272 274 275 276 276 277 276 275 275 275 273 273 272 271 271
256 256 256 257 256 256 257 257 258 258 259 258 259 261 268 261 259 259 260 261 261 262 263 264 270 270 272 275 274 276 277 275 275 274 273 273 273 272 273 272 271 271 270
251 253 254 254 255 256 256 257 258 258 258 258 259 260 265 260 259 259 259 260 261 261 262 263 265 267 268 270 272 273 273 272 272 272 271 271 271 270 270 270 269 269 268
251 252 253 254 255 255 255 255 256 257 258 258 259 259 259 259 259 259 259 260 260 260 261 262 262 263 265 266 268 268 268 268 269 270 269 269 269 268 268 268 267 267 267
249 249 250 252 253 254 254 254 255 256 256 257 257 258 258 259 259 259 260 260 260 260 260 261 261 261 262 264 266 266 267 268 268 269 269 268 267 268 267 267 266 266 266
247 247 248 249 249 251 252 253 254 254 255 256 256 257 257 258 258 258 259 260 260 260 260 260 261 262 263 263 264 265 266 267 267 267 267 267 266 266 266 265 265 265 265
249 247 247 247 248 249 249 251 252 253 253 254 255 255 256 256 257 258 258 259 259 259 260 260 260 261 262 265 266 266 267 267 266 266 266 265 265 264 264 264 264 264 263

GFSGL_sfc_thetae_036.txt.gz
Theta_e
283 283 283 283 282 282 282 282 282 282 282 282 283 282 282 282 282 282 281 281 282 283 284 284 285 286 287 287 285 287 286 284 284 287 283 282 282 283 284 287 288 287 289
281 281 281 281 280 280 280 280 280 281 281 280 280 281 281 281 281 281 281 281 281 281 282 282 283 286 284 285 286 285 285 286 285 284 287 280 281 282 284 284 286 286 286
281 280 280 279 279 279 279 279 280 280 279 279 279 279 279 280 279 280 280 280 281 281 281 281 281 282 283 284 285 285 286 286 285 284 285 282 280 280 281 281 284 283 284
280 279 278 278 279 279 279 279 278 279 278 278 279 279 279 279 279 279 279 279 280 281 282 282 282 282 281 282 283 284 285 285 285 284 284 284 280 280 281 281 279 281 282
278 278 278 278 279 278 278 278 278 278 278 278 278 278 278 278 278 277 278 279 279 280 280 281 282 283 284 285 283 283 284 284 284 284 283 283 279 278 279 281 282 282 281
277 278 278 278 278 278 278 277 277 277 276 276 276 276 276 277 280 281 280 278 278 278 278 279 280 281 282 285 286 287 287 283 282 283 283 283 283 281 282 282 281 280 279
277 276 276 276 274 275 274 273 273 272 272 272 273 273 274 275 279 280 280 279 278 277 276 277 278 279 280 280 283 285 285 288 289 286 283 283 284 284 283 281 281 282 282
273 271 272 272 270 271 270 270 269 269 269 269 269 269 270 271 275 276 276 275 275 276 276 276 275 276 277 278 279 280 281 282 283 284 286 286 287 286 286 284 283 282 284
272 272 270 269 266 268 265 266 266 266 266 265 267 266 266 266 271 272 272 271 271 272 273 273 273 273 276 278 276 276 278 280 285 287 288 289 290 291 290 285 282 280 278
270 269 268 267 262 263 264 263 264 263 264 265 264 264 264 263 268 270 271 269 267 269 270 272 274 273 276 277 275 274 275 278 280 281 282 285 287 287 289 289 285 281 280
267 267 266 265 263 262 262 262 261 261 262 261 261 262 262 263 264 269 271 269 268 268 268 269 271 274 275 276 277 275 276 279 280 281 281 281 282 282 284 286 288 284 281
265 264 262 260 260 262 259 260 260 259 259 259 260 261 263 264 266 268 270 272 272 269 268 269 269 272 274 275 274 276 279 280 278 279 281 281 281 281 282 283 285 287 285
257 256 256 258 260 260 258 259 259 259 259 259 260 260 261 263 264 268 270 271 272 269 269 270 274 275 275 274 274 274 274 272 274 277 279 281 281 282 282 283 284 285 285
251 255 258 258 259 259 260 260 259 258 258 259 259 260 262 264 266 267 268 268 270 270 271 269 270 272 274 274 272 272 272 272 272 273 279 281 283 281 281 282 281 282 282
255 258 258 258 258 259 260 260 260 262 262 262 264 265 265 265 266 271 272 271 271 273 273 273 271 268 266 266 268 270 271 271 271 275 277 280 281 281 280 282 281 281 279
255 258 258 259 259 260 259 259 264 266 268 270 271 269 268 271 272 274 274 275 275 276 273 270 269 269 269 269 268 268 269 270 271 277 278 277 277 279 279 280 280 279 276
251 256 258 258 258 258 258 258 257 261 266 267 268 269 270 271 271 272 273 274 274 273 268 268 267 268 268 269 268 268 268 270 272 274 276 276 277 279 279 278 277 278 275
250 255 255 257 257 258 258 258 258 257 257 259 264 266 268 269 270 271 270 269 261 263 263 264 265 266 267 268 268 268 269 270 271 273 276 277 278 279 277 277 277 276 275
251 253 253 257 257 257 257 257 257 257 257 258 259 262 263 266 268 267 267 260 259 260 261 262 263 263 264 266 268 268 268 269 271 273 275 276 278 279 278 277 277 275 275
250 254 257 254 255 255 255 255 256 256 257 257 257 258 260 263 258 259 259 259 259 259 260 260 262 263 266 268 269 269 269 269 271 272 274 276 277 277 277 276 275 274 275
250 251 254 254 252 252 253 253 255 255 256 256 257 259 268 260 258 258 259 259 259 259 259 260 261 262 264 266 267 271 271 271 273 274 275 277 276 275 276 276 274 274 274
248 248 250 251 251 252 251 252 254 254 255 255 256 257 264 258 258 258 259 259 260 260 260 260 260 261 263 264 265 266 268 269 272 273 272 272 273 272 273 272 272 272 270
249 251 253 251 249 251 250 249 251 252 253 254 255 255 256 256 257 258 259 259 260 260 261 261 261 262 264 264 265 266 265 266 268 270 270 270 270 270 270 270 269 269 268
253 254 253 249 247 248 248 249 251 252 252 252 252 254 254 255 256 257 258 259 259 260 261 261 261 261 262 264 265 265 266 267 268 268 268 268 267 268 268 268 268 268 267
253 253 251 248 245 247 246 246 249 248 249 250 252 252 253 253 254 254 256 257 258 258 259 260 261 261 263 264 265 265 266 266 266 267 267 267 266 266 266 266 266 266 266
254 253 250 248 247 245 244 246 247 248 248 251 251 251 252 252 253 254 254 255 256 257 258 259 260 260 262 265 266 269 269 269 266 266 266 266 265 265 265 265 264 264 264

GFSGL_sfc_thetae_039.txt.gz
Theta_e
280 280 280 280 281 281 280 280 280 279 279 279 279 279 280 279 279 279 279 280 280 280 281 281 282 284 285 286 285 285 285 283 283 286 286 285 283 283 284 285 287 287 289
280 280 279 279 279 279 279 280 279 279 280 279 279 278 278 279 278 278 277 278 278 279 280 280 280 282 282 284 284 284 284 285 284 283 286 285 282 283 283 284 285 286 286
280 279 279 279 278 278 279 279 279 278 278 278 279 278 278 278 277 277 277 277 277 278 278 279 280 281 280 281 282 283 283 285 284 283 283 285 284 281 282 282 283 284 285
279 278 278 278 278 278 278 278 277 277 277 277 277 277 277 277 277 277 277 277 277 277 278 278 279 279 280 280 281 281 282 282 283 282 282 283 284 283 281 281 281 282 284
277 278 277 278 278 277 277 276 276 275 275 275 274 274 275 275 276 276 277 277 277 277 277 278 278 278 281 281 280 281 282 281 281 281 280 281 282 281 280 282 282 284 283
277 277 277 276 276 275 274 273 272 272 272 271 272 271 271 273 276 277 277 275 276 277 276 277 277 277 278 281 282 283 283 281 281 281 280 280 280 282 283 283 283 282 280
276 274 275 273 271 271 271 270 270 269 269 269 269 269 268 269 273 275 275 273 272 272 273 274 276 277 277 276 278 280 280 282 283 281 280 281 282 283 283 282 282 282 282
272 270 271 270 268 269 268 268 267 267 267 266 266 266 267 268 271 272 273 271 270 270 271 271 272 272 274 275 275 274 275 276 277 279 280 281 282 284 285 285 284 284 284
272 271 269 267 265 266 263 265 265 264 264 264 265 265 264 264 269 271 271 269 269 269 270 270 271 271 273 275 273 272 272 273 277 280 281 283 285 287 287 285 283 281 280
270 269 268 267 261 261 263 262 263 262 264 264 264 263 263 262 267 269 270 268 267 268 269 270 272 271 274 276 273 272 271 272 274 274 276 278 281 282 286 285 284 282 281
267 267 266 264 261 261 261 262 261 260 262 260 261 261 262 263 263 269 271 269 268 267 268 269 270 273 274 275 275 272 271 273 273 273 274 276 278 279 281 282 284 284 283
266 264 261 258 258 260 256 258 258 258 258 258 259 260 262 263 266 268 271 272 273 269 268 269 270 273 274 275 275 276 277 278 274 272 272 273 274 276 280 282 282 283 284
261 255 254 257 258 259 255 258 258 258 258 258 259 259 261 263 264 269 271 272 273 271 271 272 275 276 276 276 275 275 274 271 269 268 268 269 271 274 278 281 282 282 282
257 258 258 256 257 257 259 260 258 257 258 259 259 259 261 264 266 268 268 268 271 272 272 271 272 274 276 275 273 273 272 271 270 269 269 270 272 273 273 277 280 280 280
258 258 257 257 255 258 259 259 260 261 262 263 265 265 265 265 267 272 272 271 271 273 273 272 271 271 271 271 269 268 268 268 268 269 269 269 270 271 272 274 280 280 279
257 258 257 257 258 259 258 258 264 266 268 270 270 269 268 270 272 273 273 274 274 274 268 264 264 265 265 266 267 268 270 270 270 269 269 270 270 270 272 275 280 280 278
254 256 257 257 257 257 257 257 256 260 266 266 268 268 269 270 271 272 272 272 269 268 259 260 261 262 263 264 264 265 266 269 270 269 269 270 271 271 276 278 278 279 278
250 254 253 254 254 255 256 256 256 255 255 257 262 265 267 269 270 270 269 265 258 260 259 259 259 260 261 262 262 264 265 267 269 269 270 270 271 274 275 275 275 275 277
250 252 252 252 253 254 254 254 254 254 254 255 257 260 261 266 268 267 266 255 257 257 258 258 259 259 260 261 263 265 267 268 268 267 268 270 272 274 275 277 278 277 277
250 252 254 250 250 250 251 251 253 252 253 254 255 255 258 261 257 257 258 258 258 258 259 258 259 259 260 261 262 264 265 267 269 268 269 270 272 273 274 275 277 277 276
249 248 252 248 247 247 248 250 252 252 252 253 254 255 266 257 255 256 256 257 258 259 259 259 259 260 261 262 263 263 265 266 268 270 271 272 274 273 275 276 275 275 275
248 247 245 245 248 249 250 252 250 249 251 251 253 254 262 251 252 254 255 256 258 259 260 260 260 261 261 262 263 263 264 265 266 267 269 270 272 272 273 273 273 273 272
249 246 247 248 249 252 253 251 247 248 249 249 250 252 252 252 253 253 254 255 256 258 259 260 260 261 262 263 265 265 264 265 266 267 267 266 266 265 266 268 267 268 268
249 249 251 252 252 252 251 249 248 250 249 248 248 249 250 251 251 252 253 254 255 256 257 258 259 260 260 262 265 267 267 267 266 266 267 267 267 267 267 267 268 267 268
254 253 253 253 253 252 250 249 249 246 246 247 248 247 249 250 251 251 252 253 254 254 256 257 258 258 259 260 263 266 269 268 266 266 266 266 265 265 265 266 266 266 266
254 254 254 253 252 251 249 247 247 246 246 248 247 247 249 250 251 251 251 252 253 253 254 256 257 256 257 260 262 268 269 270 266 265 265 265 264 264 264 264 264 264 264

GFSGL_sfc_thetae_042.txt.gz
Theta_e
279 279 279 279 279 279 278 278 278 278 278 278 278 278 278 278 278 277 277 277 276 277 278 278 279 280 281 282 283 284 284 282 281 283 286 287 286 286 287 285 285 285 286
279 279 279 278 278 278 278 278 278 277 278 277 277 277 277 277 277 276 276 276 276 276 276 277 277 280 279 279 280 280 281 283 281 280 282 283 285 286 286 286 286 285 285
279 278 278 278 278 277 277 278 277 277 276 276 276 275 275 275 275 276 276 276 276 276 276 276 277 277 278 278 278 278 279 281 281 280 280 282 283 284 284 285 285 286 285
279 278 278 277 277 277 277 276 276 275 274 273 273 273 273 274 274 275 275 275 275 276 276 277 277 277 277 277 278 278 279 278 279 279 279 280 281 282 281 282 283 283 284
277 277 277 277 277 276 275 274 273 273 272 272 272 271 271 271 273 273 274 274 273 274 274 275 276 277 279 280 278 277 277 277 278 278 278 279 279 279 279 281 281 283 284
277 277 277 276 275 274 273 272 271 271 270 270 270 269 269 270 273 275 275 273 272 271 271 272 272 273 275 278 279 281 280 277 276 276 277 277 278 280 281 281 282 281 280
277 275 274 272 271 271 270 269 268 268 268 267 267 267 267 267 272 274 274 272 271 270 270 270 271 272 272 272 274 276 277 278 279 277 274 275 276 278 280 280 281 281 281
272 270 270 269 268 269 268 267 266 266 266 266 265 265 266 267 271 272 273 271 270 269 270 270 270 270 271 272 272 272 273 274 275 275 275 274 275 277 278 279 279 280 283
271 270 269 267 265 266 263 264 265 264 264 263 265 264 263 264 268 271 271 269 269 269 269 270 270 270 272 274 272 271 272 273 276 278 278 279 281 281 281 278 277 277 278
271 269 268 266 261 261 263 262 263 261 263 264 264 263 263 261 267 270 271 269 267 268 269 270 272 271 274 275 273 271 269 270 272 271 273 274 276 275 278 277 276 275 276
267 267 266 265 261 262 260 261 259 259 261 259 260 261 261 262 263 269 271 270 269 268 269 270 271 274 275 275 276 273 272 274 274 273 273 273 274 274 274 275 276 277 276
265 265 263 261 262 262 255 257 255 256 256 257 258 259 262 263 266 269 272 273 273 270 269 270 271 274 275 277 277 278 279 279 274 271 269 269 270 271 272 274 275 276 277
261 259 260 261 261 260 256 258 257 255 255 258 259 259 261 264 264 270 272 273 274 272 272 273 276 276 277 276 276 277 275 273 271 269 269 270 271 272 273 272 273 273 274
257 260 261 260 260 260 261 260 257 256 257 258 259 260 262 265 267 267 268 271 273 272 273 272 273 273 272 273 271 272 272 272 271 270 270 271 271 271 270 271 270 271 270
258 260 261 260 258 259 259 259 260 260 261 260 263 265 265 264 266 272 273 271 272 273 271 266 263 263 264 265 266 267 268 269 268 269 268 268 269 269 269 271 270 270 268
259 260 260 259 258 259 258 258 263 267 269 270 271 270 268 270 272 273 274 274 273 271 263 258 259 260 261 262 262 263 264 264 265 267 268 269 269 269 268 270 270 270 268
257 258 258 258 257 256 255 256 255 259 264 266 267 268 269 270 271 272 272 272 268 266 254 256 257 258 259 260 261 261 262 263 265 266 266 268 269 268 268 269 270 270 271
253 256 253 254 253 253 254 254 254 253 253 255 260 264 267 268 269 270 270 265 257 258 251 256 257 258 259 259 260 260 261 263 264 266 267 268 268 269 269 269 271 274 275
250 251 251 252 252 252 253 252 252 250 250 252 254 258 259 264 267 266 265 250 255 256 257 258 259 259 259 260 260 260 262 262 264 265 268 267 267 268 268 270 271 273 275
249 252 252 250 250 249 249 250 250 249 250 250 252 253 254 255 251 253 252 251 254 256 257 258 259 260 260 260 260 261 262 263 264 265 266 268 268 269 269 270 272 272 274
249 248 251 247 246 247 247 248 249 249 250 251 252 252 263 257 252 250 252 253 253 255 256 257 258 259 260 260 261 261 262 263 264 265 266 267 268 270 272 272 273 273 274
248 247 244 246 247 247 247 248 249 249 251 251 251 249 261 248 248 249 251 252 253 254 255 256 257 258 259 260 261 261 263 264 265 265 265 265 267 268 268 269 269 271 272
248 247 247 245 247 249 250 250 249 251 252 249 248 249 247 248 246 247 250 251 252 253 254 255 255 256 258 259 261 262 263 265 266 265 264 265 266 266 267 267 267 267 267
252 252 252 251 252 251 252 252 252 253 251 249 247 247 247 247 247 248 249 251 251 252 253 253 255 254 256 257 259 262 263 267 267 265 265 264 265 265 266 266 267 267 267
254 254 254 254 253 253 253 253 253 252 249 248 248 245 245 247 247 247 249 250 251 251 252 252 254 254 255 255 256 258 260 268 266 265 264 264 264 265 264 265 265 265 265
255 254 254 254 253 253 252 252 252 250 248 248 247 246 246 247 248 247 248 249 250 250 250 252 253 252 253 255 256 260 264 270 268 265 264 264 263 263 264 263 263 263 263

GFSGL_sfc_thetae_045.txt.gz
Theta_e
281 281 281 281 281 281 280 280 280 280 279 279 279 278 278 278 278 278 278 278 278 278 279 278 279 280 280 281 282 282 282 282 281 283 285 286 286 287 289 291 291 290 291
281 281 281 281 280 280 279 279 279 278 278 277 277 276 276 276 276 276 276 277 277 276 277 277 277 278 278 279 280 280 280 281 281 279 282 283 284 285 286 287 288 289 290
280 280 280 280 279 279 279 278 277 276 276 275 275 274 274 274 274 275 275 275 275 275 275 275 276 277 277 278 278 278 279 280 280 280 279 282 283 284 284 285 286 287 288
280 280 280 279 279 278 278 276 275 274 273 273 273 273 272 272 273 274 274 274 274 275 275 275 274 274 275 276 277 278 278 278 279 278 278 278 280 283 284 283 283 285 285
279 279 279 279 278 277 275 274 273 273 272 272 272 271 271 271 272 274 274 274 273 273 273 273 273 273 274 275 275 275 276 277 278 277 277 277 277 279 280 282 282 283 285
278 278 278 277 276 275 273 272 272 271 270 270 270 269 269 270 273 275 275 273 272 271 271 272 272 272 273 274 275 276 276 274 273 274 275 275 276 277 279 279 279 279 278
278 278 276 275 272 272 271 270 269 268 268 268 268 268 267 268 272 274 274 272 272 271 270 270 270 271 271 271 273 274 274 275 276 275 273 274 274 275 275 275 275 276 276
276 273 273 271 270 270 268 268 267 267 266 266 266 266 267 267 271 273 273 272 270 270 270 270 270 270 271 272 272 272 273 273 274 275 275 275 275 276 276 276 276 277 278
274 272 270 269 267 267 265 266 266 265 265 264 266 265 264 264 269 272 272 270 269 269 270 270 270 270 272 274 273 272 273 274 276 277 278 278 279 279 279 277 275 274 272
272 271 269 267 264 263 265 264 264 263 265 265 264 264 263 263 267 270 271 271 269 270 271 271 273 272 275 276 274 273 271 272 273 273 274 275 277 277 278 277 275 272 272
270 268 267 266 263 263 262 263 262 261 263 260 261 262 262 263 264 269 272 272 271 271 271 271 272 275 276 277 277 275 274 275 276 275 275 275 276 275 276 276 276 275 273
267 266 264 262 263 264 258 260 260 259 259 259 259 261 263 264 267 270 272 274 274 272 271 272 272 276 278 278 276 277 278 277 275 274 273 272 273 273 274 275 275 276 276
264 261 260 261 263 262 259 260 260 261 259 259 261 261 262 265 266 270 272 273 274 273 273 274 275 274 274 272 272 274 273 271 271 270 271 272 273 274 275 274 275 275 275
259 260 261 260 261 261 262 262 260 259 259 260 260 260 262 264 267 268 269 271 274 273 272 270 269 268 269 269 267 268 268 268 268 268 269 270 272 272 271 272 271 272 271
259 261 261 260 260 261 261 261 261 261 261 258 259 261 262 265 267 272 273 272 273 272 266 262 261 261 262 263 264 264 265 266 265 266 266 267 268 269 270 271 271 270 269
260 261 261 261 260 260 259 259 264 267 269 270 272 271 270 271 272 273 274 274 273 271 262 258 258 260 260 261 261 261 263 263 264 265 265 265 266 267 268 270 271 270 269
258 260 260 260 259 258 257 257 256 259 264 266 268 269 270 270 271 272 273 272 268 266 257 257 257 258 259 260 261 261 261 263 264 264 265 265 267 267 267 268 269 269 269
254 258 256 257 256 255 255 255 255 254 254 255 260 263 266 268 269 270 270 264 257 258 256 256 257 259 260 260 260 261 261 262 263 264 265 265 266 268 268 268 268 268 269
253 254 253 253 253 253 254 254 253 252 252 252 254 257 259 263 266 266 264 255 253 255 256 257 258 258 259 260 261 261 261 261 262 263 265 265 266 267 268 268 268 268 269
249 253 253 253 253 252 252 252 252 251 251 251 252 253 253 253 255 253 254 252 253 253 255 255 256 257 258 259 260 260 261 261 263 264 265 265 266 267 267 268 270 270 271
250 250 252 251 250 251 250 249 251 250 250 251 252 254 262 261 254 251 251 252 252 253 254 254 255 256 257 258 259 259 260 261 262 264 266 265 265 265 267 268 269 271 273
248 249 249 249 251 251 249 249 249 249 250 251 252 253 261 254 251 250 250 251 252 252 253 253 254 255 256 257 258 258 259 260 262 264 266 264 265 265 267 267 268 269 270
248 248 248 247 248 248 248 248 249 250 251 252 252 253 253 251 250 249 250 251 251 251 253 252 253 253 255 256 257 258 258 260 262 264 265 264 264 265 266 266 267 267 268
250 250 251 250 251 253 252 252 253 253 253 253 253 252 251 250 249 248 249 250 250 251 251 251 252 252 253 254 256 257 258 260 262 266 265 264 263 264 265 265 266 266 267
249 250 251 252 252 254 254 254 254 254 254 254 253 252 249 248 248 248 248 249 249 250 250 251 251 252 252 253 253 254 256 260 265 266 264 263 263 263 263 264 264 265 264
250 251 251 252 253 253 253 253 254 254 253 253 252 249 248 248 248 248 249 248 249 249 249 250 251 250 251 253 254 257 260 265 269 266 263 262 261 262 263 263 263 263 263

GFSGL_sfc_thetae_048.txt.gz
Theta_e
287 287 286 286 286 286 285 284 284 283 282 281 281 281 281 280 280 280 280 281 280 281 281 281 281 282 281 282 282 282 282 282 281 283 285 287 286 287 288 289 290 289 290
287 287 286 286 285 285 284 283 282 281 281 280 279 279 279 279 279 278 278 279 278 278 279 279 279 279 279 280 281 280 281 281 280 279 282 283 283 285 286 286 287 288 288
286 286 285 285 285 284 283 282 281 280 279 278 278 277 277 277 277 277 278 278 278 278 278 277 277 277 276 277 277 277 278 279 280 279 279 282 283 284 283 285 286 287 288
286 285 285 285 285 284 282 280 279 278 277 277 277 276 275 275 276 276 277 277 278 277 277 277 276 276 275 275 275 275 276 277 277 277 278 279 280 281 282 282 282 286 286
285 285 285 285 284 282 280 278 277 276 276 275 275 274 274 274 274 276 276 277 276 276 276 276 276 275 275 275 275 275 275 274 274 274 275 275 276 277 278 280 280 282 283
284 284 284 283 281 280 278 276 275 274 274 274 273 273 272 273 273 275 276 275 275 274 274 274 274 274 274 275 275 276 276 274 273 273 273 272 273 275 277 277 277 277 275
284 283 282 281 279 278 276 274 273 273 272 272 272 271 271 272 273 275 275 274 274 274 273 273 273 273 273 273 274 275 275 276 277 275 273 273 273 274 275 274 275 275 275
283 282 281 279 277 275 274 273 272 272 271 271 271 270 271 271 272 273 274 274 274 273 273 273 272 272 273 273 273 273 274 274 275 275 275 276 276 277 277 277 277 277 278
282 281 279 277 274 273 272 271 271 271 270 270 270 270 268 269 271 272 273 273 273 272 273 273 273 273 274 276 275 274 275 275 277 278 279 279 280 280 280 278 276 275 274
281 280 277 275 272 271 271 270 271 270 269 269 269 269 268 267 269 271 272 273 272 273 273 274 275 275 276 277 276 275 273 275 276 276 277 278 278 278 279 278 277 273 273
279 276 274 272 270 270 269 269 268 268 267 267 266 267 267 267 268 271 273 273 273 273 273 274 274 276 277 278 278 276 274 276 275 275 275 276 277 277 278 278 278 276 274
275 273 271 269 270 268 266 267 266 266 265 265 266 266 268 268 269 271 273 274 275 274 273 274 274 276 276 276 274 275 275 275 272 272 272 273 273 275 276 277 277 277 277
271 269 268 267 267 267 266 266 267 266 266 267 267 267 268 269 270 271 272 274 275 274 275 275 274 273 272 271 271 272 271 270 269 269 269 270 271 273 274 274 275 276 276
269 268 267 266 267 266 267 267 267 267 267 266 266 266 268 269 269 271 271 273 275 275 274 270 270 269 269 269 267 268 268 268 267 267 268 269 270 270 271 272 272 272 272
268 267 268 268 266 268 267 268 267 267 267 265 266 266 267 268 270 272 274 274 274 274 271 267 266 265 265 266 266 266 267 267 266 267 267 267 267 268 269 271 270 271 270
268 267 268 268 268 267 266 266 268 269 270 271 272 272 272 273 274 273 274 274 274 272 267 264 263 264 264 264 264 264 265 265 266 266 265 266 266 267 268 269 270 270 269
269 269 268 266 267 266 265 264 264 266 266 267 268 269 271 272 271 272 273 273 269 267 263 262 262 262 263 263 264 264 264 265 265 265 265 266 267 267 267 268 270 271 270
265 264 267 266 265 265 264 263 263 262 262 262 263 264 266 268 270 270 271 269 263 262 261 261 261 262 262 262 263 263 263 264 264 265 265 265 266 267 267 268 269 269 270
263 264 263 263 263 262 262 261 261 260 260 260 260 262 262 264 266 268 267 262 259 259 260 260 261 261 261 262 262 262 263 263 263 264 265 266 267 267 267 267 268 268 269
260 259 260 261 261 260 260 260 260 259 259 259 259 259 260 259 260 262 261 260 259 259 259 259 260 260 260 260 261 261 262 262 263 264 265 266 267 267 266 266 267 268 269
260 260 258 260 259 260 259 259 259 259 258 258 258 260 262 260 262 261 259 258 258 258 258 258 259 259 259 259 260 260 261 261 262 263 264 265 267 266 266 267 268 268 269
259 259 258 258 259 258 258 258 258 257 257 257 258 259 262 261 260 258 258 257 258 257 257 257 257 258 259 258 259 259 259 259 261 263 264 264 266 266 266 267 267 268 269
257 257 257 257 257 256 256 257 256 257 257 257 257 257 258 257 257 257 256 256 256 256 257 257 256 256 258 258 259 259 258 259 261 261 262 264 265 266 266 266 266 266 267
257 257 257 258 258 257 257 257 258 257 256 257 258 258 258 257 257 256 255 255 255 256 256 255 255 255 255 256 258 259 259 259 261 261 263 266 265 265 265 265 265 265 266
257 257 257 257 257 257 257 258 258 258 258 258 258 258 257 256 255 255 255 255 254 254 254 254 254 255 255 254 255 255 256 257 258 263 267 266 264 264 264 264 264 265 264
257 257 257 257 257 257 257 257 257 257 257 257 257 257 256 255 255 254 254 254 254 254 254 254 254 254 254 255 256 257 258 262 263 267 265 266 264 264 265 265 264 265 264

GFSGL_sfc_thetae_051.txt.gz
Theta_e
288 288 288 288 287 287 287 286 285 284 284 283 282 282 282 281 281 281 281 281 281 281 281 281 280 281 280 281 281 281 281 281 278 280 282 283 283 283 284 286 286 286 287
288 288 288 287 287 286 286 285 285 283 283 282 281 281 280 280 280 279 279 279 279 279 279 279 279 279 278 279 279 278 278 279 277 275 278 279 280 282 282 282 283 285 285
288 288 287 286 286 286 285 284 283 282 281 280 280 279 278 278 278 278 278 278 279 279 279 278 277 277 276 277 276 276 276 277 277 276 275 278 278 279 280 281 282 282 284
288 287 287 286 286 286 285 283 282 281 280 279 279 277 277 276 276 277 277 278 278 278 278 278 277 276 276 275 274 275 275 275 275 274 274 274 275 277 277 277 277 280 279
287 286 286 287 286 286 284 282 280 279 278 277 277 276 276 276 275 276 277 277 277 276 277 277 277 276 276 276 275 275 274 273 273 272 272 272 273 273 273 275 275 276 277
286 286 286 286 285 283 282 280 278 277 276 276 275 275 274 275 275 276 276 276 276 275 275 275 275 276 275 276 277 277 276 273 272 272 271 271 272 273 274 274 274 273 271
285 285 285 284 282 281 280 278 277 276 275 274 274 274 274 274 275 275 276 275 275 275 274 274 274 274 275 274 275 276 276 277 277 275 272 273 272 274 274 273 273 273 273
284 284 283 282 280 280 278 276 276 275 274 274 273 273 273 273 274 275 275 275 274 274 274 274 273 274 274 274 274 274 275 275 275 276 275 275 276 276 276 275 275 275 276
282 283 282 281 279 278 275 275 275 274 273 273 273 272 271 272 273 274 274 273 274 274 275 275 274 274 276 277 276 274 274 275 279 280 280 281 281 281 281 278 275 273 272
282 283 282 280 277 275 275 274 275 274 273 272 272 272 271 269 271 273 273 273 272 273 274 275 276 276 277 278 276 275 272 273 274 274 275 276 277 277 279 277 276 272 271
282 281 279 277 275 275 274 274 272 271 271 270 270 270 270 269 269 272 274 273 273 273 273 274 275 277 277 278 277 273 272 274 274 272 271 272 273 274 275 276 277 276 273
279 277 275 273 274 273 270 271 270 269 268 268 268 269 270 270 271 272 274 275 275 273 272 274 274 277 276 276 274 274 275 274 269 269 268 269 270 271 273 274 274 275 275
275 273 271 271 272 271 269 269 268 269 269 270 270 270 270 271 271 273 274 274 275 274 274 275 277 274 274 272 272 272 270 268 267 266 266 267 269 270 271 271 272 273 273
272 271 270 269 269 269 270 270 270 270 270 270 269 269 270 270 271 271 272 272 274 275 275 272 272 272 271 271 269 269 268 268 267 266 267 268 268 268 268 269 269 270 269
272 271 271 270 269 269 269 270 270 271 271 270 269 269 268 268 271 273 273 273 273 274 273 268 267 266 266 266 266 267 267 267 266 267 265 265 266 267 267 268 268 268 267
272 271 271 271 270 270 270 269 272 272 272 272 272 272 272 273 275 276 276 275 276 274 268 265 264 264 264 264 264 264 265 265 266 265 265 265 265 265 265 267 268 267 267
273 272 272 270 271 269 269 268 267 270 271 272 273 273 273 273 274 274 274 274 274 268 263 263 263 263 263 263 264 264 263 265 265 264 264 264 264 265 265 266 266 267 267
270 267 271 269 270 269 268 267 267 265 265 266 269 268 269 270 271 272 273 273 267 264 261 261 261 262 262 262 262 262 262 263 263 263 263 263 264 265 265 265 266 265 265
267 267 267 268 267 265 266 265 264 263 263 262 263 264 265 267 269 270 271 266 261 260 260 260 261 261 261 261 261 261 261 261 261 261 262 263 264 264 264 265 265 265 266
263 262 263 264 264 262 262 262 262 262 261 261 261 261 262 260 259 261 263 261 260 259 260 259 259 259 259 259 259 259 260 260 260 261 262 262 263 264 264 265 265 265 265
263 262 261 262 262 262 262 261 261 261 260 260 260 261 264 259 258 260 262 261 260 259 259 259 259 258 258 258 258 258 259 259 259 260 261 262 263 261 264 265 265 265 266
261 261 260 260 261 261 260 260 260 260 259 258 259 260 264 262 261 262 260 260 259 258 258 258 257 257 257 257 257 257 257 257 258 259 260 260 261 262 265 264 264 265 265
260 260 259 259 259 259 258 258 258 258 258 258 258 258 258 258 258 258 258 258 258 257 257 256 256 256 256 256 257 257 257 256 258 259 258 259 260 263 264 263 263 263 263
259 259 259 260 259 259 259 259 259 258 258 257 258 258 258 259 259 259 259 258 257 257 256 255 254 253 254 254 255 256 257 257 258 258 258 259 260 264 263 262 262 262 263
259 259 259 259 258 258 258 258 258 258 258 258 258 258 259 259 259 258 257 256 256 255 254 254 254 253 253 252 253 253 254 256 255 256 258 260 264 263 261 261 259 261 261
259 258 258 258 258 258 257 257 257 258 257 258 258 258 258 258 257 257 256 256 255 254 253 254 254 252 252 253 253 254 256 259 259 260 263 265 259 256 256 256 257 257 258

GFSGL_sfc_thetae_054.txt.gz
Theta_e
285 285 284 284 284 283 282 281 281 281 280 280 280 279 279 278 277 277 276 277 276 276 276 276 277 277 276 276 276 276 276 275 273 275 277 277 277 277 279 280 281 281 282
285 284 284 284 283 282 281 281 280 279 279 278 279 278 278 277 276 276 275 276 275 276 276 276 275 278 274 275 274 274 274 274 273 272 274 275 275 276 276 276 278 280 280
285 284 283 282 282 281 280 280 279 278 277 277 277 277 276 276 275 275 275 275 275 275 275 275 275 275 274 274 273 272 273 274 273 272 272 274 274 275 275 276 276 276 279
284 283 282 281 281 281 280 279 279 278 277 276 276 275 275 275 275 275 276 275 275 275 276 275 275 274 274 273 273 273 274 273 273 272 271 272 272 274 274 273 273 275 275
284 282 282 281 282 281 280 278 278 277 276 276 275 274 274 274 275 274 276 275 275 275 275 276 275 275 277 277 275 274 273 272 272 272 271 271 271 272 272 273 272 273 274
283 282 282 282 281 281 279 277 277 276 275 275 274 274 273 274 276 276 277 275 275 275 274 274 274 275 274 277 277 278 277 274 272 270 270 271 272 272 273 273 272 271 270
282 282 282 282 280 279 278 276 275 274 274 273 273 273 272 273 277 277 277 275 274 274 274 274 274 274 274 274 275 277 277 277 278 276 272 272 272 273 274 273 273 273 272
282 282 281 280 279 278 276 275 274 273 272 272 272 272 272 273 277 277 277 275 274 274 274 274 273 273 274 274 274 274 275 276 276 277 276 276 277 277 277 277 276 276 276
282 282 280 279 278 277 275 274 273 272 271 270 271 269 269 270 276 276 276 273 273 273 274 274 274 273 276 278 276 274 274 274 276 278 278 279 279 279 278 275 272 271 271
281 281 280 279 278 276 274 272 271 270 271 272 272 270 269 266 274 275 275 272 268 271 273 274 276 275 278 279 276 273 270 271 272 273 272 272 274 274 276 275 273 271 271
279 279 279 279 277 275 273 271 270 270 271 268 268 268 267 268 268 274 276 273 271 270 271 272 274 276 277 278 278 273 271 274 271 267 267 268 269 270 271 273 274 272 269
279 278 276 274 275 273 272 269 269 267 266 264 264 265 268 269 271 273 275 276 275 271 270 272 273 276 278 278 276 275 275 273 266 265 265 265 266 268 270 270 271 271 272
276 275 272 271 272 271 269 268 266 265 265 265 266 265 267 270 269 274 275 276 276 274 273 274 277 276 276 273 273 273 271 265 264 263 264 265 267 268 269 268 269 270 271
272 270 270 270 268 268 269 268 267 265 265 266 266 266 265 267 268 269 269 268 273 273 273 272 272 274 273 271 267 269 267 266 266 265 265 266 267 266 266 267 267 267 267
271 269 268 268 268 266 267 267 267 266 268 262 262 263 260 260 265 271 270 267 267 271 272 268 261 262 262 263 263 264 265 265 264 265 264 263 264 265 265 266 266 266 265
269 268 268 267 266 266 265 263 273 273 274 275 275 268 263 271 274 276 277 277 278 277 268 256 257 259 261 261 261 261 262 263 264 264 263 263 263 263 264 265 266 265 265
266 267 267 267 266 265 264 264 262 266 275 276 276 276 276 276 276 276 276 276 276 275 259 255 256 258 259 261 260 261 262 263 263 262 262 262 262 263 263 263 264 265 264
263 265 265 264 265 265 264 262 260 258 258 259 268 271 271 272 272 273 274 274 269 264 253 253 254 255 255 257 258 258 260 260 260 260 260 260 261 262 262 262 263 263 263
263 262 263 263 262 262 261 258 257 255 254 254 256 262 264 268 269 271 271 266 262 255 253 251 252 253 255 255 256 256 256 258 259 258 259 260 260 261 261 262 262 264 264
259 262 260 261 260 260 258 258 256 255 255 255 256 256 257 256 253 254 254 252 251 252 251 251 251 251 252 253 253 254 254 254 255 255 258 259 259 260 261 261 261 263 263
257 257 260 259 260 259 260 256 257 256 255 254 256 258 265 258 257 255 254 256 257 254 253 252 252 252 252 253 253 252 252 255 254 252 257 258 259 259 259 260 263 263 263
259 259 259 260 260 259 255 255 256 256 255 254 254 254 264 260 252 253 255 255 253 251 252 252 252 252 254 256 254 250 250 251 253 249 255 257 257 257 258 260 263 262 262
259 259 258 256 254 256 255 254 255 256 255 253 254 254 250 252 252 252 253 252 251 253 250 253 256 256 256 255 251 251 252 253 252 248 254 256 256 257 258 261 262 261 261
254 255 255 255 256 256 254 252 252 254 254 254 251 251 251 251 253 254 253 252 254 254 255 256 256 255 255 252 249 250 251 253 252 253 250 255 256 256 258 262 259 259 259
252 253 253 252 251 251 250 250 251 249 251 252 252 252 251 253 254 253 252 252 256 257 255 255 255 254 252 250 250 249 250 255 254 253 252 254 255 256 259 257 254 254 254
252 252 251 250 249 248 248 250 250 251 251 252 252 252 251 253 254 254 256 257 256 255 255 255 254 251 250 250 249 251 252 256 255 254 254 256 258 261 260 255 254 251 251

GFSGL_sfc_thetae_057.txt.gz
Theta_e
285 284 284 283 283 282 281 280 280 280 279 279 279 279 278 277 277 276 276 276 276 276 276 276 276 276 275 275 275 275 274 273 271 273 274 275 275 275 276 276 277 277 278
284 284 283 283 282 281 280 279 279 279 279 278 278 278 277 277 276 276 275 275 275 275 276 275 275 277 274 274 273 273 273 273 271 271 273 273 273 274 274 274 276 277 276
284 283 282 282 281 280 279 279 278 278 277 277 277 277 276 276 275 275 275 275 275 275 275 275 275 274 274 273 272 272 272 274 272 271 271 273 273 274 274 274 274 275 277
284 283 282 281 281 280 279 278 278 277 276 276 276 276 275 275 275 275 276 275 275 275 276 275 274 274 274 273 273 273 274 273 273 272 271 272 273 274 274 273 273 275 274
283 282 282 281 281 280 279 278 278 277 276 276 275 274 274 274 275 274 275 275 275 275 275 275 275 275 277 277 275 274 274 271 272 272 271 271 272 272 272 273 273 273 274
283 282 282 282 281 281 280 278 277 276 275 275 274 274 273 274 278 279 277 275 275 275 274 274 274 274 274 277 277 278 277 274 272 271 272 272 272 273 274 273 273 272 270
283 283 282 282 281 280 279 278 276 275 274 274 273 273 273 273 279 280 279 276 275 274 274 274 274 275 273 273 275 277 277 278 279 276 273 273 272 273 274 273 274 274 273
283 282 282 281 281 280 278 277 276 275 274 273 273 272 272 273 278 280 279 275 274 274 273 273 273 273 273 274 273 274 275 276 276 276 274 274 274 276 274 273 272 272 272
282 282 282 282 281 279 278 276 276 274 273 272 272 270 270 271 278 279 278 274 273 273 273 273 273 273 275 278 276 272 273 274 276 277 278 277 277 276 275 272 268 268 268
282 282 282 283 281 279 279 276 274 274 274 273 273 271 270 268 276 278 278 273 268 271 272 273 276 274 277 278 275 273 269 270 272 271 269 270 271 271 273 271 270 267 267
283 282 281 281 281 280 278 275 274 273 272 270 270 269 268 269 268 277 278 274 271 269 270 271 273 276 277 278 279 274 271 275 268 266 266 266 267 268 269 271 271 269 266
280 279 279 279 279 277 276 273 272 271 270 268 267 266 267 269 271 274 277 278 276 270 269 272 273 276 277 278 277 276 276 274 264 263 264 264 265 267 268 269 269 269 270
278 279 279 278 276 275 274 271 269 269 269 267 267 266 266 269 269 275 277 277 278 275 273 273 276 278 278 275 274 274 271 263 261 261 263 265 266 267 268 267 268 269 269
278 274 271 273 270 270 272 271 271 268 268 267 266 266 265 267 268 268 269 269 274 274 274 271 273 275 276 273 267 269 267 265 264 264 264 266 266 265 265 266 265 265 265
270 269 270 270 269 268 268 268 269 266 269 265 265 264 262 263 267 271 269 265 265 269 268 264 265 266 264 263 262 263 264 264 262 263 263 263 263 264 264 265 264 264 263
270 269 269 268 266 266 266 263 273 273 274 275 275 268 262 271 274 275 276 277 278 278 274 265 263 263 262 262 260 260 261 261 262 262 262 262 262 262 262 263 264 263 262
270 268 267 267 266 265 264 265 264 267 277 276 277 277 277 273 276 277 278 278 278 277 270 262 262 261 260 261 260 259 260 261 261 260 260 260 261 261 260 261 262 262 262
265 267 267 266 265 263 263 262 262 262 263 262 268 273 273 274 274 274 275 275 270 268 260 261 259 258 257 257 257 256 257 257 257 257 257 257 258 259 259 259 260 261 261
263 262 261 261 260 261 261 259 259 257 257 260 262 265 265 269 270 271 272 261 259 260 261 258 258 255 256 255 255 254 253 253 253 252 252 254 257 258 258 259 260 260 261
259 261 260 259 258 259 258 258 258 260 261 261 260 260 257 256 254 255 256 257 259 259 259 256 255 251 251 251 251 251 250 249 249 250 250 252 256 258 258 258 259 259 260
257 257 259 257 257 258 260 261 262 261 259 257 256 255 265 259 258 257 257 255 255 256 257 254 252 250 251 251 252 251 251 254 254 249 247 251 253 255 257 258 258 258 261
255 254 255 256 259 260 259 258 257 256 254 252 252 255 264 255 249 247 247 251 252 252 254 254 252 250 252 253 254 255 254 254 252 245 248 250 251 253 255 257 256 260 260
257 257 256 254 254 254 252 250 251 251 251 249 249 250 248 248 248 249 251 251 250 250 251 251 253 254 255 256 256 255 254 253 251 247 247 249 251 252 254 256 256 259 258
255 255 253 250 251 251 250 249 249 250 249 249 247 247 249 249 250 251 252 252 251 251 250 252 256 256 257 255 254 253 252 250 245 247 248 249 252 252 253 255 256 259 257
249 250 250 250 248 249 248 247 248 246 246 248 249 247 248 250 250 251 251 251 251 250 250 255 256 255 254 254 254 251 248 253 251 249 246 245 250 251 253 255 256 258 254
249 249 248 248 247 246 246 247 247 248 249 250 250 250 250 251 252 252 252 251 252 254 256 256 255 254 254 253 252 251 251 254 252 251 250 248 250 252 254 256 256 256 254

GFSGL_sfc_thetae_060.txt.gz
Theta_e
286 286 284 284 283 283 281 281 281 280 279 279 279 278 278 277 277 276 276 276 276 276 276 276 276 276 275 274 274 275 274 273 270 272 273 275 274 274 275 275 276 275 276
285 284 284 283 282 281 280 280 280 279 279 279 278 278 277 277 276 276 275 276 275 275 276 275 275 277 274 274 273 273 273 273 271 270 273 273 273 274 274 274 276 277 276
283 283 282 281 281 280 279 279 279 279 278 278 278 277 276 276 276 276 276 275 275 275 275 275 275 274 274 273 272 272 272 274 272 271 271 273 273 274 274 275 275 275 277
283 282 281 281 281 280 280 279 279 278 278 278 277 277 276 275 275 275 275 275 274 275 275 275 274 274 274 273 273 273 274 273 273 272 272 272 273 274 275 273 273 275 275
283 282 282 282 281 280 279 279 279 278 278 278 276 275 275 275 275 275 275 275 275 274 275 275 275 274 277 276 275 273 273 271 272 272 272 272 272 272 272 273 272 273 274
283 282 282 281 281 280 280 279 278 278 277 277 276 275 274 274 279 281 277 275 275 275 274 274 274 274 274 278 278 278 278 272 265 267 272 272 272 272 272 272 273 270 268
283 283 282 282 281 280 280 279 278 277 276 276 275 275 274 274 281 282 281 275 275 274 274 274 274 275 273 273 275 277 278 278 279 276 272 272 272 272 274 271 271 270 269
283 283 282 282 281 280 279 278 277 277 276 275 275 274 274 273 280 282 281 276 274 274 273 274 273 273 273 273 272 273 273 274 275 276 275 274 274 275 273 272 271 269 269
282 282 282 282 281 280 279 278 277 276 276 275 275 273 273 273 280 281 280 275 275 273 274 273 273 273 275 277 275 272 272 274 277 278 278 277 277 276 274 271 265 265 264
282 283 283 283 282 281 280 279 278 278 277 275 275 274 273 272 278 281 280 274 271 272 273 273 276 273 276 278 275 270 270 271 272 267 269 270 271 270 273 270 269 264 264
283 283 282 282 283 282 281 279 278 276 275 274 273 272 272 271 271 280 280 275 273 270 270 271 272 276 277 278 279 275 272 274 266 264 265 266 267 268 269 270 270 268 265
283 282 282 283 283 282 281 280 276 276 274 273 272 270 270 270 273 277 279 280 278 270 269 271 272 276 278 278 278 279 279 276 261 259 260 264 265 266 268 268 268 269 269
282 282 282 282 282 281 280 277 275 275 274 272 271 271 270 270 270 277 277 279 280 277 274 273 276 277 278 278 277 277 273 264 260 258 261 264 266 267 267 266 267 268 267
281 280 279 279 277 277 278 276 275 273 273 272 270 271 268 267 268 268 270 271 276 277 276 273 274 277 277 275 270 272 268 265 264 263 264 265 266 264 263 265 264 264 263
277 274 274 274 274 272 272 273 274 270 274 271 269 268 264 264 267 271 269 265 263 268 269 259 261 266 268 268 265 265 265 264 263 262 262 262 263 263 263 264 263 262 261
271 271 271 271 269 269 268 266 274 273 276 276 274 268 263 272 274 276 277 277 277 276 272 269 268 267 268 268 266 265 263 262 262 261 260 260 261 261 261 261 262 261 260
271 269 268 268 268 267 266 267 265 267 276 277 278 278 276 273 276 277 278 278 279 279 275 272 266 266 266 265 265 262 262 262 262 261 259 259 260 259 259 259 260 260 259
265 267 267 266 264 263 263 261 261 261 262 261 269 273 274 274 275 275 276 276 269 267 263 262 262 262 263 262 262 261 260 260 260 257 256 255 254 256 257 257 258 258 259
261 259 260 259 259 260 260 259 258 256 256 257 259 266 266 269 270 270 271 261 258 255 255 258 258 260 260 260 260 258 256 255 253 251 251 252 253 252 255 256 258 258 259
258 260 259 259 258 258 258 258 257 256 257 258 260 262 262 260 257 258 256 254 253 255 256 255 255 252 251 250 249 249 249 249 251 251 253 253 253 253 256 256 257 257 257
257 257 258 257 256 255 255 256 257 258 258 258 258 257 264 257 255 254 254 255 253 251 251 250 250 248 251 252 250 249 250 253 252 254 253 252 251 251 252 256 256 257 257
255 254 254 255 256 257 256 259 258 257 254 253 252 253 264 252 248 246 245 246 248 249 250 249 250 249 250 249 249 250 254 254 254 254 252 251 250 247 250 254 255 256 256
256 255 255 255 256 257 255 252 252 251 250 249 248 248 246 246 245 245 247 248 247 248 248 245 248 250 248 249 254 256 255 255 255 253 250 250 245 247 247 252 254 254 255
256 256 255 253 253 252 251 250 249 250 248 247 245 245 246 245 246 248 248 248 248 249 248 248 249 251 250 251 253 255 255 254 252 251 250 246 247 246 246 249 252 254 256
252 252 252 252 251 250 249 248 248 245 245 246 246 245 245 246 247 248 248 249 249 248 249 249 249 251 251 252 254 254 254 256 255 251 245 244 246 245 244 246 251 253 255
251 251 250 249 248 247 246 247 246 246 246 248 247 247 247 248 249 249 250 249 249 250 250 250 250 251 251 253 254 255 255 257 254 250 247 246 246 247 246 248 250 254 255

GFSGL_sfc_thetae_063.txt.gz
Theta_e
288 287 286 285 282 282 281 281 281 281 280 280 280 279 279 278 278 277 277 276 276 276 276 276 276 276 275 274 274 274 273 273 270 272 273 274 273 274 275 276 276 276 276
287 286 285 283 281 280 280 280 280 280 279 279 279 279 278 278 277 277 276 276 276 276 276 276 275 276 274 274 273 273 272 272 271 270 272 272 273 274 274 274 276 277 276
286 285 284 281 281 280 279 279 280 279 279 279 278 278 278 277 277 277 277 276 275 276 275 275 275 274 273 273 272 272 272 274 272 271 271 273 273 274 274 275 275 275 276
285 284 282 281 281 280 280 279 279 279 279 279 278 278 277 277 277 277 276 275 274 275 275 275 274 274 273 273 272 272 273 272 272 271 271 272 273 274 274 272 272 274 274
284 283 282 282 282 281 280 279 279 279 279 278 277 276 276 277 277 276 275 275 275 274 275 275 275 274 277 275 274 273 273 271 271 271 271 271 272 272 271 272 272 273 272
284 283 283 282 281 280 280 279 279 278 278 278 277 276 276 276 281 281 277 275 275 274 274 274 274 274 275 279 279 280 277 271 265 266 270 271 272 272 272 272 272 269 267
283 283 282 282 281 280 279 279 278 277 277 277 277 276 276 275 282 283 281 276 275 274 274 274 274 275 273 273 276 279 279 279 280 276 271 273 272 273 273 272 271 269 268
283 282 282 282 281 280 279 278 278 278 277 276 276 276 276 275 282 283 283 276 275 275 274 274 273 273 273 273 272 272 273 273 274 275 275 275 274 275 275 273 270 269 268
282 282 282 282 281 279 279 278 278 277 277 276 277 276 276 275 282 283 282 277 276 275 274 274 274 273 275 278 275 271 272 273 278 280 280 280 279 278 276 271 264 264 263
282 283 282 282 282 280 280 279 279 278 278 277 277 276 276 276 280 283 282 276 274 274 274 274 277 274 276 278 275 270 270 272 272 270 270 271 272 270 273 271 268 264 264
283 283 282 282 282 282 281 279 278 278 277 276 276 276 275 275 275 282 283 277 276 274 273 273 274 277 279 279 280 274 273 275 273 269 265 266 267 268 268 269 270 268 264
281 280 281 282 282 282 281 280 279 278 277 276 275 274 274 274 275 280 282 283 279 274 273 273 273 277 278 279 279 280 280 280 267 260 260 264 265 266 267 268 269 268 268
282 282 282 283 283 283 282 280 279 279 278 276 274 275 274 272 272 279 280 282 282 279 275 274 277 278 279 279 280 280 277 269 262 259 262 265 266 267 267 267 267 267 267
284 283 283 282 282 282 283 282 280 277 277 277 274 275 274 270 270 271 273 276 279 278 278 276 278 278 278 277 271 274 270 266 265 264 265 265 266 264 263 265 263 263 262
281 279 280 281 281 279 278 279 278 278 279 277 276 274 269 268 270 273 272 268 269 271 268 260 262 266 269 269 268 266 267 267 266 265 264 263 263 263 263 264 262 261 259
273 274 274 274 273 273 272 269 276 275 279 279 276 272 267 273 275 276 278 278 277 276 270 265 266 268 268 268 268 269 267 266 265 264 263 261 262 262 261 261 261 259 258
272 270 270 270 270 269 268 270 267 270 277 278 278 277 275 271 276 277 277 278 279 279 275 274 269 267 265 266 265 265 265 264 265 263 263 263 262 261 258 257 258 259 257
267 268 267 267 267 266 266 265 266 267 266 261 273 275 277 277 276 276 275 272 264 265 262 261 261 262 263 262 261 262 262 262 262 262 261 257 252 254 254 255 256 256 256
264 262 262 260 259 261 260 259 259 258 257 256 258 266 265 272 271 271 269 258 255 257 258 258 257 256 257 256 257 256 254 254 253 252 250 250 251 250 251 254 256 257 257
258 260 259 259 258 258 258 258 257 255 255 254 255 255 255 259 258 256 257 257 252 250 250 250 249 248 247 246 247 248 248 246 247 247 250 252 253 254 254 252 255 256 255
257 257 258 257 256 255 255 256 257 257 256 254 255 259 264 254 253 251 250 249 249 247 247 245 246 245 245 245 245 245 245 249 247 249 251 254 254 251 253 254 255 255 256
255 254 255 255 256 256 254 256 256 256 256 256 253 252 265 253 250 249 246 245 244 244 245 244 245 246 248 246 247 246 247 249 249 252 255 255 253 252 251 253 251 254 255
255 255 254 252 254 256 254 252 253 253 252 251 251 251 249 248 246 244 244 244 243 244 244 242 244 246 247 246 246 249 252 251 250 253 254 252 252 251 250 248 247 250 254
253 254 254 252 253 253 253 250 251 252 251 249 248 247 246 244 243 244 244 244 243 245 244 244 245 247 248 248 248 249 252 251 251 254 254 253 252 251 247 242 246 249 253
252 253 252 251 251 251 250 249 250 248 247 247 245 244 244 244 244 244 245 244 245 246 247 246 246 246 248 249 249 248 249 256 255 255 252 250 250 246 241 242 244 246 250
249 250 249 248 248 246 246 247 246 246 246 246 246 245 245 246 247 246 247 247 248 248 248 247 248 248 249 249 249 252 252 257 256 255 253 249 246 244 242 243 242 245 249

GFSGL_sfc_thetae_066.txt.gz
Theta_e
289 289 288 287 286 284 283 282 282 281 280 280 280 280 279 279 279 278 278 277 277 277 276 276 276 276 274 274 274 274 273 273 271 272 273 273 273 274 275 275 276 276 276
288 288 287 286 284 283 283 282 281 280 280 280 280 279 279 278 278 278 277 278 277 276 276 276 275 276 274 273 273 273 273 272 271 270 272 272 272 274 274 274 276 277 276
287 287 286 284 284 283 282 281 280 279 279 280 279 279 279 278 277 278 278 278 277 276 276 275 275 274 273 273 272 272 272 273 272 271 270 272 273 274 274 275 274 274 276
286 286 285 284 284 283 282 281 279 279 279 279 279 279 278 278 278 278 277 277 277 276 276 275 275 274 274 273 272 272 272 272 272 271 270 271 272 274 273 272 272 274 274
285 285 285 284 284 282 281 280 279 279 279 279 278 278 277 277 278 277 277 277 276 276 275 276 275 275 278 276 273 272 272 271 271 270 270 271 271 272 271 272 271 272 273
285 284 284 283 282 281 281 280 279 279 279 278 278 277 277 277 282 282 279 277 276 275 274 274 275 275 275 280 280 280 276 271 265 266 269 270 272 272 272 272 272 270 268
284 284 284 283 282 281 280 279 278 278 278 277 277 277 277 277 283 284 282 277 276 276 275 275 275 275 274 274 278 281 281 281 280 273 268 273 272 272 273 272 272 270 269
283 282 282 283 282 280 279 279 279 278 278 277 277 277 277 277 284 285 283 277 276 276 275 275 274 274 274 273 273 272 273 273 274 275 275 274 274 275 275 274 271 268 269
282 282 281 281 281 279 278 278 279 278 278 277 278 277 277 277 283 285 283 278 276 276 276 275 275 274 276 279 274 271 272 273 277 280 280 281 282 281 277 272 263 259 263
282 282 281 282 281 280 280 279 279 279 278 277 277 277 277 277 282 284 284 279 277 276 276 275 277 275 278 279 276 273 271 272 273 272 273 274 275 271 274 271 268 260 263
280 280 281 282 281 281 280 279 278 278 277 277 277 276 277 277 277 283 285 279 278 277 276 275 275 280 280 280 280 275 274 275 274 274 270 269 268 268 268 269 269 268 265
281 280 281 282 281 281 280 279 278 278 277 276 276 276 276 276 278 281 285 285 282 278 276 276 275 278 280 281 280 281 281 281 272 267 266 266 266 267 267 268 269 269 269
279 280 281 281 281 281 280 279 278 278 277 277 276 277 278 275 276 282 282 284 284 280 277 277 278 279 280 280 281 281 280 274 269 266 266 267 267 267 267 267 267 267 267
282 281 282 281 281 282 282 281 280 279 279 280 279 278 279 275 274 274 277 279 281 282 282 279 279 279 279 278 274 276 274 273 271 269 267 267 267 266 263 265 264 264 262
283 281 282 282 282 282 281 282 282 282 283 281 280 279 278 275 274 276 275 274 275 276 268 264 265 268 269 269 269 270 271 271 268 268 267 266 265 265 264 264 263 261 258
277 278 279 279 278 277 276 274 280 279 283 284 283 279 272 277 279 279 279 279 278 278 268 261 262 267 268 270 269 268 268 268 268 267 266 264 264 263 263 261 261 256 257
274 271 270 271 271 273 272 273 271 272 280 281 279 278 278 275 278 278 279 279 280 279 273 270 268 268 267 267 265 264 264 265 266 265 264 264 263 262 260 258 258 257 256
268 268 268 267 268 267 267 267 268 269 269 266 276 278 278 277 278 278 278 276 264 265 263 265 263 262 261 260 261 261 260 259 259 258 258 257 255 258 255 254 255 253 253
263 261 261 261 260 261 261 260 260 261 263 260 262 268 268 276 276 275 270 258 258 260 260 259 258 257 256 254 253 252 251 252 252 250 248 249 252 252 250 253 254 256 256
258 260 258 258 257 258 257 258 257 257 258 259 258 255 255 259 257 253 253 254 252 251 250 250 248 247 246 246 245 245 245 245 245 245 247 248 249 250 254 251 255 255 255
256 257 258 256 255 254 254 255 256 256 256 255 255 255 263 253 253 252 250 248 248 247 247 246 245 243 242 242 242 242 243 247 246 246 245 247 249 251 252 255 255 255 255
255 254 254 254 254 255 253 255 256 257 256 256 253 254 266 252 250 248 248 247 245 244 243 243 243 243 245 244 244 243 244 246 245 245 248 250 250 250 253 254 253 254 254
255 255 254 253 254 254 253 251 252 253 252 250 251 250 249 247 247 246 245 243 242 242 240 240 242 243 244 244 244 246 247 248 249 248 249 249 249 250 252 252 252 251 251
254 254 254 251 252 252 251 249 249 251 250 249 248 247 247 245 244 244 243 242 241 241 240 242 243 245 245 245 245 245 247 249 247 250 251 251 249 251 252 251 251 249 248
250 251 250 249 248 248 249 248 249 247 247 249 247 245 244 243 243 243 243 242 243 242 244 244 244 245 247 247 247 245 246 253 251 250 249 248 248 250 250 248 244 241 243
248 248 247 247 247 246 247 247 246 247 246 247 246 245 246 246 247 246 245 244 246 246 246 245 245 247 247 248 248 250 251 255 252 252 248 248 248 248 245 241 239 241 243

GFSGL_sfc_thetae_069.txt.gz
Theta_e
293 292 291 290 290 288 287 285 284 283 283 282 282 282 282 281 281 281 281 281 280 280 280 280 279 279 278 278 279 278 278 278 277 277 277 277 277 277 278 279 279 279 279
292 291 290 289 289 287 286 284 283 282 282 282 281 282 281 281 281 281 280 280 280 279 279 279 278 277 277 277 278 277 277 277 276 274 275 276 276 277 278 277 278 278 278
291 290 288 287 286 286 285 284 283 282 281 281 281 281 280 280 280 280 280 279 279 279 279 278 278 277 276 276 276 276 276 276 276 275 274 276 276 277 277 278 277 277 278
290 290 288 286 285 286 284 283 282 282 281 281 281 280 280 280 279 279 279 279 279 279 279 278 278 277 277 276 276 276 275 275 274 274 274 274 275 277 277 275 275 277 276
288 288 287 287 286 285 284 283 282 281 281 281 280 280 279 279 279 279 279 279 279 278 278 278 278 278 279 278 276 276 275 275 274 274 273 274 274 274 274 276 274 275 276
287 287 286 285 285 284 283 282 281 280 280 280 279 279 279 278 282 283 280 279 278 277 277 277 277 278 278 281 281 279 277 275 273 274 274 273 274 275 275 274 274 273 271
286 286 285 285 283 283 282 281 280 279 279 279 279 279 278 279 284 284 282 279 278 278 277 277 276 277 277 277 281 282 282 282 281 275 274 274 275 276 276 274 274 273 272
285 285 284 283 283 282 281 280 280 280 279 279 278 279 279 278 285 285 283 279 279 278 277 277 277 276 276 275 275 275 276 277 278 279 278 277 277 277 277 276 275 272 272
283 283 283 282 282 281 280 280 280 279 279 279 279 279 279 278 285 286 283 278 278 277 277 277 277 277 278 280 276 274 275 275 277 280 280 281 281 282 281 276 271 269 268
282 282 282 282 281 280 281 280 280 280 279 279 278 279 279 278 285 286 284 280 279 278 277 277 278 277 279 281 279 276 274 275 275 275 276 277 279 276 277 275 272 268 267
281 280 280 281 280 280 281 280 280 279 278 278 278 278 278 278 282 286 287 281 281 279 278 278 277 281 281 281 282 278 277 277 276 276 274 275 274 272 272 272 272 270 268
279 279 279 280 280 280 278 278 279 278 277 277 277 276 277 277 279 285 287 286 284 280 279 279 279 280 282 283 282 282 283 282 280 277 274 272 271 271 271 271 271 271 271
277 277 279 281 280 280 279 278 278 278 277 276 276 276 276 277 277 282 286 286 287 282 281 281 280 281 282 282 282 282 281 280 278 272 271 271 271 272 271 270 270 270 269
280 280 280 279 280 280 280 280 279 278 278 277 277 277 277 277 277 278 281 283 284 285 285 282 281 281 280 279 277 279 278 277 275 274 273 272 271 269 268 269 267 267 265
280 280 280 280 280 280 280 280 280 280 281 279 279 280 279 280 279 280 279 279 280 281 277 273 274 274 274 274 273 273 273 273 272 272 271 269 268 268 268 268 266 265 263
280 280 281 281 281 280 279 277 282 283 284 285 285 283 281 283 282 282 282 282 282 281 275 270 270 271 271 271 272 272 272 271 271 270 269 268 267 266 266 266 265 263 261
279 277 277 277 277 277 277 277 275 276 283 284 283 281 281 278 281 281 281 281 281 279 272 268 269 269 270 271 270 269 268 268 268 267 266 265 265 264 263 262 262 261 260
268 268 270 273 275 275 275 275 275 275 273 274 278 278 278 278 279 279 280 279 272 270 268 267 267 266 266 266 265 265 264 263 263 263 263 262 260 261 260 260 259 258 257
267 265 264 263 265 265 265 265 265 264 265 264 267 271 268 279 279 275 272 265 265 264 264 264 264 264 263 263 261 260 259 259 258 258 257 256 257 256 256 256 257 256 257
262 263 261 261 261 262 262 262 262 262 263 263 263 263 261 265 263 260 259 260 262 262 261 261 259 258 257 257 255 254 254 253 254 253 254 254 255 254 255 255 255 256 257
257 258 258 258 258 257 258 259 259 259 260 259 259 259 265 261 261 260 260 259 260 259 257 256 254 253 252 251 251 251 251 254 253 252 252 253 252 252 254 256 256 256 256
255 254 255 254 255 256 254 256 257 257 257 258 257 258 270 258 259 258 258 256 254 253 252 253 253 252 252 251 251 251 251 252 252 251 251 251 252 253 254 255 254 255 255
256 255 254 253 254 254 254 252 254 255 255 254 256 257 256 256 254 253 253 252 250 250 248 248 250 249 248 247 248 251 251 251 252 251 251 251 252 253 253 253 253 253 254
254 254 254 252 252 252 252 251 252 252 253 253 252 252 252 250 251 251 250 249 248 248 246 246 246 248 248 248 248 247 248 250 250 250 250 251 252 251 253 253 253 253 253
251 252 251 250 248 249 249 249 251 248 249 251 250 250 249 249 248 248 248 247 246 247 248 246 246 247 249 249 248 247 247 252 253 250 249 251 251 250 251 251 251 250 248
250 250 247 247 247 247 247 249 248 250 249 250 250 249 249 249 250 249 248 247 247 248 248 248 248 248 248 249 249 250 250 254 251 251 251 250 250 249 249 249 247 246 246

GFSGL_sfc_thetae_072.txt.gz
Theta_e
303 303 302 300 299 297 295 293 290 287 285 284 284 284 284 285 285 288 288 287 286 285 286 285 284 284 283 282 282 282 282 283 283 280 281 282 281 281 282 282 282 282 282
301 301 300 299 295 292 291 289 287 285 284 283 283 283 283 283 284 286 286 286 285 284 284 284 282 281 281 281 281 281 282 282 282 279 280 280 280 281 281 280 280 280 281
300 299 298 297 294 291 290 288 286 285 284 283 282 282 282 282 283 283 285 285 285 284 283 283 281 280 279 279 280 280 281 279 280 279 279 279 280 280 280 281 281 281 281
297 297 296 296 294 291 290 287 286 284 283 282 282 282 281 281 281 281 282 284 284 284 283 283 281 280 279 279 279 280 279 279 278 278 278 278 278 279 279 278 279 281 280
296 296 295 294 293 291 290 289 287 284 283 282 282 281 281 280 280 280 281 281 283 282 282 281 281 281 282 281 279 280 279 279 278 278 277 277 278 278 277 279 277 279 279
294 294 294 292 290 288 287 286 285 284 282 281 280 280 279 280 283 284 282 281 281 281 280 279 280 279 281 282 282 282 281 280 279 279 278 277 277 278 279 278 277 276 275
293 291 291 289 287 287 286 284 284 283 282 281 281 280 280 280 284 285 284 282 281 281 280 279 278 279 279 280 282 283 282 282 281 279 278 278 278 279 279 277 277 276 276
290 289 288 288 287 286 284 283 283 282 281 281 280 280 280 280 285 285 283 282 282 281 281 280 279 278 278 278 279 280 281 281 281 282 281 281 281 281 280 279 278 277 277
288 288 287 287 286 285 284 283 283 281 281 281 281 280 280 280 285 285 283 281 281 281 280 280 280 279 280 281 278 278 278 278 280 282 283 283 282 282 281 281 277 274 274
287 287 287 286 285 284 284 284 284 283 281 280 280 280 280 280 285 286 283 281 281 280 279 279 280 280 281 282 280 278 277 278 278 278 278 279 281 281 282 279 278 274 273
286 285 285 286 284 285 284 284 283 281 279 279 278 279 279 280 284 286 285 281 281 280 280 279 280 283 283 282 283 281 280 281 280 278 277 278 278 278 277 277 276 274 273
284 284 283 283 284 284 283 282 281 280 278 278 278 278 279 280 283 286 287 284 284 283 283 282 282 283 284 284 283 283 283 283 281 280 279 278 277 277 276 275 275 275 275
281 280 282 282 283 282 282 281 281 281 280 279 279 278 278 278 280 285 287 287 286 284 285 284 284 284 284 284 285 284 283 283 282 280 279 277 277 276 275 274 274 273 272
282 281 281 281 281 281 282 282 281 280 280 279 279 278 278 278 278 280 283 285 286 286 285 284 284 283 283 282 281 283 282 282 280 279 277 276 275 273 272 273 271 271 269
281 281 282 282 282 281 282 282 282 283 282 281 281 281 280 279 280 281 282 282 284 285 285 283 283 281 280 280 279 278 279 278 277 277 275 274 273 272 271 272 270 269 267
281 282 282 282 281 281 281 281 283 283 283 284 284 283 284 284 284 283 283 283 284 285 283 278 279 279 279 278 277 276 276 275 275 274 273 271 270 270 269 270 269 267 265
283 283 283 282 282 281 281 280 279 280 285 285 285 285 284 283 284 284 285 285 285 284 280 278 277 276 277 276 276 275 274 273 271 271 270 269 268 268 266 266 266 265 263
281 280 283 282 281 281 281 281 280 280 280 280 280 280 279 280 281 282 282 283 280 280 279 276 275 275 275 274 272 271 270 269 268 267 267 266 265 264 264 263 263 262 261
277 277 277 278 278 278 278 278 279 278 279 278 275 276 273 279 279 279 279 278 276 274 272 272 272 271 270 270 269 267 266 266 265 264 264 262 262 262 261 261 261 259 259
270 268 271 274 273 274 275 275 275 275 276 275 275 277 273 274 274 272 270 270 271 271 269 269 268 268 267 266 264 263 262 261 261 260 261 261 261 260 260 259 259 259 259
269 268 264 270 271 271 271 272 273 273 273 273 273 269 269 273 271 270 269 268 268 268 266 266 264 263 262 261 261 260 260 262 260 260 260 259 259 258 258 259 259 259 258
266 266 267 266 267 267 266 267 268 268 268 268 267 267 272 268 268 267 266 265 264 263 263 263 262 261 260 259 259 260 259 259 259 258 259 257 257 258 257 258 258 258 258
266 266 265 264 264 263 265 264 265 266 265 265 265 265 265 265 264 264 263 262 260 259 258 258 259 258 258 256 258 259 259 259 259 259 258 257 257 258 257 257 257 256 256
264 264 263 263 262 263 263 262 262 260 261 262 262 262 262 261 261 260 259 259 258 258 256 255 255 256 257 256 256 256 256 256 257 256 256 256 256 256 256 256 256 256 256
261 261 261 261 260 260 261 261 261 260 260 260 261 260 260 259 258 258 258 257 256 256 256 254 254 254 254 254 255 255 255 256 256 255 255 254 255 255 255 255 255 255 255
259 259 259 259 259 259 259 259 260 259 259 259 259 259 258 258 258 258 258 256 255 255 255 256 255 254 254 254 254 255 254 256 253 253 255 255 254 254 254 253 253 253 253

GFSGL_sfc_thetae_075.txt.gz
Theta_e
308 307 307 307 308 308 307 305 302 298 292 290 287 287 286 287 288 290 289 288 288 288 288 287 286 286 285 284 284 284 283 284 283 280 282 283 282 282 281 282 283 282 281
306 305 305 305 305 304 304 302 298 293 290 289 287 286 285 286 287 287 287 287 286 284 286 285 284 284 283 283 283 282 282 282 282 279 280 280 280 281 281 280 280 280 281
305 303 303 303 302 301 298 296 292 290 288 285 284 284 283 284 284 285 285 285 286 284 284 283 282 282 281 281 282 281 281 279 281 281 279 280 279 280 279 280 280 281 281
303 302 301 300 300 298 295 292 289 287 285 284 284 283 283 282 283 282 282 283 283 283 283 283 282 282 281 281 281 281 280 279 279 279 279 278 278 279 279 278 278 280 279
301 299 299 299 299 297 293 289 288 285 285 284 282 282 282 281 281 281 281 282 282 282 282 283 282 282 283 282 280 280 280 279 278 278 278 277 277 278 277 279 277 278 279
299 298 298 296 293 292 290 288 286 284 283 282 282 281 281 281 285 285 283 282 281 281 281 281 282 281 282 284 283 283 282 280 279 279 279 277 278 278 278 278 277 276 274
295 294 293 292 290 290 289 287 285 284 283 282 282 281 281 281 285 286 285 282 281 281 281 280 280 280 281 281 283 284 283 284 283 281 280 279 278 279 279 278 277 277 276
292 291 291 289 288 288 286 285 285 283 282 281 281 281 281 281 285 286 284 282 282 282 281 281 280 280 280 280 280 281 281 281 281 281 280 280 280 281 280 279 278 277 278
289 289 289 288 287 287 285 284 284 283 282 281 282 281 281 281 285 286 284 281 281 281 281 281 281 280 282 282 279 278 279 280 283 284 285 285 285 285 283 278 276 276 273
288 288 289 287 286 285 285 284 284 284 283 281 281 281 281 280 285 286 283 281 281 280 280 281 282 282 284 285 280 278 277 278 278 278 278 279 282 281 283 281 279 276 275
286 286 286 286 285 285 285 285 283 282 281 281 280 280 280 281 284 286 285 282 281 280 280 280 280 284 285 285 285 281 279 280 280 279 278 278 278 278 278 278 279 277 275
285 284 283 284 284 284 283 283 282 281 279 279 279 278 279 280 283 286 287 284 284 281 281 282 282 284 286 286 285 285 284 284 281 279 278 277 277 277 278 277 276 277 276
281 281 282 283 283 283 283 281 281 281 280 279 278 278 279 280 281 285 288 287 284 282 283 284 285 286 287 286 287 286 284 282 281 280 278 279 278 277 277 275 275 275 274
281 281 281 281 282 282 283 283 282 281 280 280 280 280 279 279 279 281 284 285 285 284 285 285 285 285 286 285 283 285 284 283 282 281 280 278 276 273 272 274 272 272 270
282 282 283 282 282 282 282 282 282 282 282 281 281 281 280 279 279 281 282 283 285 285 285 284 283 282 282 281 281 281 281 280 278 278 276 275 273 273 272 272 270 268 266
281 282 282 282 282 282 281 281 283 284 284 284 284 284 283 284 284 283 283 284 285 286 284 282 282 281 281 280 279 278 278 278 278 277 274 273 272 271 270 270 269 265 264
283 282 283 282 282 281 281 280 280 282 284 284 284 284 284 284 284 285 284 284 285 284 281 281 280 280 279 279 279 278 275 275 273 273 271 271 270 269 266 265 265 264 261
283 283 284 283 283 283 283 283 282 282 281 279 282 282 283 282 283 285 285 285 282 284 282 280 278 278 277 277 276 274 272 269 269 269 269 268 266 264 263 262 261 259 258
280 280 281 280 280 280 281 281 281 281 281 280 278 278 273 279 280 281 282 281 280 279 276 276 276 274 273 272 271 270 269 269 268 266 265 263 261 261 259 259 259 258 257
271 271 274 276 276 276 277 277 276 277 277 277 276 277 275 276 275 273 272 273 273 273 271 271 270 270 270 269 268 266 265 263 262 261 259 260 260 259 258 255 256 256 255
271 270 270 272 271 271 272 271 272 273 274 274 272 270 272 271 273 271 269 269 269 268 268 268 267 266 265 265 264 263 262 262 261 260 259 259 256 254 255 257 255 255 255
269 268 268 268 268 267 268 269 269 269 268 269 268 268 271 269 268 268 267 266 265 263 263 264 264 264 263 262 261 260 259 260 260 258 257 254 254 254 254 255 254 255 254
268 268 267 266 267 266 266 266 266 266 266 265 265 265 265 265 264 264 264 262 261 260 260 260 261 260 259 258 260 260 259 258 257 256 254 254 253 253 253 253 253 252 252
266 266 265 264 263 265 264 264 263 262 262 263 262 262 262 261 262 261 260 261 260 259 258 256 256 258 258 258 257 256 255 254 253 252 252 252 252 252 252 252 252 252 252
263 262 261 261 261 262 263 262 262 261 261 261 261 260 260 259 258 258 258 256 255 256 257 256 256 257 256 255 255 255 256 258 252 255 254 252 252 249 249 249 249 250 250
261 261 261 261 261 261 260 260 260 260 259 259 259 259 258 258 258 257 257 256 255 256 256 256 256 256 255 255 255 256 256 258 255 256 254 253 252 251 250 248 247 247 247

GFSGL_sfc_thetae_078.txt.gz
Theta_e
302 303 302 302 303 303 302 301 299 296 292 291 289 288 289 291 292 293 292 291 292 290 288 287 285 285 283 282 281 280 280 281 278 277 279 281 280 280 280 280 281 280 279
301 302 301 301 301 300 300 299 296 293 288 287 286 285 286 288 290 291 290 290 289 288 286 285 284 284 281 281 280 280 280 281 281 277 277 278 279 280 280 279 279 280 279
301 300 299 299 298 298 297 296 292 288 286 285 284 285 286 286 286 287 287 287 287 286 285 284 283 282 281 281 280 280 279 280 280 279 277 278 279 279 278 278 279 279 280
300 299 297 297 297 296 295 291 288 286 284 283 284 284 285 284 285 286 285 285 284 284 284 283 282 281 280 280 280 280 279 279 278 278 278 277 277 278 278 277 277 279 278
298 297 296 296 296 294 290 287 285 284 283 283 284 283 282 283 283 283 284 284 283 283 282 282 282 281 283 282 280 279 279 278 278 277 278 277 277 277 276 278 277 277 278
296 296 294 292 291 290 288 286 284 283 282 282 282 282 281 281 286 287 284 283 283 282 281 281 281 282 283 285 285 284 282 279 278 278 278 277 277 278 278 278 277 276 273
291 290 290 289 288 288 287 285 284 282 282 281 282 281 281 282 286 287 286 283 282 282 281 281 281 281 281 282 285 285 284 285 283 281 279 279 278 279 279 278 278 277 275
288 286 286 285 285 286 285 284 282 281 282 282 281 281 281 281 287 287 286 282 282 282 281 281 280 280 281 281 281 281 281 281 283 283 281 280 280 280 280 280 278 276 276
286 286 284 284 283 284 282 281 280 280 282 282 282 281 281 281 286 287 285 282 281 281 281 281 281 280 282 285 281 280 280 281 284 285 285 284 284 285 283 280 275 274 272
285 285 285 283 283 282 282 280 279 282 282 281 281 281 281 281 286 287 285 282 280 280 280 280 282 281 284 285 280 280 278 279 279 278 280 283 284 282 284 282 279 275 276
282 282 281 281 280 281 280 278 278 278 280 280 280 280 280 281 283 287 287 282 281 280 280 279 280 284 286 287 284 280 280 281 280 278 278 278 279 279 278 279 280 278 276
280 279 277 276 280 279 278 275 276 276 275 276 278 278 279 279 283 286 287 284 284 281 280 280 281 285 287 288 287 285 285 284 279 278 278 277 277 277 277 278 278 278 278
275 273 273 274 276 276 276 275 275 273 274 273 275 275 276 278 279 285 287 287 285 281 281 282 283 285 287 287 288 287 285 283 281 278 276 277 277 277 278 276 275 275 274
273 272 273 273 274 275 277 276 275 273 274 276 276 277 276 277 277 278 282 285 284 283 283 282 284 284 286 286 284 286 285 284 282 280 279 278 276 274 274 274 272 272 269
275 275 275 275 274 276 276 276 277 277 278 276 275 278 277 276 277 280 281 281 284 283 282 277 278 282 281 282 282 282 281 282 281 281 278 273 273 273 272 273 271 269 266
279 278 278 277 274 276 277 277 284 283 284 284 284 280 278 282 283 283 283 285 286 286 283 281 280 280 280 280 281 281 280 279 278 277 276 275 273 272 271 271 269 267 265
280 279 279 279 279 279 278 278 276 280 284 284 284 284 284 284 284 284 284 284 285 285 280 281 280 280 281 280 279 275 272 272 272 273 272 271 270 270 269 267 267 264 261
282 281 281 281 280 280 279 279 278 279 278 277 281 281 282 282 283 285 285 284 280 282 280 279 279 280 277 275 274 272 268 268 268 269 269 268 267 267 265 264 264 260 257
277 277 278 277 278 278 278 278 278 278 278 276 276 278 276 281 281 280 281 277 277 277 274 274 274 274 274 273 269 267 266 265 265 264 265 265 265 264 262 261 260 259 258
270 274 274 273 273 273 275 275 275 275 275 275 273 271 273 271 270 263 268 270 271 271 270 269 267 267 264 264 263 263 263 263 262 263 263 263 263 262 260 259 258 256 255
270 270 270 269 266 266 267 268 268 270 271 269 264 265 274 265 266 260 261 262 260 259 259 260 258 259 260 260 261 261 262 262 262 262 261 260 260 258 259 259 256 254 251
268 267 267 265 263 265 264 265 265 264 264 263 260 263 271 261 262 260 259 256 255 255 254 255 256 256 257 259 260 259 259 260 260 260 260 260 258 256 256 255 253 251 250
267 265 265 265 264 264 263 261 261 261 261 260 258 256 255 254 254 254 254 252 252 252 251 251 252 252 253 254 256 257 258 259 259 259 258 258 256 255 253 253 251 250 250
264 264 263 262 262 261 261 260 260 260 259 256 255 253 252 251 251 251 251 250 250 249 249 249 249 249 250 251 253 254 255 254 254 256 257 256 255 255 254 253 253 253 251
261 261 261 260 259 259 260 260 259 257 254 254 252 252 250 251 250 250 249 249 248 248 248 248 248 249 252 253 253 254 256 260 256 256 255 256 255 255 255 254 253 249 248
260 260 259 259 259 259 258 257 256 254 253 252 252 251 251 251 250 250 249 249 249 248 248 248 248 250 251 253 254 255 256 259 257 257 255 254 254 254 253 252 251 251 248

GFSGL_sfc_thetae_081.txt.gz
Theta_e
300 301 302 302 302 302 301 301 299 297 296 294 293 293 295 296 297 299 299 297 296 296 296 294 293 289 289 287 286 284 283 282 280 278 280 281 280 280 281 281 281 281 281
300 300 300 300 300 299 299 299 297 295 292 292 289 288 289 292 293 295 293 294 294 292 291 289 287 287 285 285 284 283 283 282 280 277 278 279 279 280 280 280 279 281 280
299 299 298 298 298 297 297 297 294 292 289 287 286 286 285 286 289 291 292 291 292 292 290 288 286 285 284 284 283 282 282 281 280 279 277 278 278 278 278 278 279 280 280
298 298 297 296 296 296 296 294 291 289 287 285 285 285 284 285 288 288 288 288 289 288 287 287 285 285 284 283 282 281 280 280 279 278 276 276 276 278 277 277 277 279 279
297 296 297 295 295 294 292 290 288 286 285 284 283 283 284 285 285 286 286 287 286 285 285 285 284 284 285 284 281 280 280 279 279 278 276 277 276 277 276 278 277 278 279
296 296 294 292 291 290 289 288 286 285 284 283 283 283 282 283 286 289 287 285 285 284 283 282 282 282 284 286 286 284 282 280 278 278 278 277 277 278 278 278 277 276 275
291 290 289 289 288 289 288 286 285 284 282 282 281 282 282 282 286 288 288 284 284 283 283 282 281 282 283 283 285 285 285 285 283 281 279 279 278 279 279 278 278 277 276
287 284 286 285 286 287 286 285 283 282 281 280 282 282 282 282 286 288 288 283 283 283 283 282 282 281 282 282 282 282 281 283 283 283 282 281 281 281 280 280 279 278 277
286 285 284 284 284 284 283 282 280 278 278 278 282 282 282 281 286 288 287 282 282 282 282 282 282 281 283 285 281 280 280 281 285 286 285 285 285 284 282 280 274 274 273
285 285 285 282 281 280 281 279 277 276 279 282 282 282 282 282 285 288 287 282 281 280 280 281 282 281 284 286 281 281 279 280 281 281 283 285 285 283 286 282 278 274 273
281 281 281 280 278 278 277 277 275 275 280 280 280 280 281 281 283 287 288 282 281 280 280 279 281 284 285 286 284 282 282 282 283 280 279 277 278 280 281 282 281 279 276
279 278 276 274 278 276 275 271 272 273 272 277 279 278 279 279 282 286 288 284 284 280 280 280 281 285 285 286 286 285 286 285 280 279 276 276 277 277 279 279 280 280 280
273 271 272 272 274 274 274 273 272 271 272 270 274 277 277 278 280 285 287 286 285 282 281 282 283 285 287 287 289 287 285 283 278 277 276 277 278 278 278 277 277 277 276
271 272 272 272 271 272 274 274 273 272 270 272 272 270 271 274 274 276 281 285 284 283 283 282 283 284 285 285 284 287 285 284 282 280 278 278 276 275 276 275 272 272 268
276 276 274 275 277 276 276 275 276 275 276 273 273 276 275 272 274 279 279 280 283 282 278 278 279 280 279 281 282 282 282 282 282 282 281 276 274 275 274 273 271 269 267
279 278 279 275 273 278 278 277 283 283 284 284 283 280 279 281 282 282 283 284 286 285 281 279 279 280 279 279 279 279 280 280 281 281 278 275 273 273 272 272 270 268 267
280 279 278 278 276 274 277 278 278 282 284 285 285 285 284 284 284 284 284 285 286 287 282 281 280 280 280 280 280 279 279 277 276 277 276 274 273 273 271 270 268 266 264
281 280 280 279 279 278 278 277 279 278 277 277 281 282 283 283 284 285 285 284 280 282 276 276 278 278 278 278 277 274 269 268 267 268 269 269 269 269 267 266 266 263 262
277 278 278 278 278 278 277 277 277 278 276 276 276 276 277 280 279 280 281 276 276 274 274 273 273 270 269 269 267 264 262 262 262 263 264 264 265 265 263 264 264 263 260
273 274 275 274 274 275 275 275 275 275 275 272 268 265 268 269 265 263 262 263 266 267 266 265 260 260 259 259 258 258 257 258 259 260 261 263 263 263 263 261 262 260 259
270 270 271 270 269 269 269 269 270 270 267 265 262 267 273 265 261 260 256 255 256 255 255 255 255 254 253 254 254 255 255 257 256 258 260 261 260 260 262 262 259 258 258
268 268 268 267 267 266 266 266 266 266 264 264 262 266 269 261 260 259 256 253 252 251 252 253 253 252 251 252 252 253 253 254 255 259 259 259 259 259 258 257 257 258 257
267 266 266 266 265 264 263 263 263 262 261 260 259 259 258 257 255 253 253 252 251 251 249 249 249 249 248 249 250 252 254 254 256 257 257 257 257 257 256 255 256 255 256
265 264 263 263 263 262 262 261 261 261 259 257 256 258 257 252 251 251 250 249 248 247 246 246 246 247 246 247 246 247 248 248 249 253 256 256 256 255 254 254 255 256 256
262 262 262 261 261 260 259 259 259 256 255 256 255 253 251 250 250 249 248 246 246 246 247 245 245 246 246 248 248 248 248 256 250 251 250 252 254 254 252 254 255 255 255
261 260 260 260 259 259 258 257 253 254 254 253 251 250 250 250 250 248 247 247 247 247 246 245 246 248 248 248 249 251 252 258 255 255 250 251 251 252 253 254 254 254 254

GFSGL_sfc_thetae_084.txt.gz
Theta_e
299 299 300 301 301 301 301 300 299 298 296 295 295 298 300 300 300 301 302 300 298 298 298 296 296 297 293 292 290 288 286 286 286 280 281 282 281 281 282 283 282 282 282
299 298 298 299 299 299 299 299 298 296 294 294 292 291 292 296 298 298 299 299 297 295 295 295 295 295 292 291 290 287 286 285 282 278 279 280 280 281 281 281 280 281 281
298 298 297 297 297 297 297 297 295 295 293 290 289 289 288 288 291 294 296 295 295 296 295 294 294 290 289 289 288 287 286 284 282 281 278 279 278 280 278 279 279 279 280
297 296 296 296 296 296 296 295 293 292 290 288 287 287 287 286 286 287 289 291 291 292 292 291 291 288 289 286 285 284 284 283 281 281 278 278 277 278 279 278 277 279 279
295 295 296 295 295 294 293 291 290 289 288 287 286 285 284 284 285 286 287 289 289 288 287 287 287 287 288 287 285 283 283 282 280 279 277 277 276 277 277 278 278 278 278
293 294 293 292 291 290 290 289 288 287 286 285 284 284 283 284 288 290 288 286 286 286 285 284 284 284 286 288 288 286 285 282 280 279 278 277 277 278 279 278 277 276 275
288 288 288 288 288 289 288 287 287 286 284 283 283 283 282 283 288 289 289 285 285 285 285 284 283 284 284 285 287 287 286 286 285 281 279 279 278 279 279 279 278 278 277
286 285 285 284 285 287 287 286 284 284 282 282 281 281 281 282 287 288 289 285 284 284 284 283 283 282 283 284 284 283 282 283 283 283 283 282 283 282 282 281 279 278 277
285 284 284 283 282 283 282 282 280 279 278 278 279 278 281 283 286 288 288 284 283 283 283 283 283 282 284 287 282 281 281 282 286 287 287 287 287 286 283 280 277 276 271
283 283 283 282 279 280 281 279 278 276 280 279 279 282 283 283 285 287 288 283 282 281 281 281 282 282 286 287 282 281 279 280 282 283 283 285 286 284 285 281 279 275 274
281 281 280 279 278 278 276 276 274 274 277 277 281 281 281 282 282 287 288 282 281 280 280 280 281 285 286 287 284 281 281 283 284 281 281 281 280 281 281 283 281 279 276
278 278 277 277 277 276 274 272 271 271 272 278 279 279 279 280 282 285 288 285 284 281 280 280 281 284 285 287 284 285 287 285 282 280 278 277 278 279 280 280 281 281 281
272 273 277 273 274 273 271 270 271 269 271 270 277 278 277 278 280 284 286 287 286 281 281 282 283 286 286 287 287 286 285 282 279 277 276 277 278 279 278 276 277 277 277
277 277 276 273 271 270 273 273 270 269 269 271 271 276 276 276 277 278 282 285 285 283 283 282 283 284 285 284 283 286 284 284 280 279 277 277 277 276 275 275 274 273 271
280 279 279 279 279 278 278 277 277 277 277 273 274 274 275 274 277 279 280 282 283 280 276 276 279 279 279 279 279 280 281 282 282 281 280 278 277 275 275 274 272 270 269
279 279 279 278 277 277 276 277 283 283 283 282 282 279 278 281 282 282 283 284 285 284 276 273 274 277 278 279 279 279 279 280 280 281 279 278 274 274 273 272 270 267 268
274 274 275 276 276 277 277 278 278 281 285 285 285 284 284 283 284 283 284 285 286 285 275 276 273 276 277 277 277 277 276 276 275 276 275 274 272 273 271 270 269 267 265
270 276 273 275 278 278 277 277 278 278 276 276 282 283 284 285 285 285 284 285 282 283 276 276 275 276 275 275 273 273 271 273 270 267 266 269 272 268 266 268 268 265 264
274 276 275 278 278 278 277 277 277 277 275 275 274 276 274 280 279 279 283 275 276 275 273 272 269 268 267 266 267 267 265 263 261 260 261 262 265 264 262 265 265 265 264
272 276 276 276 276 276 276 276 275 274 273 271 270 269 269 269 267 265 265 269 271 270 268 267 265 260 261 259 259 258 258 259 259 259 259 261 262 263 262 261 263 262 260
268 271 272 271 271 271 272 272 272 271 269 267 267 270 274 266 264 263 262 261 261 260 260 258 256 254 253 252 253 253 254 255 254 255 256 258 260 258 260 262 260 260 259
268 266 266 269 269 268 267 268 267 267 265 265 264 265 269 263 262 260 259 256 252 251 251 253 253 251 251 251 251 251 252 252 252 255 256 256 257 258 258 258 257 259 257
264 264 265 265 266 266 265 265 265 264 262 262 262 261 260 259 258 258 254 251 251 252 251 250 249 250 247 247 247 249 251 251 253 255 254 254 255 256 256 256 256 255 256
265 265 265 264 264 264 263 263 263 262 261 260 259 259 258 257 256 253 253 253 251 251 249 246 246 246 246 245 244 244 244 245 245 247 248 250 250 253 254 254 256 255 255
263 262 262 262 262 262 261 260 260 259 259 259 258 257 256 255 255 254 252 248 248 247 248 247 244 245 245 245 245 245 245 253 247 247 245 247 248 247 247 249 252 253 255
261 261 261 261 260 260 260 260 259 258 258 257 255 254 255 255 252 249 249 250 252 251 249 246 245 245 245 246 247 250 251 256 252 251 245 245 246 247 248 250 253 253 254

GFSGL_sfc_thetae_087.txt.gz
Theta_e
298 298 298 299 300 300 300 300 299 298 297 296 297 299 301 302 303 303 304 303 300 301 299 298 298 299 297 294 292 291 291 291 291 285 283 283 282 283 283 284 285 284 284
297 298 298 298 298 298 298 298 297 297 295 295 293 294 297 299 299 300 300 300 298 297 297 296 296 296 295 294 291 290 289 290 291 287 280 281 282 282 283 283 283 283 282
296 297 297 296 296 296 296 296 295 295 294 292 291 290 290 293 296 296 297 297 298 298 297 294 295 294 293 293 291 290 288 288 288 282 279 280 280 281 280 282 281 280 281
294 295 295 295 295 295 295 294 294 293 292 290 289 289 288 288 288 290 291 292 292 293 293 293 293 292 292 290 289 288 286 285 284 284 280 279 279 279 280 279 278 279 279
291 292 293 294 293 294 292 291 291 290 289 289 288 287 287 286 286 286 287 288 290 290 289 290 290 290 290 290 288 286 285 285 283 282 279 278 277 277 277 278 278 278 279
288 288 288 288 288 289 289 289 288 288 287 287 286 286 285 285 289 291 288 286 287 287 287 286 287 286 287 291 291 290 287 285 283 282 279 278 278 278 279 278 278 277 276
284 285 285 286 285 287 287 287 287 287 286 285 285 285 284 284 289 290 290 286 286 286 286 286 285 285 285 286 289 290 288 290 287 283 280 280 278 279 279 278 278 279 278
284 284 284 284 284 285 285 286 284 284 282 282 282 282 282 283 288 289 289 287 285 285 285 285 284 283 284 284 285 284 284 285 285 284 283 282 281 281 282 282 281 280 278
283 283 283 282 282 283 282 282 281 278 278 278 279 278 277 280 287 288 288 285 284 283 284 284 283 283 284 287 284 282 281 282 286 286 285 286 287 287 284 281 278 276 275
282 282 282 281 279 280 281 280 278 275 278 278 279 276 276 277 286 287 287 285 283 282 282 282 283 282 285 287 283 281 280 281 283 283 285 286 287 286 286 283 280 276 274
279 279 279 278 277 278 277 275 273 273 275 273 275 276 281 282 283 286 288 284 283 281 280 280 282 285 286 288 285 282 282 282 284 283 282 282 282 282 282 282 281 279 273
277 276 275 275 275 276 270 272 271 270 271 271 274 278 279 280 282 284 286 288 285 281 280 281 281 285 287 288 284 285 286 284 283 281 280 280 280 280 281 281 282 281 281
270 273 276 275 274 272 270 272 270 267 268 269 274 277 278 279 280 283 285 288 286 282 282 282 283 285 286 287 285 286 284 282 282 279 279 278 279 280 280 279 278 278 278
274 274 273 274 275 274 279 278 276 276 274 276 276 277 277 277 277 279 282 284 285 283 283 282 283 284 285 285 284 285 284 282 279 279 279 278 278 277 277 277 275 273 272
276 278 279 280 279 277 275 273 274 276 278 276 276 276 276 277 278 280 281 283 283 282 279 279 279 279 280 281 279 281 283 282 280 280 279 278 277 277 276 275 275 273 270
270 275 276 274 272 273 272 273 282 283 283 283 283 280 279 281 284 283 283 285 285 284 277 276 276 277 277 278 278 277 277 278 278 277 280 279 278 274 270 270 270 269 269
266 270 276 275 270 270 272 271 270 278 285 285 285 284 284 284 284 284 284 285 286 283 276 275 275 275 275 275 274 277 276 273 271 271 271 270 275 275 274 271 268 268 267
264 268 273 274 272 271 272 276 276 274 276 276 281 281 283 283 285 284 284 284 282 282 275 275 274 276 276 275 274 271 270 270 271 272 273 274 276 275 272 268 267 265 265
267 275 278 273 272 274 274 277 276 274 275 275 274 276 274 278 279 279 281 276 275 274 273 272 271 271 271 271 271 272 273 272 271 269 266 261 261 266 263 264 265 265 264
267 272 273 272 272 271 271 275 276 275 272 271 270 269 270 271 269 268 268 269 270 268 268 267 266 265 265 265 265 264 264 263 260 258 258 258 259 261 261 260 262 261 260
265 268 272 270 268 268 269 267 269 272 270 269 268 273 274 266 264 264 263 262 262 262 262 262 260 259 257 257 258 258 259 256 254 254 254 255 257 258 259 261 259 259 259
263 265 268 269 269 269 267 267 267 267 266 266 263 265 269 262 260 259 259 258 257 256 255 257 256 253 253 253 254 255 252 252 250 251 253 255 256 255 257 257 257 259 257
264 265 266 266 266 267 266 265 265 264 263 262 262 261 260 259 258 256 256 254 255 253 254 254 252 252 250 250 250 249 251 250 250 250 251 251 252 252 252 254 255 254 255
264 264 264 264 265 264 264 263 263 262 262 261 260 259 258 258 257 256 255 254 254 254 254 254 254 253 253 250 247 245 244 245 243 245 245 246 247 247 250 252 254 255 256
262 263 263 263 262 262 262 261 261 260 260 260 259 258 257 256 255 256 256 255 256 256 256 255 253 251 251 250 247 245 245 251 246 245 243 244 245 244 244 245 247 249 252
260 260 261 261 261 261 261 260 260 260 259 259 258 257 255 255 256 256 255 255 256 255 254 253 252 250 249 247 246 249 250 255 251 250 244 243 244 243 243 245 246 247 250

GFSGL_sfc_thetae_090.txt.gz
Theta_e
296 296 297 297 298 298 298 299 298 298 298 297 297 297 297 298 302 303 304 304 302 302 302 301 300 301 299 297 296 295 294 293 291 292 284 284 284 284 284 285 286 285 286
295 295 296 296 296 296 297 297 297 297 295 295 294 295 297 299 300 301 301 302 301 300 300 298 298 298 297 297 294 292 292 292 292 290 282 281 282 284 284 283 284 285 284
293 293 294 294 294 295 295 295 295 294 294 293 292 291 293 295 297 298 299 299 299 299 298 295 297 295 295 295 293 292 292 291 290 290 282 281 281 282 281 282 283 283 284
290 291 291 292 292 293 293 293 292 292 292 291 290 290 289 290 291 292 292 294 295 295 295 294 295 294 294 293 292 291 290 288 287 287 281 280 280 281 281 280 279 280 280
287 288 288 288 289 289 289 289 289 289 289 289 288 288 287 288 288 289 289 290 290 291 290 291 291 291 291 293 291 289 287 287 285 285 280 279 278 278 278 280 279 279 279
285 285 285 285 285 285 286 287 287 287 287 287 287 286 286 286 290 292 290 287 287 287 288 288 288 287 288 292 293 293 289 287 285 285 283 280 279 278 279 279 278 277 275
283 283 283 283 283 284 284 285 285 285 285 285 285 285 285 285 290 291 291 286 285 285 286 287 286 286 286 286 290 292 291 291 290 286 284 282 279 280 280 278 278 278 278
282 282 282 282 282 283 283 283 283 283 282 282 282 282 281 283 289 290 290 284 284 285 286 286 286 285 285 285 285 286 286 286 288 286 284 283 283 282 282 281 280 279 279
282 282 281 280 279 280 280 281 281 278 279 277 279 278 276 280 286 288 288 283 285 285 285 285 285 284 286 288 284 284 283 283 287 287 287 287 287 285 283 281 279 278 276
281 281 280 279 275 277 278 279 277 274 279 278 279 276 279 280 284 287 287 285 284 284 283 283 283 283 285 287 285 283 281 281 282 283 283 286 286 285 286 284 281 278 276
279 279 279 277 275 276 276 275 272 274 275 272 274 274 274 281 283 286 287 285 284 283 282 281 282 285 286 287 287 283 282 283 285 284 283 283 283 283 283 282 282 280 277
277 276 275 274 276 275 268 270 269 268 271 272 270 275 277 279 281 284 285 287 287 283 281 281 281 284 286 287 287 285 287 285 283 282 281 280 280 281 281 281 281 280 280
273 274 273 274 275 273 269 273 269 266 266 270 270 273 275 276 276 282 284 286 287 283 282 282 284 284 286 286 287 286 285 282 281 280 280 279 280 280 280 280 280 279 279
275 274 276 274 276 273 275 274 268 270 269 271 272 273 272 272 273 274 277 279 284 283 283 282 283 284 285 285 284 285 283 283 282 280 279 279 279 278 277 277 276 275 275
272 273 274 276 275 276 274 273 273 273 273 268 268 268 267 270 273 279 278 278 282 282 279 279 279 280 280 280 281 282 282 281 280 280 279 278 277 276 276 277 275 273 273
268 270 272 273 277 276 271 272 280 283 284 284 284 281 274 281 284 285 284 284 285 284 278 277 277 278 278 279 279 279 280 281 280 279 278 277 276 276 276 273 273 272 271
263 267 269 271 276 276 269 269 269 275 284 285 285 285 285 285 284 284 284 285 286 282 277 277 277 277 277 277 278 278 277 277 277 277 276 276 277 276 275 274 273 271 268
261 264 267 273 276 273 270 269 267 268 268 269 277 279 280 282 283 285 285 284 283 280 277 276 276 276 276 276 275 275 274 273 274 273 274 275 276 275 272 273 271 264 263
262 265 271 275 276 272 269 270 270 270 270 267 267 274 274 278 279 278 278 275 274 272 271 269 269 270 270 270 270 270 270 269 270 270 269 268 267 267 267 265 265 265 263
262 265 269 270 274 271 267 271 272 272 270 268 267 266 266 269 269 266 266 268 267 266 266 265 265 264 264 264 265 265 265 265 265 264 263 263 263 263 262 261 261 261 259
263 264 267 267 267 267 269 270 273 272 269 267 265 269 272 264 263 263 261 260 261 261 262 262 261 261 260 260 261 261 260 260 259 259 259 258 258 258 257 259 256 255 256
264 265 265 264 266 267 266 266 268 269 268 265 263 266 267 261 260 260 258 257 256 256 256 257 256 256 256 256 256 257 258 256 256 256 257 257 258 254 254 254 254 255 255
264 264 265 265 265 266 265 265 265 265 264 263 263 261 260 258 257 256 254 252 252 252 253 253 253 253 252 253 253 254 255 255 255 254 255 254 252 251 250 250 251 251 251
262 263 263 264 265 265 264 263 263 263 263 262 261 260 259 258 256 254 252 253 251 251 251 253 254 254 253 252 252 251 251 250 248 251 252 250 247 246 247 247 249 250 251
261 261 261 261 262 262 262 261 262 261 261 261 260 259 259 258 258 256 255 253 253 253 252 253 252 251 250 250 249 249 250 253 247 246 242 244 245 243 243 244 245 245 248
259 259 259 260 260 260 260 260 260 260 260 260 260 259 258 258 258 256 255 255 255 254 253 252 251 251 249 249 248 250 252 256 250 249 243 243 243 241 240 242 242 244 246

GFSGL_sfc_thetae_093.txt.gz
Theta_e
296 297 298 298 299 300 301 301 302 302 302 301 302 302 303 304 306 306 306 304 303 303 302 302 302 303 301 300 299 298 296 296 293 296 288 286 285 286 286 288 288 289 290
294 295 296 296 296 297 297 298 298 299 299 299 298 298 299 300 301 303 303 303 303 302 302 301 301 301 300 300 297 296 296 296 294 292 288 283 284 285 285 285 286 287 288
291 292 292 292 292 293 294 295 295 296 296 296 295 295 295 296 299 300 301 301 301 302 301 299 299 297 296 296 296 295 294 294 293 292 291 283 283 284 283 283 284 285 285
289 289 289 289 289 290 291 291 291 292 292 292 292 292 292 292 292 293 293 296 298 299 298 296 296 295 295 294 294 293 293 291 290 290 289 281 281 281 282 281 280 282 282
287 287 287 287 288 288 288 288 288 289 289 289 289 290 290 289 289 290 290 292 292 293 291 292 292 292 292 294 292 291 290 289 289 287 285 281 280 279 279 280 280 280 281
286 285 285 285 285 286 286 286 287 287 287 288 288 288 288 287 290 292 292 289 289 289 290 290 290 288 289 292 294 294 292 289 288 287 287 283 282 281 281 280 279 278 277
285 284 284 284 283 284 284 285 285 285 286 286 286 286 286 287 290 291 291 289 288 288 288 288 288 287 287 289 290 292 293 293 293 289 287 286 284 281 281 280 280 280 280
283 282 282 282 282 283 282 283 282 283 283 283 284 284 283 285 288 290 290 288 287 287 286 287 287 287 286 286 286 286 287 288 290 290 288 287 286 284 283 283 282 282 281
282 282 281 281 279 279 278 280 281 280 281 280 282 281 280 281 286 287 288 286 286 286 286 286 286 286 287 288 286 284 285 286 289 291 289 288 288 287 285 283 280 280 278
281 281 280 279 276 276 278 278 279 277 279 279 280 280 277 279 284 287 287 286 285 285 285 285 284 285 286 287 285 285 283 284 284 284 285 286 287 286 286 284 282 280 279
279 279 279 278 276 277 276 276 275 275 275 276 276 277 277 277 280 285 287 286 285 285 285 284 284 285 286 287 288 285 284 284 285 284 283 284 284 284 284 284 284 283 280
277 276 276 275 276 277 270 273 272 271 272 274 273 276 278 278 280 283 285 286 287 285 285 284 283 284 285 286 287 288 287 286 284 284 283 282 282 282 282 283 283 283 283
277 274 273 274 276 276 273 275 274 273 272 274 274 275 276 278 278 281 282 284 285 285 284 283 285 285 285 285 287 288 285 284 283 282 282 281 282 282 282 281 281 282 281
273 272 272 272 275 273 275 275 273 274 274 275 274 275 275 276 277 277 278 279 282 284 283 282 283 284 284 285 284 285 284 283 282 282 281 280 281 281 280 280 279 278 278
269 271 273 274 274 276 277 276 276 277 278 277 277 277 276 276 276 283 284 280 283 282 280 280 280 280 282 282 283 283 283 282 282 282 281 279 279 279 278 279 278 277 277
265 269 270 270 272 274 277 277 279 282 284 284 285 284 282 281 285 284 284 284 285 283 280 279 279 279 280 280 280 281 282 281 281 281 280 280 279 278 277 276 276 276 276
261 264 267 268 270 275 277 273 274 276 283 285 283 282 283 283 285 285 284 285 286 282 278 279 279 279 279 279 280 280 278 277 280 280 280 279 279 278 276 275 275 274 273
259 262 264 266 270 275 277 273 272 274 273 275 277 280 280 281 281 282 285 282 281 278 277 276 276 276 275 276 276 276 276 276 275 275 275 275 276 276 275 274 274 272 271
260 263 264 267 271 273 275 274 272 272 272 270 268 274 274 277 277 277 277 274 273 271 270 269 270 270 270 270 271 271 271 270 270 270 269 269 270 272 270 269 269 268 268
261 263 265 266 268 271 275 273 273 272 271 269 269 270 271 270 267 266 266 267 267 267 267 266 266 266 266 267 267 268 267 266 266 266 266 266 266 268 267 266 267 267 266
261 263 264 266 267 269 270 271 272 272 270 268 266 270 272 266 264 263 263 262 263 264 264 263 262 262 262 263 264 264 264 263 263 263 263 263 263 263 264 265 264 263 263
262 263 264 264 266 267 268 269 270 270 268 266 264 266 268 263 262 261 260 259 258 257 258 259 258 258 258 259 261 262 261 261 260 261 261 261 261 261 262 262 262 261 260
261 262 263 264 264 266 266 267 267 267 266 265 264 263 262 261 261 259 259 257 257 256 255 255 255 255 255 255 256 259 259 259 259 259 260 260 260 259 259 260 259 258 258
260 261 262 262 263 264 264 264 264 264 264 263 262 262 261 260 260 259 258 258 257 256 256 256 255 256 255 255 255 255 255 256 255 256 257 257 256 256 256 255 256 255 256
259 259 260 261 261 261 261 262 262 262 262 262 261 261 260 260 260 259 258 258 257 257 256 256 255 255 254 253 253 253 253 257 252 251 250 252 252 251 250 252 252 253 253
257 258 259 259 259 260 260 260 260 261 261 261 261 261 260 260 260 259 259 258 258 258 257 256 255 254 254 253 253 253 253 256 252 250 249 250 250 249 249 250 248 251 252

GFSGL_sfc_thetae_096.txt.gz
Theta_e
303 304 304 304 304 305 306 306 306 307 308 308 309 310 310 310 311 310 310 309 306 307 305 304 304 305 303 302 301 300 300 298 295 299 296 292 288 287 288 288 290 290 291
299 299 299 299 300 301 301 302 303 303 304 304 304 305 306 306 307 307 306 307 306 304 304 302 303 303 302 303 302 299 298 299 297 295 297 288 287 287 287 286 287 288 288
296 296 296 295 296 296 297 297 298 298 300 300 300 300 301 301 301 302 302 302 303 304 304 302 302 301 299 300 299 298 298 297 296 294 295 285 286 285 284 284 285 286 287
294 294 293 293 293 293 294 294 294 295 295 296 296 296 296 296 295 295 294 297 298 300 300 300 300 298 297 297 296 296 295 294 294 293 292 289 283 283 284 283 282 284 284
293 292 291 291 291 292 291 291 292 292 292 293 292 293 294 294 292 294 292 293 293 294 294 294 294 293 292 295 294 294 293 292 292 290 290 285 282 280 281 283 282 282 282
291 289 289 289 289 289 289 289 290 290 291 291 291 291 291 290 291 292 292 291 291 290 290 291 291 288 289 291 293 294 294 290 288 290 289 289 287 285 285 282 281 279 277
289 288 287 287 287 288 288 288 288 288 289 289 289 290 290 291 290 290 290 290 290 290 290 289 289 289 288 290 291 292 292 293 294 291 288 289 288 287 284 282 281 280 281
287 286 286 286 285 286 286 286 286 287 286 286 287 287 287 288 288 289 289 290 290 290 291 290 290 289 290 288 288 287 288 288 289 290 291 291 290 287 285 284 283 282 282
286 285 285 284 283 283 283 284 285 285 285 285 285 285 285 285 287 287 288 289 288 288 289 290 289 289 289 289 287 286 286 286 289 290 292 293 291 289 286 284 281 280 280
284 284 284 284 282 282 284 283 284 283 283 283 284 285 284 283 285 286 287 288 286 287 288 288 286 286 287 288 286 285 284 286 286 285 286 288 290 288 288 285 284 281 282
283 283 283 283 281 282 283 283 282 282 282 281 282 283 283 284 283 285 286 286 286 285 285 285 287 287 287 287 288 286 285 286 286 285 285 285 285 285 285 285 285 285 282
282 282 281 280 281 282 281 282 282 282 281 282 282 283 284 284 283 284 284 285 286 285 285 286 286 286 286 287 286 287 288 288 285 284 284 284 284 284 284 284 285 285 285
277 277 278 278 279 280 280 281 282 283 282 282 282 282 282 283 283 283 282 284 284 284 285 285 285 285 285 285 285 285 285 285 285 284 284 284 284 284 284 283 283 282 282
273 275 277 277 278 279 280 281 281 282 282 281 281 280 280 281 282 283 284 284 283 285 285 285 284 284 284 284 284 285 285 285 285 284 284 283 283 283 282 282 280 280 279
271 273 275 277 277 277 279 280 280 281 282 281 282 281 280 281 282 284 285 284 284 284 282 284 283 283 283 283 284 284 284 284 283 284 283 282 281 281 280 281 280 280 279
268 272 273 272 274 275 277 279 282 282 283 285 285 284 284 284 285 285 284 284 285 283 283 282 281 281 281 282 282 283 283 283 283 284 283 282 281 280 279 278 279 279 278
265 267 270 270 272 273 275 278 277 280 282 284 283 282 282 282 282 283 285 284 285 283 282 281 281 280 280 281 281 281 280 280 281 282 282 281 281 279 279 277 277 276 275
263 265 267 270 271 272 274 277 278 277 277 280 282 281 280 281 280 281 283 284 282 280 279 279 278 278 278 278 278 279 278 278 277 277 277 278 279 278 277 276 275 274 274
264 267 268 269 270 271 272 274 277 277 278 279 279 278 277 277 278 276 277 280 279 276 275 274 274 274 274 275 275 274 274 274 274 274 273 273 274 275 273 273 272 271 271
265 265 266 267 269 270 272 274 276 277 278 278 277 277 276 274 276 273 272 273 273 272 272 271 270 271 271 271 272 272 272 271 271 271 270 270 271 272 270 270 270 270 269
264 265 265 267 269 270 271 272 274 275 277 277 275 274 273 273 271 269 268 268 268 269 268 268 268 267 268 268 269 269 269 269 268 268 268 268 268 268 268 268 268 267 267
265 265 266 266 268 269 269 270 272 273 275 273 271 271 269 269 268 267 265 264 263 263 264 265 265 264 263 264 265 267 266 265 266 266 266 265 266 266 266 266 266 265 264
264 264 265 266 267 267 268 269 270 271 271 270 269 268 267 266 265 264 263 262 262 262 261 262 262 261 261 261 261 262 263 263 263 263 264 264 264 264 264 264 263 262 262
263 263 264 265 265 265 266 267 267 267 267 267 267 266 265 265 264 263 263 262 262 261 261 260 260 260 260 260 260 260 260 260 260 260 260 261 261 260 261 261 261 260 261
262 262 262 263 263 263 264 265 265 265 265 265 265 265 264 264 263 263 262 262 261 261 261 260 260 259 259 259 258 258 258 260 258 256 257 258 259 258 257 258 259 259 259
260 261 261 261 261 262 262 262 263 263 263 264 264 264 263 263 263 263 262 261 261 261 261 260 260 259 258 258 258 258 257 258 256 253 256 257 257 257 256 257 256 257 257

GFSGL_sfc_thetae_099.txt.gz
Theta_e
304 304 304 304 305 306 306 306 306 307 307 307 308 309 309 310 311 309 310 310 308 308 307 306 306 307 306 305 303 302 300 300 296 300 301 297 293 292 290 289 291 291 292
300 300 300 300 301 301 300 301 302 302 304 303 303 304 305 305 306 306 306 305 305 305 305 304 304 304 303 304 302 300 300 300 299 296 299 294 291 290 291 288 288 289 289
298 297 297 296 296 296 296 296 297 297 298 299 299 298 298 298 299 300 300 300 300 302 302 301 302 302 299 300 301 301 300 299 298 296 296 291 289 286 286 286 286 287 288
296 295 294 294 294 294 294 294 294 294 294 294 295 294 294 294 294 293 293 294 295 297 298 299 299 298 297 297 296 297 296 295 294 294 294 294 287 284 285 284 285 285 285
294 293 292 293 293 293 292 292 292 291 292 292 291 292 292 293 290 291 290 292 291 292 293 293 293 293 291 293 294 294 292 292 292 291 291 292 286 281 282 284 284 287 284
292 291 291 291 290 290 290 289 290 290 290 290 290 290 290 289 292 291 291 290 290 289 289 290 291 289 290 291 293 293 293 290 288 289 290 290 290 288 286 285 284 280 281
290 288 288 288 287 288 288 288 288 288 289 288 289 289 288 289 290 290 289 288 289 289 289 289 289 289 288 289 290 291 291 292 293 290 288 289 289 290 288 285 283 283 283
287 287 286 286 286 287 286 286 287 287 287 286 287 286 286 287 289 289 288 287 288 289 289 289 289 288 288 287 287 287 287 288 288 288 288 289 290 290 289 288 286 284 282
286 286 285 285 284 284 283 285 286 285 285 285 285 285 284 285 287 287 287 286 286 287 287 288 288 287 289 289 286 286 286 286 289 290 291 291 291 292 291 286 283 281 279
285 284 285 284 283 282 284 284 285 284 284 284 284 285 284 284 286 287 286 285 284 285 286 286 286 286 288 288 286 285 284 285 286 286 286 287 288 287 290 286 285 281 281
284 284 284 283 282 283 283 284 283 283 283 283 283 284 284 284 284 286 286 284 284 283 284 284 285 287 287 287 287 285 284 286 286 285 285 285 285 285 284 285 285 284 283
280 281 280 280 281 282 281 282 283 283 283 283 283 284 285 284 284 285 285 285 285 283 283 284 285 286 286 286 285 286 286 286 285 284 284 284 284 284 284 284 284 284 284
274 274 277 278 279 280 280 280 281 283 283 283 283 282 283 283 283 285 285 285 286 284 283 285 286 285 286 285 285 285 284 285 284 283 283 283 283 284 284 283 283 281 280
272 274 276 277 278 279 281 281 282 281 281 281 281 281 281 282 282 283 284 285 284 284 285 284 284 285 285 284 284 285 284 283 283 283 282 282 282 282 282 282 280 279 277
271 273 275 277 277 277 278 279 280 281 281 279 280 282 281 281 283 284 285 284 284 284 282 282 282 282 282 282 282 283 283 283 283 283 283 282 281 281 280 281 280 280 277
269 273 273 272 274 275 276 277 281 283 283 283 284 284 285 284 284 284 285 286 285 285 282 280 280 280 280 280 280 281 281 281 281 282 281 281 279 279 278 279 280 279 276
266 268 270 271 272 273 274 274 274 279 282 283 284 285 285 283 283 283 283 284 286 284 281 280 279 279 279 279 279 279 278 279 280 280 280 280 279 279 278 277 277 277 275
263 265 267 269 271 272 272 273 274 274 275 277 282 283 284 283 282 282 282 282 282 282 280 278 278 277 277 277 277 277 277 276 275 276 276 277 277 278 277 276 275 275 274
265 267 268 269 270 270 270 271 273 274 276 277 279 281 280 282 281 281 279 278 279 279 277 276 275 275 274 275 275 274 272 270 270 270 271 272 273 274 272 272 271 270 271
266 265 266 267 268 269 271 271 272 273 274 276 278 279 280 276 276 277 274 274 275 274 273 272 271 271 271 271 271 271 270 269 268 267 267 267 268 268 269 268 269 269 269
265 266 266 266 268 269 270 270 271 272 272 274 276 277 276 273 275 272 271 269 269 269 269 269 269 268 268 268 269 268 266 266 264 264 264 263 263 263 264 265 265 264 264
265 266 266 266 267 268 269 269 268 270 271 272 274 272 271 270 270 269 267 266 265 265 265 265 265 264 263 263 263 265 263 262 264 264 263 261 262 261 261 262 261 261 260
265 265 265 266 266 267 267 268 268 269 269 270 270 269 269 268 267 266 265 264 264 263 262 263 263 262 261 261 261 261 261 261 260 261 261 260 260 259 259 258 258 257 257
264 264 264 264 265 264 265 266 266 266 267 267 267 267 266 266 266 265 264 264 263 263 262 261 261 260 261 261 261 260 260 259 259 259 257 257 257 257 257 255 255 254 255
262 262 262 262 262 263 263 264 264 265 265 266 265 265 265 265 265 264 264 263 262 262 262 261 261 261 261 259 259 258 259 259 258 256 255 255 255 254 252 252 252 252 252
261 261 261 261 261 262 262 262 262 263 263 264 264 264 264 264 264 264 264 263 262 262 261 261 261 260 259 259 259 260 259 260 257 256 255 254 253 251 250 249 249 250 250

GFSGL_sfc_thetae_102.txt.gz
Theta_e
297 298 297 298 298 298 298 298 298 299 300 300 300 301 301 302 302 302 303 304 304 305 306 305 306 306 307 306 304 304 302 301 298 302 302 300 296 295 294 292 292 292 293
296 295 295 295 294 294 294 294 294 295 296 296 296 296 296 297 297 297 297 297 299 299 300 301 301 303 302 304 304 302 301 302 299 297 300 299 293 293 293 291 291 290 290
294 293 292 292 292 291 292 292 292 292 292 292 292 292 292 292 293 293 293 293 294 295 296 296 297 299 297 298 299 300 300 300 299 297 297 299 292 288 289 287 288 289 289
292 291 290 290 291 291 291 290 290 290 290 290 290 289 289 289 289 287 288 290 292 293 293 293 294 293 293 294 294 294 295 294 295 294 294 295 295 286 285 286 288 286 288
290 290 289 289 290 289 288 288 288 287 288 287 287 287 287 288 287 286 286 288 289 289 289 290 290 290 289 291 291 291 290 290 291 290 290 291 291 284 284 286 285 288 288
288 287 287 287 286 285 285 285 285 285 285 285 285 285 284 285 290 291 289 284 285 286 287 288 289 288 289 290 291 292 292 289 287 288 288 287 288 289 286 287 287 285 285
285 284 284 284 284 284 284 284 284 284 284 284 283 283 283 283 289 290 289 284 284 284 285 286 287 288 288 287 288 290 289 290 291 289 287 287 287 288 288 288 286 286 286
284 283 283 283 282 283 283 283 283 283 282 282 282 282 282 283 288 288 288 284 283 283 284 285 285 286 285 285 285 286 286 286 286 286 287 287 287 288 287 287 287 287 285
283 283 282 281 280 281 278 281 281 279 279 278 281 279 279 281 286 287 286 283 283 284 285 286 286 285 287 288 285 284 284 285 288 289 290 290 290 290 290 287 284 284 282
282 282 282 280 276 276 279 278 279 277 281 281 281 277 277 278 285 287 286 282 282 283 284 285 285 285 287 288 285 284 282 283 284 285 286 287 287 286 288 286 285 282 281
280 280 280 279 276 276 276 276 274 275 277 273 277 278 277 278 280 286 287 282 281 282 282 282 284 286 287 287 287 284 283 285 285 284 284 284 283 282 282 284 285 284 281
276 276 273 271 274 276 270 271 272 272 277 281 282 282 277 277 282 285 286 286 285 283 282 282 283 286 286 286 285 286 286 285 283 283 282 279 279 281 281 283 284 282 282
267 266 267 268 270 271 269 269 270 271 280 280 281 281 282 283 283 285 285 285 286 284 284 284 286 285 285 284 285 285 283 283 282 281 279 279 280 281 281 277 277 277 278
263 265 267 267 267 267 271 272 269 270 272 279 279 279 280 281 282 282 283 283 284 284 284 283 283 284 284 284 283 284 283 282 281 280 280 279 281 279 275 276 276 277 275
264 267 267 268 265 269 271 271 272 273 275 278 280 280 279 279 282 285 284 283 283 284 284 281 281 281 280 280 281 281 281 281 280 281 281 280 277 274 274 275 276 277 275
264 266 266 266 265 269 269 271 277 279 281 283 284 283 282 284 285 286 285 284 284 285 281 280 279 279 279 279 278 279 279 279 279 280 280 279 276 274 274 274 276 276 275
259 262 263 265 265 265 265 267 269 272 277 279 281 282 284 284 285 285 284 284 284 284 279 278 279 278 278 278 277 277 276 277 277 277 275 276 274 273 273 275 276 274 273
254 260 258 261 262 262 262 264 266 267 269 271 276 280 282 283 284 284 284 283 276 279 279 278 277 277 276 275 275 274 275 273 268 270 270 271 273 273 273 272 273 273 272
256 257 257 258 259 261 262 264 269 270 271 272 274 277 279 282 283 283 282 278 275 276 274 275 274 273 271 272 273 271 268 266 264 263 263 264 266 268 266 266 267 268 268
254 259 259 257 258 259 261 266 268 268 269 270 271 271 275 273 268 271 271 270 270 272 272 271 270 270 270 269 269 267 267 264 262 263 262 259 259 261 262 262 264 264 264
255 256 260 257 257 258 259 261 264 265 266 267 269 271 277 270 269 269 267 266 266 266 267 268 268 267 266 266 265 264 264 262 259 259 258 259 260 260 261 262 261 261 259
254 256 256 255 257 259 259 259 261 264 266 266 267 268 273 264 265 266 266 264 264 264 264 264 264 263 262 262 262 261 261 260 260 259 259 259 258 259 259 259 258 257 256
255 255 255 255 256 258 257 256 260 260 263 261 262 264 259 260 262 263 264 264 263 263 263 262 262 262 262 262 261 260 258 258 258 258 257 257 256 255 254 255 253 253 253
254 254 254 254 254 254 254 255 256 259 260 259 258 258 258 258 260 261 262 263 263 263 262 262 262 261 261 261 260 259 257 257 257 255 256 256 253 252 252 250 251 250 251
252 253 253 253 252 253 255 254 255 255 256 257 259 257 257 258 261 261 262 263 263 262 262 262 262 261 261 260 259 258 259 260 257 257 255 254 253 251 248 248 248 248 249
253 252 252 252 252 251 251 253 254 255 256 257 257 257 257 258 260 262 261 262 263 262 262 262 262 261 261 260 260 261 260 261 258 258 254 254 252 249 246 246 246 246 246

GFSGL_sfc_thetae_105.txt.gz
Theta_e
295 295 295 294 294 295 294 294 295 295 295 295 296 296 296 296 296 296 296 296 296 298 299 300 301 303 303 304 304 304 303 303 299 301 303 301 298 297 297 296 296 296 296
292 292 292 292 292 291 291 291 292 292 292 292 292 292 292 293 293 293 292 292 292 292 293 295 296 298 298 299 300 300 300 301 299 296 299 299 297 296 297 295 295 294 294
291 291 290 290 290 290 289 290 290 290 290 290 290 289 289 290 290 289 289 289 290 291 292 292 292 292 291 292 293 293 295 296 297 295 294 297 297 289 290 290 291 292 292
290 289 289 288 289 289 289 288 288 288 288 288 288 287 286 287 287 286 286 287 287 288 289 289 290 289 289 289 289 290 291 291 291 291 291 292 293 288 286 286 289 288 290
289 288 288 288 288 287 287 287 286 286 286 285 285 285 284 285 285 286 285 285 284 284 285 286 287 288 289 289 288 287 287 288 288 288 288 289 289 289 286 288 287 289 290
287 286 286 285 284 284 284 284 284 284 284 284 284 284 283 284 289 290 288 284 283 283 283 283 284 284 288 289 289 290 289 287 286 286 286 286 287 287 288 288 287 286 284
284 284 284 284 284 283 284 284 283 283 283 283 283 283 282 282 288 289 289 284 283 282 282 283 285 285 285 286 287 288 287 288 289 286 284 285 285 286 286 285 285 285 285
283 283 283 283 282 282 282 282 282 282 281 281 281 281 281 282 287 288 288 283 281 281 281 284 284 285 285 285 285 285 285 285 285 285 285 285 286 287 286 286 285 285 285
283 282 282 281 279 280 278 280 281 278 278 277 280 277 275 278 285 287 286 281 282 281 282 282 284 284 286 287 285 284 284 284 287 288 288 289 289 289 288 285 282 281 280
282 282 282 280 276 275 278 277 278 275 279 279 278 276 275 273 283 287 286 281 279 282 283 284 284 284 286 287 284 284 282 282 283 284 284 285 287 285 287 285 283 280 280
280 280 279 278 275 275 275 275 272 271 274 269 273 273 272 274 276 286 286 284 283 282 283 283 283 285 286 287 287 284 283 285 284 283 283 283 282 279 279 283 283 282 280
276 276 272 270 273 274 268 268 267 266 267 269 270 273 275 276 281 285 286 286 286 283 282 283 284 286 286 286 285 285 286 285 283 282 281 277 280 279 281 282 281 278 277
270 267 266 266 268 268 265 266 267 266 267 270 273 274 277 280 280 284 285 286 285 284 284 285 286 285 285 284 285 285 283 281 281 280 279 280 280 281 281 278 274 275 273
266 265 265 265 264 264 268 268 264 264 266 270 271 278 279 280 281 282 281 283 283 284 284 284 284 285 284 284 282 283 282 281 281 280 280 281 281 280 273 275 273 273 271
265 266 265 265 262 265 268 266 268 268 269 266 275 278 279 279 281 283 284 284 284 283 283 283 281 280 280 280 280 280 280 280 279 279 280 279 279 274 275 273 272 269 269
266 265 263 263 263 266 265 265 273 276 278 279 280 280 278 282 283 284 284 286 286 285 282 280 279 276 279 278 278 278 279 278 277 278 278 278 275 271 272 273 272 270 270
262 262 261 263 262 262 262 262 264 268 274 276 277 279 280 281 282 283 284 285 285 285 279 278 278 279 277 276 275 276 276 276 273 273 273 273 272 271 270 270 269 268 269
254 260 257 258 259 259 261 260 259 260 263 264 272 276 278 279 280 281 283 283 279 271 275 277 278 279 277 275 275 274 273 271 271 270 270 269 268 270 269 268 267 266 265
256 256 256 257 257 259 258 257 259 260 261 263 265 270 270 275 278 278 278 273 273 273 271 273 273 273 273 272 273 273 271 270 269 268 265 262 263 265 263 264 264 265 266
253 258 257 256 256 256 256 257 258 257 260 258 260 264 267 269 261 261 260 263 267 268 268 268 267 269 269 269 269 269 269 268 267 266 265 261 261 262 262 262 262 262 262
255 255 258 255 255 254 254 255 257 257 256 256 260 261 273 270 265 265 260 259 259 262 263 264 265 264 265 265 265 266 266 266 265 265 264 263 260 260 260 263 260 260 260
255 254 254 254 254 255 255 255 255 254 257 257 259 257 270 257 257 258 258 258 256 258 261 261 262 261 261 262 262 263 263 263 263 262 262 262 259 259 259 260 260 261 259
254 253 252 252 253 254 253 252 253 253 253 255 257 257 255 256 256 255 257 256 254 256 261 260 260 260 261 262 262 261 261 261 261 260 260 260 260 259 259 258 258 255 257
253 253 253 252 252 252 251 251 251 253 253 253 252 253 256 255 255 256 256 256 254 256 260 261 260 260 261 261 261 261 260 260 260 259 258 259 260 259 258 256 257 257 252
252 252 252 252 250 251 250 250 251 250 251 253 254 252 252 255 256 256 256 256 257 260 261 262 262 261 261 261 261 260 260 262 260 259 258 258 258 257 254 254 254 254 251
254 253 252 253 254 254 255 256 252 252 252 254 254 254 254 256 257 256 256 257 259 261 262 262 262 262 261 261 261 261 262 263 261 260 257 257 256 254 253 253 252 249 249

GFSGL_sfc_thetae_108.txt.gz
Theta_e
294 294 294 293 293 294 294 294 293 293 293 293 293 293 293 293 293 292 292 291 291 292 293 293 294 295 296 297 298 299 298 299 296 297 299 300 299 298 299 298 297 298 299
292 292 291 291 291 291 290 290 291 290 291 290 290 290 291 290 289 289 288 289 289 289 290 290 290 292 291 292 293 292 293 294 294 290 293 294 295 296 296 295 297 297 296
291 290 290 289 289 288 288 289 289 289 288 288 288 287 287 287 287 287 287 287 287 288 288 287 288 289 288 289 289 288 289 290 291 289 289 292 292 293 293 292 292 293 294
289 289 288 287 287 287 287 287 287 287 286 286 286 285 285 285 285 285 285 285 285 285 286 286 286 286 286 287 287 286 287 286 286 286 286 287 288 290 286 287 288 290 290
288 287 286 286 286 286 286 285 285 285 285 284 284 284 284 284 285 285 285 284 283 283 283 283 284 284 286 288 287 286 285 285 285 285 284 285 285 286 286 288 287 287 288
286 285 285 285 284 284 284 284 284 284 284 284 283 283 282 283 289 290 287 283 283 282 282 282 283 285 286 287 287 288 287 285 284 284 284 283 284 285 285 285 284 284 281
284 284 284 284 283 284 284 283 283 282 283 282 282 282 282 282 288 288 288 283 282 281 281 282 283 284 285 285 286 287 287 288 288 285 283 283 283 284 284 283 284 283 283
284 283 283 283 282 283 282 282 282 282 281 281 281 280 280 281 286 288 288 283 282 281 281 281 282 284 284 284 285 285 285 285 285 285 285 285 285 286 285 285 284 283 283
283 283 282 282 280 281 279 280 280 278 278 277 279 276 275 277 285 287 285 283 283 283 283 284 284 283 285 286 284 283 284 284 286 287 288 288 288 288 287 284 282 280 278
283 283 282 280 278 277 279 277 277 276 278 278 277 275 274 271 283 286 286 284 283 283 284 284 284 284 286 286 284 284 281 282 283 284 283 284 285 282 283 279 281 279 278
282 281 279 278 276 276 275 274 272 271 274 270 272 272 271 272 275 285 286 283 283 283 283 282 282 286 287 287 286 284 283 285 284 282 282 282 280 281 281 282 282 280 278
279 277 275 272 276 274 271 268 268 267 267 267 267 269 272 273 280 283 285 285 286 283 282 283 283 286 287 286 285 285 286 285 282 281 280 280 280 281 281 281 279 277 277
274 272 271 273 272 269 268 266 268 264 265 266 269 268 270 275 274 283 284 284 285 284 284 284 285 286 286 285 285 285 283 282 281 280 279 280 281 281 281 279 276 274 273
273 272 270 270 267 264 268 267 262 263 263 266 269 267 268 271 274 276 282 283 283 283 284 283 284 285 285 285 282 282 282 281 280 279 279 280 281 280 274 278 272 270 270
272 270 269 267 264 265 267 264 267 267 268 265 263 266 266 270 272 281 282 281 282 283 284 283 281 281 280 280 280 280 279 280 278 278 276 278 279 277 273 276 273 267 266
269 269 266 265 263 265 264 264 272 275 277 277 279 275 269 279 281 282 282 283 284 285 282 281 278 274 277 278 278 277 276 277 277 276 275 276 276 269 270 271 270 267 268
267 266 265 265 263 262 261 260 260 265 273 275 276 277 277 279 279 280 281 281 281 280 275 275 275 275 276 277 278 276 273 273 274 274 273 272 272 272 269 269 269 267 268
261 263 262 261 261 259 259 258 258 257 257 260 269 273 275 275 277 279 278 273 267 269 261 270 271 272 273 273 274 274 271 271 271 272 271 270 269 268 268 265 266 264 262
259 259 258 257 256 257 257 256 256 255 255 255 257 266 266 273 275 274 274 259 259 261 264 266 267 268 269 269 270 270 270 269 269 269 269 268 267 266 267 262 262 263 264
256 259 258 257 255 255 255 256 256 254 255 254 254 255 256 258 259 255 255 254 254 256 257 259 260 265 265 265 266 266 267 266 266 266 267 266 266 265 265 262 260 262 261
259 259 259 255 255 254 254 254 255 254 254 253 253 255 271 262 255 253 253 254 254 256 256 256 257 259 262 262 263 263 264 265 265 265 265 265 265 263 264 263 260 260 261
261 258 256 257 255 255 254 254 255 253 252 252 252 253 268 253 251 251 251 254 255 253 255 256 255 255 257 259 260 261 262 263 263 263 263 263 263 263 262 262 260 261 261
259 257 257 254 256 256 254 252 252 251 251 250 250 252 250 251 251 251 252 254 253 254 254 252 254 254 255 258 259 260 260 261 261 261 260 260 261 261 260 260 260 260 260
259 260 259 257 255 253 252 250 251 253 252 251 250 250 251 251 251 252 254 254 254 254 253 254 255 256 255 256 259 260 261 261 261 260 259 259 259 261 260 258 259 259 259
258 258 256 255 254 254 253 254 255 254 255 256 255 253 252 253 253 254 254 254 254 254 255 255 256 257 258 258 260 260 261 263 262 261 260 259 258 259 258 257 257 256 256
255 255 255 255 255 256 256 257 257 257 258 258 256 255 255 255 256 254 254 254 255 255 255 256 256 257 258 260 260 262 262 264 263 262 260 258 257 257 256 255 256 255 255

GFSGL_sfc_thetae_111.txt.gz
Theta_e
294 294 295 295 295 295 295 294 293 293 293 292 292 292 291 290 290 290 289 289 289 289 289 289 289 290 290 290 291 291 291 291 288 290 292 292 291 291 292 294 294 294 295
291 291 291 292 292 292 291 291 291 290 290 289 289 289 289 288 288 287 287 287 287 286 287 287 287 289 286 288 289 289 288 289 288 285 287 288 289 290 291 291 292 293 292
290 290 289 289 290 289 289 289 289 288 287 287 287 286 286 286 286 286 286 286 285 285 285 285 285 285 283 285 287 287 287 287 286 284 284 287 288 289 288 289 289 289 291
289 288 288 288 288 288 287 287 286 286 285 285 284 284 284 284 285 285 285 284 283 283 284 284 283 283 283 284 285 285 286 285 285 284 284 284 285 286 287 286 285 286 286
288 287 286 286 287 285 285 284 284 284 284 284 283 283 284 285 285 284 284 284 283 283 282 282 283 284 286 286 285 284 284 284 284 283 283 283 283 284 283 284 283 284 285
286 286 285 285 284 284 283 283 283 283 283 283 283 283 282 284 289 289 285 283 283 282 281 281 282 282 283 286 287 287 286 284 283 283 283 282 283 283 284 283 282 282 280
285 284 284 284 284 283 283 283 283 283 283 282 282 282 282 283 288 289 287 283 282 281 281 281 282 283 284 284 285 287 286 287 288 285 283 282 282 283 284 283 283 282 281
284 283 283 283 283 283 283 282 282 282 282 281 281 281 281 283 288 288 286 282 282 282 282 283 283 283 284 284 284 284 284 285 285 285 284 284 285 285 285 284 283 282 282
283 283 282 282 282 281 281 281 281 279 278 278 279 277 277 277 287 287 285 283 283 283 283 284 283 282 285 287 284 283 284 284 286 287 288 288 287 287 285 282 278 278 277
283 283 282 281 280 279 280 279 278 277 278 278 278 275 274 272 283 286 285 281 278 281 283 283 284 282 286 286 284 283 281 282 283 284 283 284 285 284 284 282 280 277 277
282 281 280 279 279 279 278 277 275 275 276 271 273 272 271 272 274 284 285 283 281 280 281 281 282 285 286 287 287 283 283 285 284 282 282 282 282 282 282 282 282 279 273
281 279 278 278 278 277 276 273 272 273 273 269 269 271 272 273 278 282 284 284 284 274 276 280 281 285 285 286 286 286 286 285 282 281 280 280 280 281 282 282 281 278 277
280 277 275 275 276 274 274 274 273 272 270 269 271 269 271 274 272 282 283 284 284 279 280 282 286 286 285 283 284 285 284 282 280 278 278 278 280 281 281 277 278 274 274
277 275 274 274 273 273 273 272 271 268 267 269 268 266 266 269 271 273 275 274 279 280 282 280 283 285 285 283 278 281 282 280 278 277 277 277 277 275 273 276 277 271 270
276 274 274 274 273 271 271 269 270 269 269 269 263 264 263 265 270 278 277 272 272 278 280 272 279 280 274 273 273 277 278 279 277 277 274 274 275 275 272 274 274 269 271
275 274 274 272 270 269 269 267 273 276 278 278 279 272 267 277 280 280 281 282 281 281 271 270 271 270 271 273 274 275 277 275 277 276 274 274 274 273 274 273 273 269 269
276 273 271 270 268 267 265 265 265 265 273 276 277 276 277 277 277 278 280 278 276 273 260 260 263 267 270 270 271 271 272 273 271 273 273 273 273 272 273 273 272 270 269
270 271 270 268 266 264 263 261 259 260 260 259 268 271 274 274 276 277 276 269 258 261 256 257 259 261 265 266 267 267 268 269 270 269 270 270 270 269 270 271 271 268 268
265 265 264 262 261 262 261 259 257 254 255 254 254 263 263 272 274 272 271 255 254 253 254 255 255 257 260 261 263 264 264 266 267 265 266 268 268 267 267 268 268 267 266
260 262 261 261 259 258 258 259 258 257 256 254 252 253 253 257 255 253 252 251 250 251 252 252 254 253 255 256 258 259 261 261 262 261 264 266 267 266 266 266 267 266 265
262 261 262 260 261 261 260 260 260 257 256 254 255 254 267 258 255 252 251 250 251 251 252 251 252 251 252 253 252 252 255 258 259 261 260 263 264 263 265 265 264 264 263
262 262 261 261 262 259 259 259 257 256 256 255 253 252 269 253 250 250 250 251 252 251 252 252 254 253 253 253 253 251 253 255 254 257 260 261 262 263 263 263 263 263 263
262 262 260 260 259 259 259 256 256 256 255 254 253 253 250 250 250 250 251 254 252 251 251 248 252 254 253 253 253 255 255 255 255 256 259 259 260 260 261 261 262 262 262
261 261 262 261 260 260 259 258 257 256 255 254 251 251 252 251 253 256 257 254 250 251 251 250 251 253 255 254 253 254 255 256 255 259 259 258 258 259 260 260 260 260 260
261 261 261 262 260 259 258 256 255 254 253 254 254 254 256 257 256 256 254 252 251 251 252 252 252 253 255 256 255 254 255 261 259 260 260 259 258 258 258 258 258 258 258
259 260 260 259 257 258 257 256 257 256 255 257 257 258 258 258 257 256 253 251 252 252 252 252 253 254 255 255 256 258 258 263 261 261 261 259 258 257 258 257 257 256 256

GFSGL_sfc_thetae_114.txt.gz
Theta_e
296 298 301 301 301 301 300 299 296 295 294 293 292 291 290 290 289 289 288 288 287 287 287 287 287 287 286 286 287 287 286 287 284 285 286 288 287 288 289 290 290 290 291
292 294 295 296 297 296 294 293 292 291 291 291 290 289 288 287 287 287 286 286 285 285 285 285 285 287 285 285 285 285 285 286 284 282 284 285 286 287 287 286 288 290 287
291 291 290 291 292 292 291 290 290 289 289 287 287 287 286 286 286 285 285 285 284 284 284 283 283 283 283 283 284 283 284 285 285 283 283 285 285 286 286 285 285 284 287
289 289 289 288 289 289 288 288 287 287 286 286 285 284 285 284 285 284 284 284 283 283 283 283 283 282 282 282 282 282 284 284 284 283 283 283 284 285 285 283 282 284 283
288 287 286 286 287 287 286 286 285 285 285 284 284 283 284 285 285 284 284 284 283 282 282 282 283 282 286 285 284 284 284 283 283 282 282 283 283 282 281 283 282 282 283
287 286 285 286 285 285 284 284 284 284 283 283 283 283 284 285 290 289 285 283 282 282 281 281 282 281 284 286 286 287 286 284 283 283 282 281 282 282 283 283 282 281 278
286 285 285 285 284 284 284 283 283 283 283 282 282 283 283 285 289 289 286 283 282 281 281 282 282 283 282 283 285 286 285 287 287 284 282 282 282 283 283 282 281 279 278
285 284 284 284 283 283 283 282 282 282 281 281 281 282 282 285 289 287 285 282 282 282 282 282 282 281 282 284 284 284 284 284 284 284 284 284 285 285 284 283 281 279 280
284 284 283 283 282 282 282 281 280 279 279 279 280 280 280 280 287 287 284 282 282 282 282 282 283 282 284 286 284 283 283 283 286 287 288 288 287 287 285 282 279 277 276
284 284 283 282 282 282 281 279 278 279 279 280 280 278 277 277 286 287 284 281 277 280 281 282 283 281 285 286 283 282 280 282 283 284 284 284 285 284 285 283 281 277 277
283 282 281 281 281 280 279 277 278 278 278 277 277 275 275 277 278 285 286 281 279 277 277 278 280 285 285 286 286 277 279 285 284 282 282 280 279 281 282 282 282 280 275
282 281 280 280 280 279 278 277 278 278 277 276 276 275 275 274 277 284 284 284 283 274 275 278 278 284 286 286 283 285 285 284 282 281 272 277 276 276 278 280 278 279 278
281 280 278 278 278 278 278 277 276 276 276 275 275 274 273 275 273 282 283 283 283 278 279 280 284 285 285 284 284 284 278 274 279 277 278 278 275 277 278 273 272 272 274
281 279 278 278 277 277 277 277 276 275 275 274 273 273 270 270 272 273 274 273 277 278 280 277 280 283 283 282 275 277 275 273 275 278 278 278 272 270 273 273 273 271 269
280 278 277 278 277 275 275 275 275 274 275 273 271 271 270 267 270 276 275 269 266 273 269 265 268 270 269 269 268 269 271 271 273 276 276 275 273 271 272 273 271 270 270
279 277 277 276 275 274 273 271 275 276 278 279 278 273 270 276 280 281 280 281 280 278 262 260 262 264 265 266 265 267 268 268 270 272 273 273 272 272 272 273 274 269 269
280 277 276 275 273 272 272 272 270 271 277 279 280 281 280 277 280 279 280 278 275 270 257 256 258 260 261 263 263 263 265 266 266 268 270 270 270 270 270 271 272 272 269
279 277 276 275 274 272 271 271 270 269 267 265 275 275 277 278 277 278 278 269 257 258 253 254 254 255 257 258 259 260 262 262 263 264 265 265 267 267 267 268 270 270 268
274 275 275 273 272 271 268 265 265 261 262 258 257 266 264 275 276 276 273 255 254 252 251 251 252 252 254 254 255 255 256 258 259 260 260 260 262 263 265 267 268 268 267
267 268 267 268 266 265 265 264 262 260 260 259 257 258 253 257 256 255 251 250 249 251 250 252 252 250 250 251 252 251 252 252 253 254 255 257 259 262 264 265 265 265 266
265 264 264 263 264 265 264 263 263 263 262 261 262 256 265 257 258 254 252 250 253 252 253 251 251 250 250 250 248 249 249 253 251 252 253 254 257 259 262 264 264 264 264
265 264 263 265 264 263 263 263 262 263 261 262 257 253 271 258 256 255 254 253 253 252 252 252 252 252 253 252 251 251 251 252 251 250 251 252 254 256 260 262 262 263 263
264 263 262 262 263 262 262 261 261 261 260 259 255 258 256 256 254 254 254 254 252 251 253 250 251 252 252 251 251 253 254 254 254 251 252 251 252 254 258 259 261 261 261
264 264 264 264 262 262 262 261 261 259 260 257 259 259 258 257 255 254 253 254 254 256 255 250 250 251 252 252 252 251 253 254 251 254 255 256 254 254 258 259 259 260 260
260 260 262 262 261 262 260 258 258 259 256 260 259 257 257 256 256 257 256 256 256 256 255 254 253 251 252 253 253 252 253 258 257 256 256 256 256 255 257 258 258 259 258
257 258 258 257 257 258 257 257 259 259 259 259 258 258 259 258 258 259 259 258 257 256 255 254 254 251 252 252 252 255 256 260 258 257 257 258 257 256 257 257 257 257 257

GFSGL_sfc_thetae_117.txt.gz
Theta_e
300 302 305 308 310 310 310 308 306 303 300 298 297 295 294 293 293 293 292 291 290 290 290 290 289 290 289 289 290 289 288 288 285 287 288 289 288 288 289 290 290 290 291
297 301 302 301 303 303 302 300 300 297 295 294 293 291 291 290 290 290 289 289 288 288 288 288 287 288 288 288 288 287 287 287 285 283 285 286 287 288 289 288 288 288 289
295 297 297 298 299 298 296 295 295 293 292 290 290 289 289 288 288 288 288 287 287 286 286 286 286 286 285 286 286 285 286 286 286 284 284 287 288 289 287 287 287 288 288
292 295 294 295 295 294 293 292 291 291 289 288 288 287 287 287 287 286 286 286 285 285 286 285 285 285 285 285 284 285 285 285 285 284 284 285 286 286 286 284 284 287 286
291 292 290 290 290 290 289 288 288 288 287 287 286 286 286 286 285 286 285 285 285 284 284 284 285 285 286 286 285 285 285 284 284 284 283 283 283 283 282 283 282 283 284
289 289 288 289 288 288 287 286 286 285 285 285 286 286 286 286 289 288 286 285 284 283 283 283 284 283 285 286 286 286 286 284 284 283 283 282 282 282 283 282 282 280 278
288 286 287 287 286 286 286 285 284 284 285 284 285 286 286 288 289 288 286 284 284 283 283 283 283 283 284 284 285 286 285 286 286 285 283 282 282 284 284 282 282 281 280
286 286 285 286 285 285 284 284 283 284 284 283 283 284 285 287 289 287 285 284 283 283 283 284 283 283 284 284 285 284 285 285 285 285 285 285 286 286 285 284 283 282 282
285 285 284 285 284 283 283 283 282 282 282 282 282 283 285 286 288 287 285 283 283 283 283 284 283 283 284 285 284 281 283 284 286 287 287 287 287 287 286 284 281 279 278
286 285 285 285 284 284 283 282 281 282 281 281 281 282 282 285 288 287 285 284 283 282 283 283 282 282 284 285 282 280 278 281 283 284 284 285 285 285 285 284 283 280 279
285 284 284 284 284 283 281 280 281 281 280 280 280 280 281 282 285 288 287 283 282 281 281 281 282 284 285 286 286 281 281 284 282 281 282 282 282 282 283 283 284 282 279
284 283 282 283 283 282 281 280 280 280 280 279 279 278 279 279 281 286 287 285 285 280 280 280 281 284 285 286 285 285 285 283 279 280 280 280 280 280 281 281 282 282 281
284 283 282 281 281 281 280 279 279 280 280 278 279 278 278 278 279 284 285 285 285 281 281 281 283 284 285 284 284 284 278 278 277 278 277 278 279 280 280 278 279 278 277
283 282 281 281 280 280 280 280 280 279 279 278 278 278 278 277 277 278 279 280 281 282 281 280 280 283 283 280 276 278 278 277 276 276 276 277 278 276 276 277 276 277 276
282 280 280 281 280 279 279 279 280 280 281 279 279 279 277 276 277 279 278 275 276 277 273 273 275 275 274 274 274 273 274 274 273 273 273 273 274 274 274 275 275 275 274
280 279 280 279 279 278 277 275 279 279 280 281 280 278 275 278 280 282 282 283 282 281 270 269 270 270 270 270 269 269 270 269 270 270 270 271 271 271 271 272 273 274 273
281 280 279 278 278 277 277 277 275 275 280 281 281 280 280 278 281 282 283 282 281 275 268 266 267 268 267 267 267 266 266 267 267 267 267 268 268 269 268 269 270 271 272
283 281 280 280 279 278 276 276 276 274 273 273 280 281 281 281 280 282 281 279 270 265 263 264 264 263 264 264 264 264 264 264 264 264 265 265 265 266 267 267 268 268 269
278 278 278 278 277 277 275 274 273 273 273 270 268 274 277 280 281 280 280 268 267 264 261 260 260 261 261 261 261 261 260 261 261 261 262 262 263 264 264 265 266 266 267
274 275 276 276 274 273 272 271 270 270 269 268 268 271 265 267 269 271 269 263 261 262 260 260 260 259 259 259 259 259 259 258 259 259 260 261 262 262 263 263 264 265 265
270 269 269 270 272 272 272 270 270 268 268 268 269 267 268 268 269 268 265 260 261 260 260 259 258 257 257 257 256 257 256 258 257 257 258 259 259 260 261 263 263 264 264
266 266 265 267 266 267 267 267 267 267 267 267 265 263 273 268 263 264 263 260 259 259 258 258 257 257 257 257 257 257 256 257 257 256 257 256 257 259 259 261 261 262 263
263 262 263 262 265 266 265 265 265 266 266 265 264 264 262 266 264 263 263 261 259 256 255 254 255 256 257 256 256 257 257 257 258 257 257 257 257 257 258 259 259 260 261
259 260 261 261 263 264 265 265 264 264 265 264 263 263 262 263 263 261 261 260 259 258 258 256 256 257 258 258 257 256 255 256 256 256 256 257 257 256 257 258 258 259 260
256 257 258 259 259 261 261 264 264 264 263 263 262 262 262 262 259 260 260 260 260 258 259 258 257 257 257 257 258 256 255 258 258 255 256 257 257 256 256 257 258 258 258
255 255 257 257 257 258 258 259 260 261 261 261 262 261 261 261 261 261 261 260 259 259 259 259 259 258 258 258 257 257 256 259 257 256 256 257 257 257 256 257 256 258 258

GFSGL_sfc_thetae_120.txt.gz
Theta_e
309 316 318 318 323 324 323 322 320 316 313 310 307 305 304 300 299 299 298 297 296 294 295 295 293 294 293 294 294 293 292 292 290 291 291 291 290 290 291 292 292 291 291
306 307 309 315 312 313 313 312 309 308 306 305 301 300 299 298 297 297 294 294 293 293 293 292 291 291 292 292 292 291 290 290 289 286 288 289 289 290 290 289 289 290 291
303 305 306 307 310 309 305 305 304 301 299 297 297 296 295 295 294 294 293 292 292 292 291 291 290 291 290 290 289 289 289 288 289 287 287 289 289 290 289 289 288 289 289
301 302 303 304 306 306 301 300 299 298 295 295 294 293 293 292 292 291 291 290 290 289 290 290 290 289 289 288 287 288 287 288 287 287 287 287 288 288 287 285 284 287 287
300 299 298 299 300 298 296 295 293 295 293 291 291 291 290 290 289 289 289 289 288 288 288 288 288 287 287 288 288 287 287 287 286 286 285 286 285 284 283 284 283 285 286
298 296 292 293 292 292 291 289 290 289 288 289 289 289 289 286 290 290 289 288 287 286 285 286 286 285 286 287 287 287 287 286 285 284 284 283 283 284 284 284 283 281 280
296 292 290 290 289 289 289 288 287 287 288 287 289 289 288 288 290 289 288 287 286 286 285 285 284 285 286 286 286 286 286 286 286 285 283 283 283 285 285 284 283 281 281
293 291 289 289 287 287 287 286 286 286 286 287 287 289 289 289 289 288 287 286 286 286 286 286 285 285 286 285 286 285 285 286 286 285 286 286 286 287 287 285 285 284 284
290 290 288 288 286 286 286 285 285 286 286 287 287 287 287 288 289 288 286 285 284 284 285 285 285 285 285 286 286 284 285 286 287 287 288 288 288 287 287 286 283 281 280
290 289 289 288 287 286 286 285 286 286 285 285 285 287 287 287 288 288 286 285 284 284 284 285 283 284 285 286 286 284 282 283 285 285 286 286 287 287 286 285 284 280 280
289 288 287 287 287 287 286 285 285 284 284 284 284 285 286 287 287 288 287 285 285 284 284 283 284 285 285 286 286 285 284 285 284 283 283 283 283 283 284 285 285 282 280
287 286 286 286 286 285 285 284 285 284 283 283 283 283 284 284 286 288 287 286 286 285 284 284 284 284 285 286 286 287 286 286 283 281 281 280 280 281 282 282 283 283 283
286 285 285 285 285 285 285 284 284 284 284 283 282 282 281 281 284 287 288 287 286 284 284 283 284 284 285 286 285 285 284 282 281 279 279 280 280 280 281 281 282 281 281
286 285 285 285 284 284 285 284 284 284 283 282 282 282 282 281 281 283 285 286 285 285 283 284 284 284 284 284 280 281 281 280 279 278 278 279 279 279 278 279 278 278 277
285 284 284 285 284 283 284 284 284 285 285 283 283 284 282 280 281 283 284 283 283 284 281 280 280 280 281 280 279 278 278 277 276 277 276 276 276 276 276 277 276 276 275
284 284 284 284 284 283 282 281 282 283 284 285 285 285 284 281 285 284 284 283 283 282 279 279 279 278 278 278 277 276 275 274 275 274 274 273 273 273 273 274 274 274 273
285 284 284 283 283 282 281 281 279 279 281 283 283 283 283 282 283 284 284 284 283 283 278 277 277 276 276 275 274 273 273 273 272 270 271 271 271 271 270 272 272 272 272
285 284 283 283 282 282 281 282 282 281 279 279 282 282 283 282 282 283 284 284 281 282 276 276 274 274 273 273 272 271 271 270 269 270 269 269 269 269 269 270 270 270 270
284 283 283 283 283 282 281 281 282 281 281 280 275 279 282 283 282 283 284 281 277 276 273 272 272 272 271 270 270 269 269 269 268 268 267 267 267 268 268 268 268 267 267
282 281 282 282 281 280 279 279 279 279 279 279 276 278 276 278 280 280 281 281 277 276 275 272 270 269 269 268 268 267 267 265 265 265 266 266 266 267 266 266 266 267 267
279 278 278 280 278 279 278 278 278 278 277 276 276 277 275 276 277 278 279 277 274 274 272 269 269 268 267 266 266 266 265 266 266 265 265 265 265 264 265 266 266 265 266
275 275 274 275 276 275 276 276 276 275 275 274 275 272 276 274 274 275 275 274 272 271 271 269 268 267 266 265 265 265 264 264 265 264 264 263 263 263 263 264 264 264 264
271 272 271 271 271 271 271 272 272 272 273 273 273 271 270 273 274 271 271 271 270 267 267 265 266 265 265 264 265 265 264 264 264 264 263 263 263 263 263 263 263 262 263
269 269 270 270 269 269 270 271 271 269 271 271 271 270 270 270 271 270 270 270 268 267 265 263 263 263 264 264 263 263 262 263 264 263 262 262 262 262 261 261 261 261 261
267 267 267 268 268 268 269 269 269 269 270 269 269 269 269 268 268 269 268 268 266 265 264 263 263 262 262 262 263 263 262 262 261 261 261 260 260 261 260 260 260 261 261
264 264 264 264 265 265 265 266 266 267 266 267 267 267 267 267 267 267 266 265 265 264 264 264 263 262 262 262 262 262 261 262 260 260 260 260 260 260 260 259 259 259 260